GFSSE_850_thetae_000.txt.gz
Theta_e
324 329 335 336 336 336 337 338 339 339 337 336 335 335 335 334 335 335 334 332 332 331 330 329 328 327 326 325 327 324 321 325 324 329 327 317 318 318 324 328 328 329 329
323 326 333 335 334 334 337 338 339 339 339 338 336 334 332 328 332 335 333 331 329 326 325 325 325 324 324 326 325 325 325 324 323 322 321 319 316 317 318 324 324 326 329
321 323 328 332 333 334 337 338 338 336 336 336 335 333 332 331 327 330 332 327 324 324 324 326 328 327 325 325 324 324 326 327 325 325 325 321 317 315 319 321 324 322 325
321 319 322 324 326 327 329 329 330 329 332 331 325 323 325 332 329 326 325 323 323 324 327 328 326 324 326 327 326 329 329 329 328 328 327 323 320 317 318 323 323 322 320
324 321 319 318 319 320 320 320 319 321 323 324 320 319 320 324 331 332 331 329 327 325 325 324 323 325 326 324 325 326 328 329 329 329 328 325 324 321 326 325 323 324 322
322 321 320 319 317 316 315 315 315 316 316 317 317 317 317 316 319 320 318 315 315 321 326 327 325 324 324 325 324 325 326 330 325 328 329 328 326 323 323 327 329 327 325
319 319 317 316 315 315 314 315 315 316 317 317 317 317 317 319 319 318 318 318 317 319 321 324 326 325 324 326 327 324 325 326 326 329 330 330 330 327 327 325 326 328 327
318 317 317 319 318 317 316 317 318 318 319 318 318 318 320 319 319 317 316 315 317 317 319 319 319 316 314 316 318 324 326 327 326 325 327 329 330 329 327 327 327 329 328
321 319 320 320 319 319 317 318 319 320 318 318 318 318 318 318 317 317 315 312 312 312 313 317 318 318 319 319 321 324 324 325 323 326 325 324 325 327 329 328 327 328 329
326 326 324 323 319 316 315 316 318 322 322 320 319 318 317 317 317 315 312 308 308 309 310 311 312 311 312 313 317 321 325 326 326 325 324 324 325 325 327 328 327 329 329
329 328 328 325 319 315 314 313 315 317 320 322 322 319 316 316 316 311 309 308 309 310 310 309 308 308 309 312 318 321 324 325 325 325 323 321 321 323 324 324 325 326 329
328 327 329 324 318 315 314 313 313 312 313 317 318 319 316 314 312 310 308 308 309 309 309 309 306 307 309 310 314 319 320 319 319 319 321 321 321 320 322 324 325 326 329
329 330 330 324 318 315 315 315 313 312 315 317 320 317 315 313 312 309 309 310 310 308 307 309 307 306 309 309 309 311 313 313 313 318 319 319 320 321 320 322 322 327 329
329 331 331 321 316 314 314 314 313 313 317 321 323 321 317 314 312 311 310 309 309 309 309 308 307 306 307 307 308 307 307 306 306 309 312 316 320 321 319 320 325 324 326
329 329 329 318 314 314 314 313 313 315 318 320 321 320 319 318 316 315 309 307 308 308 308 309 309 307 306 304 304 304 304 303 304 305 306 311 316 318 320 320 320 322 324
326 327 323 315 314 314 313 313 313 313 314 315 316 317 318 316 312 309 307 307 307 308 308 308 308 306 305 304 305 305 305 306 306 306 305 305 306 312 316 318 320 320 319
322 326 318 315 314 313 312 312 312 311 311 311 312 313 313 312 310 309 308 307 307 307 307 307 306 305 304 304 305 306 306 306 305 305 305 304 304 304 305 308 316 319 319
322 321 316 315 313 312 312 312 311 311 311 310 310 309 309 308 308 308 307 306 307 307 305 304 304 304 304 305 306 306 305 304 305 305 304 303 303 302 304 305 306 307 314
321 318 315 314 312 312 313 313 312 311 311 311 311 310 309 308 308 308 307 306 307 307 306 305 305 305 306 306 306 305 304 305 305 304 303 302 302 303 304 304 305 307 308
317 315 315 313 312 314 313 313 312 312 312 312 311 311 311 310 309 308 307 307 307 307 306 306 305 305 305 305 305 304 304 304 303 304 303 302 302 300 301 301 302 303 305
315 315 314 313 314 314 313 313 313 312 312 312 312 311 311 311 310 309 308 308 307 307 306 306 306 306 305 305 305 304 304 304 302 303 303 302 302 301 300 299 300 300 303
314 314 313 313 313 313 313 312 312 312 312 312 312 312 312 311 310 310 309 309 308 307 307 306 306 306 306 305 305 304 303 303 303 303 303 302 302 300 299 299 299 298 298
314 314 313 313 313 313 312 312 311 311 312 312 312 311 311 309 309 309 310 309 307 307 307 306 307 306 306 306 305 304 302 302 303 302 301 302 302 301 299 298 297 296 295
314 313 313 313 313 313 312 313 312 312 311 311 310 309 309 308 308 308 308 309 309 307 307 306 307 307 306 305 304 303 302 302 301 300 300 300 301 300 299 296 295 294 293
313 313 313 313 313 313 313 312 311 311 310 310 309 308 307 306 306 306 307 306 306 307 306 306 308 305 306 305 303 302 300 298 297 297 296 298 300 301 298 295 294 293 292
314 314 314 313 312 312 311 311 310 308 308 307 305 304 303 303 304 304 304 303 304 305 305 305 305 304 302 300 297 296 296 295 294 294 295 297 299 300 296 293 292 292 292

GFSSE_850_thetae_003.txt.gz
Theta_e
325 332 336 336 336 338 338 338 337 336 335 335 335 335 335 334 335 336 335 334 333 331 329 328 327 327 326 326 328 328 326 325 328 329 326 321 320 318 326 328 328 329 330
324 334 335 336 335 336 337 338 337 337 336 336 334 333 332 331 332 334 334 332 330 329 325 325 325 327 327 325 326 327 327 327 324 322 323 320 318 318 318 324 325 328 329
323 328 332 334 334 334 336 338 337 334 335 335 333 331 331 329 329 331 334 332 327 324 324 324 327 327 327 326 325 325 326 328 326 325 325 325 322 317 316 321 325 325 325
321 323 326 325 327 330 329 326 326 330 332 329 323 323 327 329 329 328 327 325 324 324 326 327 326 324 324 327 327 327 327 328 329 328 328 326 323 319 317 317 322 324 325
319 319 319 320 320 318 316 316 317 320 324 327 322 322 321 322 327 331 331 331 328 324 323 323 324 324 326 326 326 330 331 330 330 329 329 328 325 324 325 324 320 323 322
319 318 317 316 315 316 317 318 318 318 320 321 320 319 318 320 322 324 322 317 315 316 319 323 327 326 325 324 325 325 325 326 329 330 327 329 327 326 325 326 327 324 326
317 315 315 316 316 316 316 317 317 318 318 318 318 318 318 319 319 319 318 319 320 322 322 322 322 323 320 317 318 325 325 326 327 329 328 329 329 329 328 326 325 327 327
316 316 317 317 316 316 315 316 317 318 319 318 318 317 317 318 319 318 317 315 312 312 313 316 318 318 318 318 319 320 323 326 326 326 326 325 328 329 330 328 327 326 327
319 319 320 318 317 316 316 316 318 320 319 318 318 317 317 316 317 317 316 311 308 308 310 311 312 313 313 315 318 321 323 324 324 324 325 326 325 325 328 328 328 327 327
325 324 322 321 318 316 315 314 314 315 319 319 319 318 316 315 316 316 312 310 308 309 310 310 309 308 309 310 313 318 321 326 326 326 325 324 324 324 324 325 326 327 327
328 326 327 324 318 314 313 312 309 309 312 314 316 319 316 314 314 314 309 308 308 309 310 310 310 307 306 308 310 314 320 323 324 325 324 323 323 321 320 324 324 326 326
328 327 328 325 318 314 313 312 310 309 311 314 317 316 318 316 313 311 309 308 309 310 310 308 308 309 306 308 309 311 317 320 320 320 319 319 320 320 320 320 320 322 324
328 328 329 327 317 314 314 314 312 311 312 314 316 317 316 314 312 311 309 310 310 309 310 309 309 308 306 308 309 309 308 307 307 306 307 313 317 319 319 320 320 322 325
328 329 331 326 314 313 313 313 313 313 314 316 316 316 317 318 317 316 315 313 308 307 308 309 309 309 309 307 306 306 306 305 305 304 306 308 311 316 320 322 320 322 325
329 330 331 324 314 313 312 312 313 313 313 314 314 315 316 315 315 314 310 308 308 307 307 308 308 308 307 306 304 304 304 304 305 305 304 304 304 306 313 319 323 322 322
326 329 330 319 313 312 312 312 312 311 311 311 311 311 312 313 312 311 310 308 307 307 307 307 307 307 306 305 304 304 305 306 306 306 306 306 305 305 305 309 316 320 321
325 326 327 315 312 311 312 312 312 311 311 311 310 310 309 309 308 308 308 307 307 307 307 307 306 305 304 304 304 305 306 306 306 305 305 305 305 304 305 305 306 309 316
325 325 324 313 312 311 313 313 312 311 311 311 310 310 310 310 309 308 308 308 307 306 307 307 306 305 304 304 304 306 306 305 305 305 305 304 303 302 302 303 304 305 307
321 323 317 312 311 313 314 313 313 313 313 312 311 311 310 310 310 309 309 309 308 307 307 307 307 306 306 305 305 305 305 305 304 304 304 304 303 302 302 301 302 304 305
321 323 316 312 312 314 314 313 313 312 312 311 311 311 310 310 310 310 310 310 309 308 308 308 307 307 306 306 306 305 305 305 304 304 303 303 304 303 302 301 300 300 301
320 319 314 313 314 314 313 312 312 312 312 312 311 311 311 311 311 310 310 310 310 309 308 307 307 307 307 306 305 306 305 305 304 304 302 303 303 304 303 302 301 300 300
315 315 314 313 313 312 312 311 311 311 311 312 312 311 311 311 310 309 309 308 309 309 310 308 307 308 308 307 306 306 306 306 304 304 303 302 302 303 303 302 302 300 300
314 314 313 313 312 312 312 312 312 312 312 312 311 311 311 309 308 307 306 306 307 306 307 309 309 307 308 308 307 306 306 305 305 304 303 302 301 302 302 301 301 301 298
313 313 312 312 313 313 312 312 312 311 310 309 308 306 306 305 304 303 302 303 304 304 304 305 306 306 306 308 306 306 305 305 305 305 303 301 300 300 300 301 301 300 297
312 312 313 313 312 312 311 311 310 309 308 306 305 304 303 301 300 300 300 301 302 302 302 302 303 304 304 305 306 305 304 304 302 300 301 301 298 298 299 300 299 298 297
313 313 312 311 311 311 310 308 307 306 305 303 302 301 300 299 299 299 300 301 301 301 302 302 302 302 302 302 302 301 302 300 299 297 297 297 297 298 298 299 297 296 295

GFSSE_850_thetae_006.txt.gz
Theta_e
335 339 337 337 339 338 338 338 337 335 335 335 335 335 336 336 336 336 336 335 334 332 330 327 326 326 326 325 325 327 329 328 330 330 326 323 320 320 327 329 330 334 332
336 339 336 336 337 338 337 337 337 337 336 334 334 334 335 334 334 335 335 334 331 330 328 325 324 325 327 328 326 326 327 328 326 323 321 320 320 319 319 323 328 336 331
336 338 335 333 334 334 336 338 337 336 336 334 332 332 332 331 332 333 333 332 331 327 324 324 325 327 326 327 327 325 326 327 326 326 326 331 332 326 317 320 325 326 329
332 337 337 332 333 335 336 336 335 334 335 332 331 331 330 330 329 330 330 329 326 326 328 328 326 324 324 324 327 327 326 327 328 328 331 332 332 324 318 317 322 325 326
328 330 326 327 328 325 325 327 331 331 331 329 326 327 328 329 328 328 329 329 328 324 321 319 322 324 324 326 326 326 329 329 330 330 334 333 332 330 323 323 322 323 324
328 329 318 317 317 317 317 317 318 321 323 322 321 320 320 319 319 319 318 317 316 317 318 318 322 326 327 325 324 325 325 326 327 332 334 334 330 331 325 325 326 326 323
324 316 315 315 316 316 316 317 317 318 319 320 319 318 318 318 319 319 318 317 315 315 316 316 318 319 319 318 317 317 323 326 327 331 333 332 331 329 328 326 325 324 327
318 316 316 316 316 316 316 316 317 318 319 319 318 318 317 317 317 318 317 314 308 308 309 310 313 314 314 314 317 319 321 324 328 332 331 331 328 327 329 329 328 326 326
320 322 321 319 317 316 315 315 316 319 319 318 319 318 317 316 316 317 316 313 309 309 310 310 311 309 308 309 310 312 316 321 329 330 329 330 328 326 325 327 329 328 327
325 327 323 320 316 315 315 312 313 314 317 319 319 319 317 315 316 316 314 310 309 309 309 309 309 309 308 307 308 312 318 321 326 328 328 328 324 324 324 324 323 323 325
329 325 325 323 316 315 314 311 311 310 313 314 315 317 318 320 316 315 311 309 308 309 310 310 309 308 309 307 308 309 315 323 324 324 325 325 323 323 322 321 324 325 323
331 329 326 324 318 315 314 314 313 311 322 318 320 317 318 315 315 313 312 310 310 311 308 308 309 309 311 316 317 313 319 316 320 321 322 320 319 319 320 320 320 321 324
332 332 329 327 318 314 316 322 325 325 324 325 316 318 322 317 323 324 324 323 320 315 317 315 313 317 311 310 315 310 311 310 316 316 317 306 308 313 317 319 320 320 322
330 332 333 329 316 314 322 325 325 324 324 325 326 317 325 325 325 324 323 320 319 319 315 318 318 309 308 308 307 305 305 307 311 313 313 305 304 305 309 316 321 322 321
329 333 335 332 315 313 312 323 321 320 324 321 325 324 322 323 323 321 319 318 318 318 318 319 318 314 308 307 306 305 306 306 306 310 310 307 307 307 306 305 310 319 323
331 333 336 331 314 312 316 312 317 313 317 320 320 319 310 313 319 318 317 316 316 316 316 317 316 311 310 307 308 305 306 308 309 307 309 308 306 306 307 307 307 308 316
328 331 334 328 313 312 312 312 312 315 311 318 317 310 310 310 313 311 316 315 315 315 315 316 315 311 308 309 307 306 306 307 308 306 306 307 308 306 305 306 306 306 307
329 330 332 321 313 311 313 314 316 318 313 317 314 312 311 311 310 310 316 316 315 314 315 316 315 314 313 310 309 309 309 308 307 306 307 306 307 307 306 305 304 304 305
326 327 330 318 318 315 314 316 313 313 314 315 313 313 311 311 311 310 311 313 313 313 313 314 315 314 313 311 309 309 309 308 308 307 307 307 306 306 306 305 303 303 303
320 326 328 319 316 312 314 314 313 312 312 312 312 312 311 311 311 311 311 311 312 315 315 314 314 314 313 311 309 309 308 309 308 307 307 307 306 307 306 306 306 306 302
320 326 323 321 312 313 314 313 313 313 313 313 312 311 311 311 311 310 309 309 308 312 313 310 313 314 314 313 311 310 309 309 309 308 307 307 306 306 307 307 305 304 304
320 320 318 315 313 313 312 311 312 312 312 312 312 312 311 310 308 305 303 304 307 309 310 311 312 312 313 313 312 311 310 310 309 309 308 307 307 306 306 306 304 303 303
315 315 315 313 312 312 312 312 312 312 312 311 310 308 308 306 304 301 300 300 300 302 307 308 309 310 310 312 313 311 311 310 310 309 309 307 306 306 306 304 302 302 301
313 312 312 312 312 312 311 310 309 310 310 308 308 307 305 303 300 300 299 299 299 300 304 305 306 307 308 308 310 311 311 310 310 309 308 308 306 306 305 303 302 301 301
313 312 312 312 311 311 310 310 309 308 308 308 307 305 303 303 301 300 299 298 299 301 303 301 302 305 306 307 307 308 309 309 308 308 308 307 306 305 303 301 302 301 301
313 312 312 311 311 310 309 309 307 307 308 307 305 303 303 302 302 302 299 299 301 301 302 302 302 302 303 303 303 303 303 303 303 305 305 306 307 304 301 301 300 300 301

GFSSE_850_thetae_009.txt.gz
Theta_e
338 340 338 338 338 337 337 337 336 335 335 335 335 335 336 335 336 336 336 335 334 332 331 329 327 326 325 325 325 326 327 328 327 328 329 327 324 320 322 329 334 333 334
340 341 337 338 338 338 337 337 337 336 335 335 335 336 336 336 336 335 335 334 332 331 329 328 326 325 325 326 326 327 325 326 327 327 324 323 328 323 321 324 331 335 330
340 339 336 335 336 336 337 338 337 337 336 334 333 332 332 332 331 331 331 332 332 330 327 326 326 327 325 323 324 327 327 326 327 326 326 328 333 333 326 321 325 329 329
340 341 338 333 333 335 337 337 335 335 335 333 331 329 329 329 329 328 329 328 328 330 327 321 320 321 323 324 325 327 327 326 327 327 328 331 333 332 324 318 320 325 327
337 339 331 331 330 329 329 329 330 332 331 329 328 326 326 322 319 319 321 321 319 317 316 317 319 323 326 326 324 326 327 329 327 327 329 334 333 333 327 323 321 322 323
332 330 320 319 318 317 318 319 322 325 326 324 321 320 319 318 318 319 318 318 318 317 317 318 320 320 320 321 320 321 324 326 329 331 333 334 331 333 329 325 325 328 322
326 324 315 315 316 316 317 317 318 319 319 319 319 319 318 318 318 319 318 316 310 308 309 310 311 313 314 314 315 318 318 317 325 331 331 333 334 331 330 326 324 322 321
326 327 316 316 316 315 316 317 318 319 319 319 319 319 318 317 317 317 317 315 309 308 309 310 310 310 309 308 308 310 314 320 322 330 331 332 331 329 328 328 328 325 323
326 328 327 324 316 315 314 313 314 318 319 319 319 319 318 316 315 316 316 311 309 308 309 309 309 309 309 308 307 308 311 316 321 330 329 330 330 330 327 326 327 329 329
326 329 330 329 328 329 324 309 309 311 316 319 320 320 319 318 320 316 316 312 308 308 310 309 309 309 309 309 309 308 309 319 326 325 326 328 328 325 325 324 325 325 328
328 330 330 329 328 327 326 316 317 315 316 320 321 320 322 328 327 326 323 314 310 310 312 310 309 309 310 315 317 315 311 323 323 323 324 325 323 323 323 322 322 322 324
331 330 332 332 329 326 324 327 327 325 327 328 329 329 328 328 327 324 324 321 321 320 316 319 318 316 319 319 318 319 319 320 318 319 320 321 317 313 319 319 320 321 320
330 329 330 334 329 327 326 326 326 326 326 327 329 329 328 327 327 326 325 324 323 321 321 320 321 320 320 316 316 316 317 317 316 316 317 316 308 305 308 312 316 319 319
329 328 330 334 326 323 327 326 326 326 325 326 327 327 326 325 325 324 323 321 320 319 320 320 320 320 319 314 313 311 313 311 312 313 313 312 307 306 305 305 308 315 320
328 328 330 333 327 326 326 327 326 326 325 322 325 324 322 323 323 321 320 319 318 318 318 318 318 318 316 314 312 312 312 312 312 312 312 311 308 307 307 308 308 307 311
327 329 330 332 329 325 325 325 325 323 322 321 320 317 313 320 321 320 318 318 317 317 317 317 318 318 316 314 313 312 312 311 311 312 311 311 309 307 306 307 307 307 307
327 328 331 331 329 324 324 323 321 320 319 320 319 319 317 315 316 317 318 318 317 317 317 317 317 317 317 316 314 312 312 312 312 311 311 309 310 309 307 306 306 306 307
327 328 329 330 326 323 322 321 321 320 320 320 319 318 319 318 317 315 317 317 317 317 317 317 316 316 317 316 315 313 312 311 311 311 310 310 309 310 309 308 305 305 305
326 326 328 331 322 321 322 321 321 320 319 317 316 316 316 313 314 311 312 314 315 317 316 317 316 316 316 316 315 314 312 311 312 311 310 310 310 309 309 309 307 304 304
325 326 327 329 321 321 322 321 318 317 317 316 316 315 315 314 313 312 313 313 313 314 314 314 314 315 315 315 315 314 313 312 311 311 311 310 309 310 308 308 308 306 306
327 327 327 323 321 319 318 317 316 316 316 316 315 315 314 313 310 309 310 310 310 310 309 307 309 311 312 313 314 315 315 313 312 311 311 311 310 309 308 309 309 308 307
325 325 322 319 317 316 316 316 315 314 315 315 315 313 312 311 309 309 307 307 307 307 306 306 307 309 310 311 312 313 314 314 313 313 311 311 310 309 308 308 309 308 307
320 319 318 317 316 315 314 314 314 314 314 313 313 312 311 310 308 307 306 307 307 307 307 307 307 307 308 309 309 311 312 312 313 312 313 312 311 310 308 308 308 307 305
318 317 316 315 315 313 312 313 313 313 313 312 312 311 309 307 306 305 305 306 306 305 306 306 305 306 306 306 307 307 308 310 311 311 311 312 311 310 309 308 308 306 304
317 317 316 315 314 314 313 312 312 313 313 312 311 308 306 306 305 304 304 304 304 304 305 305 305 305 305 305 305 306 307 307 308 308 309 310 311 310 309 308 308 305 304
317 316 315 315 314 313 313 313 313 312 311 309 308 307 305 304 303 303 303 304 304 304 304 303 304 303 303 302 302 302 301 301 302 301 301 305 307 308 308 307 305 304 304

GFSSE_850_thetae_012.txt.gz
Theta_e
341 339 335 337 337 337 337 336 335 335 336 335 335 335 335 335 335 335 335 335 334 332 331 330 329 328 326 325 325 325 326 326 326 327 325 324 324 322 323 327 334 333 332
341 339 337 337 338 338 337 337 336 335 335 335 334 335 335 334 333 332 332 332 332 331 330 329 328 327 326 326 323 321 324 327 326 326 326 324 326 332 324 321 327 333 325
339 336 336 337 337 337 337 337 336 335 335 334 333 332 330 328 328 328 328 329 328 328 328 325 321 318 316 316 318 322 324 326 326 326 326 326 329 333 328 322 322 325 326
342 340 334 334 334 336 337 335 333 334 334 332 328 324 324 322 319 319 320 321 321 318 317 317 317 318 319 321 324 324 325 326 326 326 326 327 331 333 330 325 319 322 324
342 339 332 333 333 330 328 328 332 331 330 329 326 321 319 318 318 318 318 318 318 317 316 314 315 316 318 319 320 324 324 324 326 326 325 328 332 332 326 323 320 322 324
333 327 322 318 316 316 317 319 321 321 320 320 320 319 318 318 318 318 318 316 311 308 308 309 310 311 312 313 314 316 318 319 324 325 326 331 330 329 321 325 324 325 326
318 314 314 315 315 316 316 316 317 318 319 319 319 318 318 317 317 316 317 315 309 308 309 309 309 309 309 308 308 308 310 316 317 320 330 330 327 321 327 327 325 324 325
322 316 317 316 315 314 314 315 316 317 319 318 318 318 318 316 315 315 316 313 310 308 308 309 309 309 309 309 309 308 309 309 313 327 329 330 328 329 328 327 328 327 323
327 320 317 315 315 314 311 311 312 315 317 317 319 319 317 316 317 315 314 313 309 308 309 309 309 308 308 309 309 309 308 309 313 324 326 325 329 328 327 327 326 327 328
329 329 330 329 326 328 324 308 308 310 313 315 318 317 326 329 327 326 322 318 313 311 312 313 313 312 311 312 317 316 312 316 324 323 324 325 324 324 324 324 324 325 325
329 330 329 328 327 327 325 324 323 323 328 327 330 324 330 328 327 325 323 325 323 321 319 319 319 317 319 319 319 318 316 322 323 320 323 323 323 323 320 321 323 323 323
330 330 330 330 327 323 325 328 327 327 327 328 328 327 329 326 328 326 326 325 323 321 320 321 320 320 322 320 317 317 318 319 319 314 317 318 318 317 306 307 317 319 320
330 330 331 330 327 329 324 327 327 327 326 326 329 326 327 325 326 325 324 323 321 320 319 319 320 320 320 318 313 311 312 313 314 315 316 316 316 314 306 306 307 310 315
330 329 332 330 323 320 329 328 327 327 325 326 325 327 324 323 323 319 321 317 319 318 318 318 318 318 318 318 314 313 311 311 310 312 313 312 312 311 307 307 307 306 307
330 329 330 329 325 326 321 327 324 325 326 323 324 323 311 316 317 318 318 318 317 317 317 317 317 317 317 316 314 313 312 312 312 311 311 312 312 311 308 307 307 308 308
329 329 330 333 329 325 327 325 325 322 321 321 321 319 313 312 313 313 313 314 316 317 317 315 317 317 317 318 317 315 313 312 311 310 311 312 311 311 309 307 307 307 307
327 328 330 333 332 325 324 322 322 321 320 320 320 320 319 315 313 312 312 313 315 315 314 313 316 317 316 316 317 316 315 313 312 311 311 311 311 310 310 309 308 306 306
328 328 330 332 331 327 324 323 321 321 320 320 320 318 318 318 313 313 312 312 313 313 312 312 313 316 317 316 316 316 316 315 313 312 311 311 310 310 310 310 309 308 306
327 328 329 331 328 324 322 322 322 321 319 318 317 317 316 315 315 314 312 310 310 310 310 310 313 315 316 316 315 314 315 315 316 313 312 312 311 310 310 310 309 309 307
326 326 328 331 325 321 322 322 320 318 318 317 317 316 316 315 315 311 310 310 310 310 308 310 311 309 308 309 313 314 313 314 314 312 313 312 311 311 310 309 309 309 308
326 327 327 327 323 322 321 320 317 317 316 316 316 315 314 313 312 311 309 309 308 308 308 307 306 306 307 306 310 311 312 312 313 315 315 314 312 311 310 310 309 309 309
326 325 321 320 318 317 317 316 316 315 315 315 315 314 312 312 311 310 308 306 306 306 305 304 305 306 304 305 307 309 310 309 309 311 313 314 314 313 311 310 309 309 309
321 319 319 318 318 316 315 315 315 314 314 314 314 313 312 312 312 307 306 305 305 305 304 300 304 305 307 307 307 307 308 307 309 309 309 311 311 312 313 311 310 309 308
318 317 317 316 315 314 313 313 313 313 314 314 313 313 312 308 306 306 305 304 304 303 303 305 306 305 304 305 305 306 306 307 305 307 307 308 309 310 311 312 311 310 309
318 317 317 316 315 315 314 314 314 313 313 311 309 309 308 306 306 304 303 303 302 301 302 304 304 304 304 304 304 303 302 302 301 302 303 304 304 307 307 309 310 309 309
318 317 316 315 315 315 314 314 312 310 310 309 309 307 306 306 302 301 300 301 301 303 303 303 303 303 303 302 301 300 300 299 298 299 298 298 298 300 301 304 307 308 307

GFSSE_850_thetae_015.txt.gz
Theta_e
338 335 334 334 336 336 335 334 334 334 334 334 334 335 334 333 332 331 331 331 331 330 330 330 329 328 327 326 325 322 321 323 326 327 327 326 323 324 324 326 333 329 329
339 336 335 335 336 336 335 335 335 334 334 334 333 332 329 327 325 324 322 323 324 325 326 326 325 322 319 316 315 317 321 324 325 326 326 325 326 330 329 325 332 331 325
338 337 336 337 336 336 336 336 334 333 333 332 329 324 322 319 316 316 317 318 318 317 316 316 316 316 316 316 317 321 323 324 326 326 326 325 328 329 329 326 325 330 329
336 336 336 336 335 336 336 331 328 329 328 326 323 319 317 317 316 317 317 317 316 315 312 311 310 311 313 315 317 318 323 324 324 326 326 326 329 330 330 326 324 324 327
338 334 333 333 334 330 324 323 324 324 324 321 318 317 317 316 316 316 316 315 311 307 308 308 309 309 310 310 310 312 316 318 322 325 328 325 327 329 329 326 323 323 326
335 331 328 320 317 316 316 317 317 317 318 318 318 317 317 316 315 314 315 314 308 307 308 308 308 309 309 309 308 308 308 314 317 318 325 327 329 328 325 322 325 325 323
319 315 314 315 315 316 316 316 316 317 317 317 317 317 317 315 313 314 315 313 309 308 308 309 308 308 308 308 308 308 308 309 313 328 327 328 328 326 322 321 325 326 325
315 316 316 315 314 314 314 313 313 314 316 316 316 317 315 314 314 315 314 311 309 308 309 309 310 310 310 309 309 310 308 310 320 327 322 327 324 326 327 327 328 326 324
317 316 315 315 315 311 308 308 309 311 312 314 316 315 322 324 324 324 319 318 316 315 314 313 314 314 313 313 315 315 314 322 325 325 324 325 325 324 325 326 326 326 328
325 326 327 323 326 323 313 309 309 311 313 322 322 327 327 325 324 324 326 324 323 319 319 319 317 318 318 318 316 316 316 322 324 322 322 324 324 325 323 322 321 324 325
329 329 328 326 324 325 324 325 323 322 321 321 324 328 328 326 325 325 325 324 322 319 320 318 317 318 319 319 316 312 315 319 319 320 318 319 321 322 322 320 314 320 323
330 329 329 325 323 325 325 327 327 326 327 328 327 325 327 325 327 325 324 322 321 319 318 317 317 317 318 318 316 312 310 312 315 317 316 316 318 318 317 314 306 310 317
329 330 328 320 325 326 324 327 327 326 325 328 329 324 322 325 325 324 319 316 315 316 317 317 317 316 317 318 316 314 312 310 309 313 314 313 314 315 315 313 306 306 310
330 330 330 323 319 326 328 326 327 326 325 328 325 322 314 317 316 313 313 314 315 317 317 316 315 314 315 316 316 315 314 312 311 309 312 312 312 312 311 311 308 307 307
330 331 331 326 315 319 328 327 327 326 326 322 321 319 312 312 313 312 312 312 313 314 315 315 314 313 315 316 316 317 317 316 314 312 311 310 311 312 312 310 309 307 307
330 330 330 329 326 316 321 322 319 320 320 321 320 318 316 313 312 312 312 312 313 313 314 314 314 313 315 316 316 316 317 316 316 314 313 311 311 310 310 310 309 308 307
329 329 331 329 326 325 319 318 320 322 319 320 320 320 318 317 317 314 314 313 313 312 312 311 310 310 313 313 316 316 316 316 316 315 315 313 312 311 311 309 308 309 308
328 329 331 326 324 324 324 320 320 321 320 320 321 319 319 318 317 315 314 311 310 311 311 310 309 311 312 315 316 316 316 314 314 315 315 315 312 312 311 311 310 309 309
328 327 330 329 326 324 323 322 321 321 319 318 317 317 317 316 315 314 313 311 312 310 309 309 308 309 311 310 307 304 303 307 311 307 307 312 312 313 312 311 310 310 310
326 327 330 328 325 323 323 322 321 320 318 318 317 316 316 315 314 313 312 312 312 310 308 307 306 305 304 303 303 302 302 302 305 308 309 311 316 315 313 312 311 310 310
327 328 328 323 322 322 322 322 320 318 316 316 315 315 314 314 313 313 312 310 307 307 306 305 304 302 299 300 302 302 302 302 302 303 303 306 310 313 314 314 313 311 310
324 324 323 323 322 319 318 317 317 316 315 315 314 314 313 313 313 312 310 306 306 305 305 304 303 301 303 304 306 307 306 304 303 303 303 308 309 309 310 311 312 312 310
321 321 321 319 318 317 316 315 315 314 313 313 314 314 313 312 311 308 306 306 305 303 303 303 300 302 305 305 305 304 305 305 303 303 303 304 306 307 308 309 311 312 311
318 317 316 315 315 314 314 313 313 314 314 313 313 311 309 308 307 307 306 304 301 300 300 299 303 305 304 304 304 304 304 303 300 300 300 300 301 302 304 306 306 308 311
317 316 315 315 315 315 314 314 314 313 311 309 309 309 308 308 307 306 303 299 298 301 302 303 303 303 302 302 302 301 300 300 299 299 298 297 298 298 298 298 299 300 305
317 316 316 316 316 315 314 314 312 311 311 310 310 310 308 306 304 300 298 299 300 301 301 301 301 299 299 299 299 297 297 297 298 298 297 297 296 296 296 296 297 297 299

GFSSE_850_thetae_018.txt.gz
Theta_e
337 337 337 337 335 335 334 334 334 333 333 333 333 331 328 325 323 322 321 322 323 324 325 326 325 324 320 319 317 317 318 320 323 327 327 326 323 324 326 327 332 330 331
334 335 334 334 333 333 334 334 333 332 332 331 329 323 319 317 315 315 315 315 316 316 316 315 315 315 315 316 317 319 321 322 324 326 326 325 324 328 331 326 324 330 327
335 335 335 334 334 334 335 333 330 329 328 325 320 317 315 315 315 315 315 314 314 314 313 311 310 311 313 315 316 318 322 323 324 326 326 325 326 328 330 328 324 327 326
337 335 336 336 335 335 333 327 325 323 321 319 317 316 315 315 315 313 312 313 310 307 308 308 308 309 309 309 309 311 316 320 323 326 325 326 328 329 330 329 325 323 321
337 337 336 334 334 331 322 320 318 318 317 317 316 315 315 315 313 310 313 312 308 307 307 308 308 308 308 308 308 308 309 317 318 324 327 325 326 327 328 327 325 321 323
335 335 333 333 322 316 316 316 317 316 316 316 315 315 315 314 310 311 313 312 309 308 308 308 308 308 308 308 308 308 308 310 317 319 325 326 328 327 321 323 323 322 322
332 330 320 315 315 315 316 316 316 316 315 314 314 316 315 311 310 311 312 311 310 309 309 309 310 311 310 310 310 310 308 311 320 326 326 327 326 325 321 321 324 325 323
315 315 315 315 315 314 313 313 312 312 313 313 315 315 311 313 315 315 315 316 316 316 315 315 315 314 313 313 315 316 311 318 325 325 320 322 323 323 326 325 327 326 325
316 315 314 313 310 308 308 308 309 310 311 312 311 314 319 318 318 319 320 319 319 316 317 316 315 316 317 317 315 315 316 324 324 324 322 324 326 323 324 323 322 324 326
318 319 320 322 319 313 309 309 310 311 315 316 320 321 322 320 322 321 321 320 319 318 317 316 314 314 315 315 314 311 314 321 322 321 320 320 323 323 322 322 321 319 323
326 327 324 321 323 325 325 323 322 321 320 319 321 323 320 322 324 320 319 319 318 317 316 315 315 314 315 315 313 312 311 314 318 317 319 317 317 318 318 317 316 308 319
329 328 327 319 323 325 327 327 326 324 325 325 325 319 318 322 322 321 320 314 313 315 315 315 314 314 313 314 314 314 313 311 309 311 315 315 316 318 316 315 315 311 306
329 329 328 317 318 324 326 327 326 325 325 327 325 321 318 319 317 316 313 312 312 314 314 314 314 315 313 315 316 316 316 314 313 310 310 314 313 313 312 312 312 311 307
329 329 328 319 323 323 326 326 326 325 325 327 325 322 316 317 316 313 312 313 313 314 313 313 313 313 312 313 316 316 316 316 316 315 314 312 310 310 312 312 310 310 309
329 329 329 318 326 325 325 326 326 325 325 325 323 319 313 313 312 313 314 315 315 315 315 315 314 313 311 312 314 315 316 316 316 316 316 315 314 313 311 310 309 309 308
329 330 330 324 316 323 327 327 326 326 324 319 319 319 318 316 314 314 314 314 315 313 313 312 311 311 310 310 311 312 314 315 316 317 316 315 315 315 313 312 311 309 309
329 330 331 329 325 321 322 324 321 321 319 319 320 320 319 318 316 316 314 313 311 311 312 311 311 310 309 309 309 311 315 315 315 315 315 314 315 314 313 312 311 311 310
329 330 330 329 324 323 325 320 320 321 320 319 320 320 319 318 318 317 315 314 312 312 312 313 311 310 309 307 307 306 305 303 303 303 305 307 308 310 313 312 312 311 311
329 331 330 329 327 325 324 322 320 321 320 319 318 318 319 318 316 315 314 313 313 314 312 311 309 306 305 303 302 301 301 302 302 301 302 303 307 310 313 315 314 312 311
329 331 330 328 324 325 324 322 321 321 320 317 316 315 314 313 313 313 313 313 313 311 311 307 306 303 302 302 301 301 301 301 301 301 304 305 304 308 310 310 312 313 312
331 329 326 324 324 323 323 320 320 317 316 315 314 313 313 313 313 313 313 312 310 307 306 305 303 302 302 300 300 301 301 301 304 305 302 304 305 308 308 309 310 312 312
326 325 323 317 321 321 318 319 317 315 314 314 314 313 313 313 313 311 309 307 306 305 304 302 301 300 298 300 303 303 304 302 302 303 302 303 303 303 304 306 308 309 311
318 318 318 317 317 316 316 315 314 313 313 313 313 313 312 311 309 308 307 306 305 303 300 298 297 298 301 303 303 303 303 303 301 301 300 300 300 299 299 299 301 303 307
316 315 314 314 314 315 315 314 314 313 313 313 313 312 310 310 309 308 307 305 300 296 295 298 301 302 302 301 300 300 301 300 299 299 299 298 298 297 296 296 296 297 299
317 316 315 315 315 314 315 315 314 313 313 312 311 311 310 309 308 307 301 296 295 297 298 299 299 299 299 298 298 298 298 297 296 296 296 297 296 296 296 296 295 295 297
316 316 316 316 316 316 315 314 313 312 312 311 310 309 307 307 307 301 297 297 298 297 296 297 298 298 297 297 297 297 296 296 295 295 295 295 295 295 295 295 294 295 296

GFSSE_850_thetae_021.txt.gz
Theta_e
338 338 338 336 335 334 333 332 332 332 331 331 329 324 319 316 315 314 314 314 315 315 314 315 315 315 315 315 315 315 316 317 321 323 324 326 325 324 326 326 327 329 327
338 338 337 336 335 333 332 332 331 330 329 326 320 317 314 314 314 314 314 314 313 313 313 312 311 312 313 314 315 317 320 321 323 325 326 325 324 326 330 327 324 326 326
336 336 336 334 333 332 333 331 329 327 323 319 316 315 315 314 314 311 311 311 309 308 308 308 308 309 309 308 309 314 317 322 323 325 325 325 325 327 329 327 323 325 327
334 335 334 334 333 333 332 327 325 321 318 316 315 315 314 314 311 309 311 309 307 307 307 307 307 308 308 308 307 308 312 317 322 325 325 325 326 328 328 329 327 324 323
336 335 335 335 334 333 326 324 319 318 316 316 315 314 314 313 308 310 311 310 308 307 308 308 308 308 308 308 308 308 308 312 317 323 326 325 325 326 327 326 326 325 321
336 336 335 334 332 323 320 319 317 316 315 314 314 313 314 309 310 311 311 309 309 309 309 309 310 310 310 309 309 308 308 310 316 318 324 326 327 327 325 320 321 325 321
336 335 334 327 318 316 316 316 315 315 313 312 313 313 310 310 311 312 314 314 315 314 315 314 313 313 313 314 315 313 310 313 321 325 326 326 324 323 323 322 323 324 322
333 330 319 316 315 315 314 313 312 311 310 311 312 312 317 317 317 317 317 315 313 314 313 312 313 315 316 316 313 314 316 320 324 323 322 321 322 322 322 326 327 326 325
318 315 315 313 311 310 309 309 309 309 310 310 314 318 317 319 318 316 316 314 313 314 312 311 311 311 312 312 311 310 314 321 322 323 321 324 326 324 324 322 320 321 323
315 314 314 312 308 307 307 308 309 310 313 316 318 319 319 321 319 316 315 315 315 315 314 312 312 311 311 311 311 311 310 312 318 320 320 318 319 321 321 320 318 316 312
319 319 318 317 318 315 315 317 317 317 318 318 320 320 321 321 318 317 316 314 314 314 314 313 313 313 312 312 312 310 311 311 309 309 311 315 315 317 318 317 317 315 314
323 323 318 319 321 322 323 323 322 321 319 322 321 317 317 319 319 316 315 313 314 315 315 315 316 316 315 313 315 315 312 310 311 311 310 309 313 314 314 314 313 312 311
325 326 322 320 324 326 325 323 322 320 322 322 321 316 315 316 316 315 313 313 315 315 315 316 316 316 315 312 314 316 316 315 313 312 312 312 312 310 310 310 311 312 311
327 327 325 318 322 324 326 324 324 324 323 319 321 317 312 313 313 313 313 314 315 316 316 316 314 314 312 311 311 313 314 315 316 316 316 316 312 314 314 313 310 310 310
328 328 328 320 322 321 325 324 323 323 324 323 320 317 314 313 314 313 313 313 314 314 313 312 311 311 311 311 311 310 311 314 316 315 316 316 315 315 314 314 314 312 311
328 329 329 321 324 323 325 326 326 325 325 320 320 319 319 318 315 314 314 314 313 312 311 311 312 312 312 311 311 310 309 311 315 315 315 315 316 315 315 314 312 312 312
328 329 329 323 326 325 327 326 325 325 322 319 319 320 319 319 318 317 317 315 314 312 312 313 313 313 312 310 308 307 305 305 304 303 303 303 306 307 310 313 314 313 311
329 329 328 324 324 325 326 325 323 321 319 320 320 319 319 319 319 317 315 315 314 313 313 313 312 312 308 306 304 303 302 301 301 301 301 301 303 305 307 310 311 313 312
328 330 328 321 324 325 325 323 322 322 320 319 320 320 319 319 317 315 314 313 313 313 311 309 307 306 305 303 302 302 302 302 301 301 301 301 303 304 304 305 307 311 314
325 330 327 326 326 325 324 323 322 320 319 318 318 318 317 315 314 314 313 313 311 308 307 307 306 305 304 301 299 298 298 298 299 302 305 305 304 303 304 306 307 309 310
329 329 327 326 324 324 324 323 319 317 316 315 314 314 314 313 313 313 310 309 308 308 307 306 305 304 302 297 297 299 298 301 300 299 301 302 302 302 302 303 303 305 307
328 325 320 322 324 324 322 317 318 318 315 314 314 314 313 312 311 310 311 310 308 307 306 305 302 297 295 297 300 301 301 299 301 299 299 301 300 299 299 298 298 299 301
320 318 317 317 317 318 317 317 315 314 313 312 312 312 312 311 309 308 307 307 306 303 298 295 294 294 295 296 299 299 299 299 298 298 298 298 299 297 296 296 296 296 296
315 315 314 314 314 313 313 313 313 313 312 312 312 312 310 309 309 308 307 306 299 295 294 293 293 294 296 297 297 297 297 297 296 296 296 295 295 295 295 295 295 295 295
316 315 315 315 315 315 315 315 314 314 313 312 311 309 308 308 308 305 303 299 297 296 293 293 294 296 297 297 297 296 296 296 295 296 295 295 295 294 294 295 295 294 295
316 315 315 315 315 315 315 314 313 312 311 310 309 309 307 304 301 300 300 299 298 294 292 292 293 294 294 294 294 293 293 293 294 294 294 294 294 294 294 295 294 294 293

GFSSE_850_thetae_027.txt.gz
Theta_e
338 339 337 335 334 333 332 332 332 331 330 327 323 317 314 314 314 313 312 312 311 310 310 309 310 311 311 312 312 313 313 314 315 316 319 321 323 324 327 328 326 328 326
338 338 337 335 334 333 332 332 331 329 325 317 314 314 314 312 310 310 308 307 307 307 307 307 307 308 307 307 308 310 314 316 318 320 323 324 324 325 328 329 325 327 327
337 338 336 335 334 333 332 331 328 323 316 314 314 313 311 309 309 307 307 307 307 307 307 307 307 307 307 307 307 308 310 315 319 321 324 324 325 326 328 328 327 327 326
337 337 336 334 333 332 331 328 322 315 315 314 313 312 308 309 309 308 307 308 308 308 308 309 309 309 309 309 308 308 308 310 316 322 324 325 325 327 327 328 327 326 325
337 337 335 333 332 332 328 322 315 315 314 313 312 309 309 310 309 309 309 309 311 312 313 313 312 312 312 312 313 312 310 311 314 318 324 325 326 327 326 325 321 321 325
337 336 334 333 333 329 324 316 315 315 313 312 311 309 310 310 310 312 314 314 313 312 312 313 313 313 312 310 310 312 313 313 317 322 325 327 325 324 324 322 323 324 322
335 334 334 334 331 325 318 316 315 313 312 312 309 310 312 314 315 313 313 311 310 310 310 310 310 310 310 310 310 310 313 317 317 318 318 320 320 321 321 324 325 326 325
335 335 335 333 325 319 316 315 313 310 311 311 314 315 316 315 312 312 312 311 310 310 310 310 310 310 310 309 309 309 309 310 312 316 319 319 320 322 322 322 321 320 320
335 335 334 324 319 316 315 313 310 311 312 317 316 317 315 313 312 312 312 311 310 310 311 311 311 311 311 311 311 311 310 309 309 309 309 312 314 317 317 319 319 318 316
335 334 321 317 316 315 313 310 310 312 317 317 318 316 315 314 313 312 312 311 311 311 311 312 312 312 312 312 312 312 312 311 310 309 309 309 309 311 313 314 315 315 314
331 318 316 313 312 310 309 310 312 314 320 319 318 318 316 315 314 312 312 312 312 313 313 314 314 313 312 311 312 312 312 312 312 311 310 309 309 309 309 310 311 311 311
316 313 310 308 308 308 309 311 314 320 320 319 319 320 319 317 316 315 313 314 314 314 315 315 314 312 311 312 313 313 313 312 312 311 311 311 310 309 310 311 311 310 310
314 315 314 312 310 311 313 317 319 321 321 319 319 319 319 319 318 316 313 314 314 315 315 314 312 311 313 313 313 312 311 311 311 310 311 312 311 310 310 311 311 312 312
318 318 319 318 319 320 320 322 320 322 324 323 322 320 318 319 319 317 314 314 314 314 314 312 311 312 313 313 312 311 310 308 307 306 307 310 312 312 311 310 310 311 312
322 320 321 323 324 324 325 325 325 325 326 326 325 322 318 318 319 316 315 314 314 314 313 311 312 312 312 310 309 308 307 307 307 306 305 304 305 309 312 313 311 309 309
324 324 322 323 325 325 325 326 326 324 325 327 325 324 321 317 318 317 315 315 315 314 314 313 312 309 308 308 307 307 307 306 306 305 304 303 302 302 301 302 303 304 308
325 326 325 323 324 325 325 325 324 320 323 325 324 322 321 318 318 318 317 317 315 313 313 312 310 309 308 308 307 306 306 305 304 302 302 303 303 303 303 302 301 302 303
325 326 327 324 325 326 325 320 320 319 322 323 322 322 321 319 318 318 316 314 314 313 312 310 310 309 309 307 305 304 303 301 299 298 298 299 300 301 302 303 303 303 303
325 327 327 326 323 325 325 322 322 321 322 322 322 320 319 318 317 317 315 314 313 311 309 309 308 308 305 303 300 298 297 296 295 295 297 300 299 299 299 300 300 302 302
323 324 327 326 324 322 320 321 323 321 320 318 318 319 317 315 315 313 313 311 308 309 308 308 305 301 297 295 294 295 294 294 295 298 298 296 297 298 296 295 295 295 296
324 325 327 327 325 322 323 323 321 317 318 319 313 313 313 313 312 311 309 308 308 307 304 300 299 297 295 294 295 297 296 295 300 295 297 298 297 294 294 293 294 293 293
325 326 327 326 324 322 320 319 318 317 313 313 312 312 312 312 310 309 308 307 303 299 299 298 298 297 295 293 293 297 298 297 298 297 297 294 294 294 295 294 293 293 293
324 323 323 323 322 317 316 317 314 313 313 313 312 312 311 311 309 308 306 302 300 299 299 298 298 295 294 294 292 296 297 297 296 295 295 295 295 294 294 294 294 294 294
317 315 315 315 314 315 315 313 313 314 313 313 313 312 310 309 306 301 301 299 299 298 298 298 297 295 292 294 294 295 294 294 293 294 294 293 293 292 293 294 294 294 294
314 314 314 314 314 314 314 314 314 314 313 312 311 309 305 302 300 298 298 299 299 299 299 298 296 295 291 291 293 292 292 292 292 293 292 291 291 291 292 291 293 293 293
315 315 315 314 314 315 315 314 313 312 311 309 305 302 301 300 300 301 300 300 300 299 299 297 296 294 291 290 291 291 290 290 290 290 290 289 289 289 289 290 290 292 292

GFSSE_850_thetae_033.txt.gz
Theta_e
340 332 329 325 325 326 327 329 331 331 331 328 324 318 315 314 313 311 310 310 309 308 308 308 308 307 307 307 308 310 313 317 319 322 325 327 324 325 328 327 332 331 327
339 333 331 329 329 329 330 331 331 330 327 321 315 314 313 311 310 308 307 307 307 307 307 307 308 308 308 308 308 308 309 315 320 323 331 331 329 325 328 327 327 327 327
340 335 332 331 332 331 332 332 330 326 318 314 314 312 309 308 307 307 307 307 308 308 308 309 310 311 312 312 312 310 309 311 319 326 328 333 330 326 327 327 326 323 324
340 335 333 333 333 332 332 331 326 317 314 314 312 309 308 307 307 308 308 309 311 312 312 312 312 311 311 311 312 312 311 313 319 328 329 329 330 325 324 323 323 322 324
338 338 334 333 333 332 332 328 319 315 314 313 309 309 308 308 308 310 313 313 312 312 312 310 309 309 309 309 309 311 313 322 324 326 328 328 328 324 320 322 323 325 324
339 339 334 334 332 332 330 321 316 315 313 311 309 309 309 309 313 313 311 311 311 310 309 309 310 310 310 311 310 309 310 317 319 322 325 328 327 321 320 319 320 322 322
339 337 334 333 332 331 324 318 315 314 313 309 310 309 311 315 313 311 310 310 310 310 310 311 311 312 312 313 313 313 313 315 316 315 318 321 313 316 318 319 321 320 318
337 336 334 333 331 327 319 316 315 313 311 311 310 314 315 314 312 311 310 310 310 311 311 311 312 312 313 313 313 313 314 316 319 318 316 317 309 309 312 314 316 318 317
336 335 334 332 328 321 317 316 313 313 311 312 316 317 314 313 312 311 311 311 311 311 312 312 312 312 313 313 313 314 316 316 318 319 318 318 312 311 309 310 312 313 314
334 335 334 330 329 321 318 315 313 312 314 317 318 316 314 314 314 313 313 312 312 313 313 313 313 312 313 315 314 315 316 317 317 317 318 317 310 311 311 311 310 310 310
336 333 333 331 331 330 319 313 313 317 318 320 319 318 322 326 325 325 314 312 313 313 314 314 313 312 314 316 315 314 315 316 315 315 316 315 309 308 310 311 311 311 311
335 332 332 331 330 327 323 314 319 321 324 328 327 325 328 327 327 324 313 313 314 314 315 315 313 314 316 316 315 314 314 314 314 313 313 312 310 307 307 309 310 311 311
334 330 331 330 328 324 323 325 326 328 328 328 329 328 326 327 328 327 323 321 321 318 320 317 317 316 316 315 314 314 313 313 313 313 312 311 309 308 305 305 306 308 310
330 329 328 327 325 325 324 325 327 329 329 329 328 325 327 325 328 325 322 321 320 319 317 317 317 316 315 314 313 313 313 312 312 311 311 310 309 307 306 304 303 303 303
328 325 325 324 324 326 327 328 329 329 327 327 326 324 326 325 324 324 322 320 318 318 318 317 316 314 314 314 313 313 312 312 311 311 310 309 308 307 305 304 303 303 302
325 325 324 325 326 328 329 329 327 328 328 328 324 326 323 320 319 323 321 319 318 317 317 315 313 313 314 313 312 312 310 309 309 308 308 308 308 307 306 304 302 302 303
326 326 326 327 329 330 329 327 324 319 319 318 319 321 322 321 320 320 318 318 317 315 313 313 313 312 312 311 309 308 307 304 306 304 306 307 307 306 305 304 302 301 300
328 328 328 328 330 329 326 320 319 319 319 321 321 322 322 321 321 319 318 317 314 312 312 312 311 309 308 307 306 306 303 303 304 303 303 305 305 305 303 303 302 300 298
330 330 329 329 328 325 325 320 320 320 318 322 321 321 321 319 318 316 315 314 312 312 311 309 308 307 306 305 303 303 302 302 303 302 303 305 304 303 303 302 301 300 300
329 331 331 329 323 322 323 323 322 319 320 321 320 319 318 317 316 313 313 312 311 310 309 308 307 305 303 302 302 302 302 302 302 303 305 305 303 302 302 301 300 300 299
331 331 331 330 326 325 324 324 321 323 321 318 317 317 315 313 312 312 312 311 309 308 307 306 304 302 302 301 301 301 301 301 301 303 302 303 301 301 300 299 299 298 298
331 330 329 329 326 326 326 324 322 320 318 317 316 314 313 312 312 311 310 309 308 307 305 303 303 302 301 300 300 300 300 299 301 301 300 300 299 299 298 297 297 297 297
330 330 329 329 327 327 325 322 320 320 318 316 314 313 312 311 310 309 308 307 305 304 302 303 303 301 300 300 299 299 299 299 298 298 298 298 297 296 296 295 295 294 295
330 329 330 329 327 324 321 320 319 318 317 317 316 314 312 310 309 308 306 305 304 303 303 303 302 301 300 299 298 298 298 298 297 296 296 296 295 295 294 294 294 293 293
329 328 328 326 323 321 320 319 319 318 317 316 314 313 311 310 308 306 305 305 304 303 303 302 302 301 299 299 298 297 296 296 295 295 295 294 294 293 293 292 292 292 292
326 327 326 321 320 319 318 318 318 317 315 313 311 309 306 305 304 305 304 304 303 302 302 302 301 299 299 298 298 296 295 295 294 294 294 293 293 292 292 292 291 291 291

GFSSE_850_thetae_036.txt.gz
Theta_e
339 328 325 329 336 337 330 328 330 331 330 328 322 316 313 312 310 309 308 307 307 307 307 307 308 308 308 308 308 308 312 317 320 326 330 329 327 326 327 327 330 327 326
337 329 325 327 332 328 329 330 331 331 327 318 314 313 310 310 308 307 307 307 307 308 308 309 310 311 312 311 310 309 312 319 326 329 331 331 327 326 326 327 327 326 325
333 329 326 326 327 329 331 331 330 327 317 314 313 310 309 307 307 307 307 308 309 310 312 311 311 311 311 312 312 311 312 325 329 328 330 331 326 325 324 324 324 322 322
332 330 328 328 330 331 332 331 326 317 314 313 310 308 307 307 307 308 310 312 312 312 310 309 309 309 309 309 311 318 323 324 326 329 330 329 327 322 320 321 322 323 323
335 332 331 331 332 332 331 327 318 314 313 311 308 308 307 308 309 312 312 311 311 309 309 310 310 311 311 311 310 318 318 317 322 328 327 324 321 316 319 320 320 321 323
337 333 332 332 332 332 329 320 315 314 312 309 308 308 309 311 313 311 311 310 309 310 311 311 312 313 313 313 314 314 315 316 315 322 322 320 309 315 317 318 320 319 318
338 334 333 332 331 330 324 316 315 313 311 308 309 309 312 313 311 310 310 310 310 311 311 312 312 313 313 313 313 314 316 319 319 318 318 316 312 310 310 313 316 318 317
337 333 333 332 331 326 319 316 314 313 309 310 310 313 313 311 310 310 310 310 310 311 312 312 313 313 313 313 314 315 316 317 319 319 319 318 316 310 311 310 311 312 313
334 331 332 331 329 322 317 315 314 312 310 310 314 314 313 312 311 311 311 311 311 311 312 313 312 312 314 315 315 315 316 315 317 316 317 318 315 309 309 311 311 311 310
327 328 332 330 325 319 316 314 313 310 311 316 315 313 313 313 313 312 312 311 312 313 313 313 313 312 316 316 315 315 315 315 314 315 314 314 313 311 308 308 311 312 312
328 330 331 327 321 317 314 313 312 313 317 318 315 325 327 326 326 325 312 312 313 313 314 314 314 315 316 316 315 315 315 315 314 313 313 313 312 311 308 307 307 309 311
330 325 328 331 327 318 313 313 317 319 320 322 319 328 327 327 327 323 319 314 315 316 318 317 317 317 317 316 315 315 315 314 313 313 313 312 311 310 309 307 306 305 306
330 331 332 331 327 324 317 321 326 327 328 328 328 327 327 321 326 326 323 323 321 320 320 318 317 317 316 315 314 314 313 312 312 312 311 311 311 310 309 307 305 305 304
331 331 330 328 324 324 325 326 327 329 328 325 320 322 320 326 327 323 323 322 320 319 319 318 318 317 315 314 314 313 312 312 311 310 311 310 309 308 308 307 305 303 303
330 329 323 320 325 322 326 328 329 327 324 323 324 321 326 325 326 323 322 320 320 318 318 318 317 314 314 314 313 312 311 310 307 307 308 308 307 307 307 306 305 304 302
327 326 318 314 323 327 328 327 327 325 325 326 325 326 324 322 321 322 321 320 319 318 318 316 314 313 313 312 310 309 308 307 305 304 305 304 306 307 307 306 304 303 302
325 325 324 325 328 329 326 327 325 322 319 318 318 319 322 324 322 320 320 319 318 319 316 314 313 312 310 309 308 305 305 304 302 303 304 302 305 306 306 304 303 303 302
326 326 327 329 330 329 327 325 319 319 318 318 319 321 321 322 321 321 320 319 318 315 313 312 310 309 308 306 304 302 302 303 301 303 303 302 305 305 305 303 303 301 301
328 328 328 330 329 327 325 324 320 319 318 318 319 320 321 321 320 319 318 317 314 312 312 310 309 307 305 302 300 301 302 301 302 302 302 303 305 304 303 303 302 301 300
330 329 329 330 327 326 324 321 320 321 321 319 321 321 319 318 317 316 314 313 312 311 310 309 307 305 302 302 301 301 300 301 301 301 302 305 305 303 301 300 300 299 298
331 331 329 330 327 324 323 324 323 321 321 322 319 318 316 314 313 313 313 312 311 309 308 306 304 304 303 301 300 299 300 300 300 300 301 301 301 300 300 299 297 297 296
331 332 330 329 328 324 326 325 324 322 320 318 317 314 314 313 313 312 311 310 309 308 306 303 303 303 302 301 300 300 299 299 299 299 299 298 297 297 296 296 296 295 295
332 332 329 329 328 325 327 324 322 319 319 318 316 313 313 312 312 311 310 308 307 305 304 303 303 302 302 301 300 299 299 299 298 297 297 297 296 296 295 294 294 294 293
332 331 329 329 326 326 325 322 320 320 318 317 316 314 314 313 312 310 308 307 305 305 304 303 303 302 302 301 300 299 298 297 297 296 295 295 295 295 294 293 293 292 292
330 329 329 325 326 326 323 320 320 320 318 317 316 315 313 312 309 307 306 306 305 305 304 303 302 302 302 301 300 299 297 297 296 295 295 294 294 293 293 293 292 292 292
328 327 328 328 326 323 320 320 320 319 317 316 313 312 309 307 306 305 305 304 304 303 302 302 301 301 301 300 298 299 298 297 296 295 294 294 294 293 293 292 291 291 291

GFSSE_850_thetae_039.txt.gz
Theta_e
326 328 336 339 339 337 330 328 330 329 327 321 315 312 309 309 307 307 307 308 308 308 309 310 311 311 311 310 309 318 321 327 329 330 330 327 326 326 326 327 326 326 325
330 327 332 336 336 331 328 330 330 328 322 314 312 309 308 307 307 307 308 308 310 311 311 311 311 311 311 311 310 324 328 328 328 329 329 326 324 323 324 324 323 322 322
332 327 329 333 331 328 330 331 329 322 314 313 309 308 307 307 308 308 310 311 311 310 309 309 309 309 311 316 318 321 325 324 328 329 328 324 322 320 318 320 321 322 322
327 327 329 330 328 331 331 330 323 314 313 310 308 307 307 308 309 312 311 311 309 309 309 310 310 310 310 320 319 317 319 326 327 328 326 323 313 314 316 317 319 321 322
326 328 328 328 331 332 330 324 315 313 311 308 308 307 308 310 312 311 310 309 310 310 311 312 313 313 313 314 317 316 318 323 325 326 321 317 310 309 314 318 319 318 317
327 327 328 331 332 331 326 316 314 313 309 308 308 309 311 312 310 310 309 310 311 311 312 313 313 313 313 314 314 315 317 318 320 319 317 316 316 310 310 310 314 316 316
329 329 331 332 331 327 318 315 314 311 308 308 309 311 312 310 310 309 310 310 311 312 312 313 313 313 313 314 315 314 318 318 318 319 319 318 314 310 309 310 310 310 312
331 332 332 331 328 324 316 315 312 310 308 309 311 312 310 310 310 310 310 310 311 312 313 313 313 313 315 315 315 315 314 315 316 315 316 315 314 313 309 308 311 311 310
333 332 330 324 327 319 316 313 311 309 310 311 313 312 311 310 310 310 310 311 312 312 312 313 312 314 316 316 316 316 315 314 314 313 314 313 312 312 311 307 308 310 312
328 328 323 326 323 317 315 311 311 309 311 314 312 313 313 312 311 312 311 311 312 313 313 313 313 314 316 316 316 316 316 315 314 313 313 313 313 312 311 309 306 307 308
329 325 328 328 320 316 313 312 310 312 316 313 317 323 318 320 323 315 312 312 313 313 316 317 316 316 316 316 315 315 314 313 312 313 312 312 312 311 310 309 307 306 305
326 325 329 323 318 315 312 311 313 317 315 318 325 325 323 324 322 321 320 319 319 319 319 317 317 317 317 315 314 314 313 312 311 310 308 311 311 310 308 308 307 306 304
323 324 325 327 320 313 311 316 318 319 320 320 322 327 325 322 323 325 322 322 320 320 318 317 318 317 317 314 314 313 312 312 310 309 309 310 309 308 307 307 307 305 304
326 329 328 326 321 313 314 321 324 326 324 327 325 328 326 324 325 325 323 322 320 319 319 318 318 318 316 315 314 313 311 309 308 306 305 306 307 306 307 307 306 305 304
331 330 328 327 324 321 325 328 326 328 326 324 322 323 325 327 327 324 322 321 320 319 318 318 318 317 315 313 311 309 306 305 306 303 304 304 304 303 307 306 305 304 303
331 331 329 323 324 325 327 327 330 328 325 321 322 324 328 327 326 323 319 320 319 319 318 318 316 314 312 310 307 303 303 304 303 301 302 303 303 303 306 306 304 303 304
329 324 322 321 323 326 329 328 328 325 322 323 322 320 322 324 322 322 321 321 319 318 318 316 313 311 310 308 303 301 302 302 301 300 302 302 302 305 306 305 303 303 303
324 316 313 322 326 329 328 326 325 321 320 319 318 319 321 320 321 321 321 319 318 317 315 311 311 310 308 304 300 299 299 300 299 300 301 302 303 305 304 303 303 302 301
326 320 321 327 327 327 325 323 323 320 319 318 320 319 321 322 321 320 318 316 315 313 312 311 310 308 305 302 300 299 299 298 300 301 301 301 304 302 301 300 300 300 299
326 323 325 327 325 325 324 323 320 319 319 321 320 320 321 320 318 313 312 312 312 311 311 309 308 306 303 301 301 300 299 298 300 300 301 301 301 300 300 299 299 298 297
327 326 325 324 325 325 323 323 320 320 322 321 321 319 318 313 312 312 312 312 311 310 309 308 305 303 301 301 301 301 299 299 297 299 299 299 298 297 297 296 296 295 295
328 328 328 328 327 327 323 323 322 323 321 320 319 316 312 312 312 312 313 312 311 310 309 306 303 302 301 302 302 301 299 298 298 297 297 297 296 296 295 295 294 293 293
329 329 330 329 327 326 324 325 324 321 318 317 314 313 313 313 312 312 312 311 309 306 304 304 302 302 302 302 302 301 299 298 298 297 297 296 296 295 295 294 293 293 292
331 331 331 329 329 327 327 326 322 319 316 314 315 315 313 313 313 311 308 306 305 305 305 304 303 303 302 302 302 301 300 299 298 297 296 295 295 294 293 294 293 293 292
332 332 330 329 327 326 327 324 321 318 318 317 316 315 314 313 309 307 306 306 306 305 305 304 303 301 302 301 301 301 299 298 298 297 297 295 295 293 293 293 292 292 291
331 330 330 329 326 326 326 323 320 320 319 317 316 314 313 310 310 307 306 305 305 304 303 301 297 299 299 299 299 299 298 298 298 297 297 295 294 294 293 292 291 290 290

GFSSE_850_thetae_042.txt.gz
Theta_e
334 336 339 339 339 337 329 328 329 327 321 313 311 308 308 307 307 308 308 309 311 311 311 311 311 310 315 323 326 326 327 328 329 327 325 323 323 323 324 324 323 323 323
331 337 339 339 338 334 327 329 328 324 314 312 308 308 307 307 308 309 311 311 310 309 310 310 312 314 319 318 323 326 326 328 328 326 321 313 317 318 320 321 322 322 322
335 339 339 338 336 328 330 330 327 315 312 309 308 307 308 309 310 311 310 309 309 309 309 309 314 321 318 316 319 325 327 326 326 322 319 311 311 313 314 315 317 319 321
333 339 339 337 330 329 330 329 319 313 310 308 307 308 309 311 311 310 309 309 310 311 312 312 313 320 316 318 317 321 324 323 323 317 316 315 313 310 312 316 317 317 316
332 338 337 333 328 330 330 322 314 312 308 307 307 309 311 311 310 309 310 311 312 313 313 313 313 314 315 317 318 318 321 321 318 317 316 317 316 309 309 309 313 316 316
335 337 335 328 331 331 325 314 313 309 307 308 309 311 311 310 309 310 310 311 312 313 313 313 313 313 313 315 317 318 318 319 318 318 318 316 316 313 309 309 310 310 311
335 334 329 331 331 327 316 314 311 308 308 309 311 311 310 310 310 310 311 312 312 313 313 313 314 315 315 315 314 315 316 317 315 314 314 313 313 312 311 307 308 310 310
333 330 331 331 325 317 314 312 309 308 309 311 312 311 310 310 310 311 311 312 313 313 313 313 314 315 316 315 315 315 314 314 314 313 313 312 312 312 311 310 306 308 310
330 332 330 326 321 318 315 311 308 308 310 312 311 310 311 311 311 311 312 312 312 313 313 313 313 315 316 316 316 315 315 314 314 313 313 312 312 311 311 310 308 306 308
329 325 322 320 319 316 314 311 308 309 313 312 311 311 311 311 311 311 312 312 313 313 313 313 314 316 316 316 316 314 313 311 311 310 311 310 310 310 309 308 307 306 305
326 324 322 322 317 317 313 310 309 313 313 312 311 312 313 312 313 311 312 312 313 315 316 316 317 317 317 317 316 313 312 310 310 308 306 309 310 310 308 307 306 305 305
324 322 322 326 319 315 312 310 312 314 312 313 317 317 319 321 319 318 317 318 318 318 318 318 317 317 317 317 315 313 311 311 310 308 307 310 309 308 307 305 306 306 304
320 326 328 322 318 314 312 311 315 314 321 322 323 324 322 322 323 322 322 320 319 319 319 318 317 317 317 315 314 312 311 309 306 305 305 305 305 305 307 305 306 306 305
323 328 325 321 317 313 311 315 316 316 320 325 327 326 324 325 326 324 322 320 320 319 318 318 317 318 317 314 312 310 307 303 303 304 302 303 303 303 304 306 306 305 305
324 327 326 322 315 312 317 319 320 323 324 324 326 327 326 324 326 324 322 321 320 319 318 318 318 317 316 312 310 306 301 300 302 301 301 302 302 303 305 306 305 305 305
326 326 327 321 314 315 322 324 325 325 325 324 324 326 323 325 325 325 323 321 319 318 318 318 318 314 311 310 308 302 299 299 300 299 301 302 302 303 306 305 304 304 304
327 329 327 324 323 325 327 326 326 327 327 326 323 322 323 326 325 325 321 321 320 319 318 318 314 311 310 309 304 299 299 299 299 298 300 302 302 305 304 304 303 303 302
329 329 327 324 323 325 326 327 329 328 326 324 322 319 319 321 323 322 321 321 320 319 317 313 311 310 309 305 301 299 299 298 300 299 301 301 302 304 303 303 300 299 299
330 329 326 323 324 325 328 328 328 326 324 321 318 319 319 320 321 321 320 319 317 314 312 311 310 309 306 302 300 300 300 298 299 300 300 301 300 300 300 298 297 297 297
326 317 322 322 324 328 329 328 326 324 320 318 319 319 319 321 321 320 318 313 312 312 311 310 309 308 303 301 300 300 300 299 297 297 298 299 299 298 297 296 296 295 294
324 314 315 321 325 325 327 326 324 324 321 319 321 320 320 320 319 313 312 312 312 311 310 309 308 303 301 300 300 301 300 299 297 298 297 297 297 297 296 296 295 295 294
326 323 317 318 320 325 325 324 322 321 319 321 321 320 319 316 312 312 312 312 312 311 310 307 303 303 301 301 301 301 300 299 298 299 297 297 296 296 295 294 294 294 293
326 326 325 324 323 325 325 324 323 322 322 322 320 318 316 313 312 312 312 312 310 307 306 304 304 303 303 302 301 301 300 299 300 299 297 296 295 296 296 295 293 293 293
326 327 327 327 326 326 326 323 323 323 324 322 319 315 313 313 312 313 312 309 307 307 306 305 304 304 303 301 301 301 300 300 299 298 297 297 296 295 296 295 293 292 292
327 328 328 329 329 328 327 324 325 324 321 318 315 315 314 313 313 313 310 307 306 306 305 305 304 302 299 298 299 299 298 298 298 298 297 297 296 296 295 294 292 292 292
328 329 330 330 329 328 326 325 326 324 319 317 316 316 315 314 311 310 309 307 306 306 304 302 300 296 294 295 296 297 298 298 298 297 296 296 295 295 294 294 293 292 291

GFSSE_850_thetae_045.txt.gz
Theta_e
336 340 339 337 338 336 332 326 327 325 317 312 309 308 308 308 308 309 310 311 311 311 311 313 319 321 322 325 325 327 327 325 321 313 311 318 320 322 322 323 322 323 324
335 340 338 337 337 335 327 328 326 320 312 309 308 307 308 309 310 311 310 310 310 312 317 318 317 319 323 324 325 326 326 323 315 313 312 310 313 314 316 318 319 321 323
338 340 338 338 337 332 327 328 324 313 310 307 307 308 309 311 311 309 309 309 310 315 320 317 316 316 321 324 325 323 321 318 316 316 316 314 309 310 313 315 316 315 317
339 340 338 337 336 327 329 327 317 312 308 307 308 309 311 310 309 309 310 311 311 314 319 316 316 316 316 317 318 319 318 317 317 317 317 316 313 308 309 309 313 316 315
339 340 338 336 331 328 329 321 313 309 307 307 309 311 311 309 309 311 311 313 313 313 313 314 315 316 317 318 318 318 318 318 317 317 315 314 314 312 308 308 309 309 312
339 339 338 334 328 330 327 314 311 307 307 309 311 311 310 309 310 311 312 313 313 313 313 313 314 314 314 315 317 318 317 315 314 314 313 312 311 311 311 307 308 310 309
338 338 336 330 330 328 318 312 308 307 308 310 311 311 310 310 311 312 313 313 313 313 314 315 315 315 315 315 315 315 315 314 314 313 313 312 311 310 310 310 307 308 309
337 336 331 330 329 318 313 310 307 308 309 312 311 310 309 310 311 312 313 313 313 314 314 315 316 316 316 316 315 315 314 314 313 312 312 310 308 307 308 308 308 306 307
335 332 331 330 320 314 310 308 307 308 311 311 310 310 310 310 311 312 312 313 313 313 314 314 316 316 317 317 315 313 312 310 310 308 308 306 308 308 307 304 305 305 305
331 330 325 319 315 312 309 308 308 309 312 310 310 310 310 311 311 312 312 313 313 313 313 315 316 317 317 317 315 312 310 309 308 307 305 308 310 310 306 304 303 303 304
329 325 322 320 319 314 312 309 309 313 311 310 310 310 310 311 311 312 312 313 313 313 315 317 317 318 318 317 315 312 310 309 308 306 305 308 308 310 307 305 303 304 304
322 321 320 319 318 315 312 309 312 313 311 311 311 312 316 313 312 312 313 313 314 316 317 318 318 318 317 317 315 311 310 308 305 303 303 304 305 310 310 304 304 305 305
322 322 320 321 316 316 312 310 315 313 317 316 320 323 322 320 320 318 319 318 318 318 318 318 318 317 317 316 313 310 308 304 301 302 301 302 303 309 306 305 305 305 304
322 320 321 316 315 315 312 313 314 314 321 324 324 324 323 321 322 322 321 320 319 318 318 318 318 317 317 314 311 309 305 300 300 301 300 300 301 305 307 307 306 306 305
321 326 325 319 318 315 311 316 317 325 325 326 326 325 320 324 324 323 322 320 320 319 318 318 317 317 316 311 310 307 301 299 299 298 298 299 301 303 308 308 307 307 305
322 325 323 320 317 314 312 317 317 324 324 324 326 325 324 322 324 324 323 321 320 319 318 318 317 316 311 310 309 303 299 298 298 298 298 299 302 303 307 306 305 306 305
323 325 324 321 317 313 316 318 318 323 325 325 322 323 322 322 324 325 324 321 320 319 318 317 317 312 310 309 304 299 299 298 298 298 299 300 301 303 305 304 303 303 301
324 325 325 318 314 314 322 325 326 326 325 324 324 323 323 324 326 325 322 320 320 319 318 317 312 310 309 306 300 299 299 299 298 299 300 301 302 305 304 303 301 299 298
324 325 326 322 319 319 325 326 327 327 327 327 325 321 319 321 325 322 321 321 320 318 316 312 310 310 308 301 300 299 299 298 299 297 298 299 300 300 302 300 298 297 296
325 325 327 324 323 324 326 326 326 328 328 326 322 318 319 320 321 321 321 320 318 313 311 310 310 308 302 300 299 299 298 298 298 297 297 297 298 297 297 296 296 295 295
329 328 329 326 323 324 325 327 327 328 327 324 318 319 320 320 321 321 319 315 311 311 311 310 308 303 302 300 299 299 298 298 299 298 298 297 297 295 296 296 295 294 293
329 329 328 326 324 323 323 326 328 327 325 320 319 320 320 320 320 318 313 311 311 311 310 307 305 303 302 302 301 300 299 298 298 297 299 298 296 296 295 296 295 294 293
329 326 322 321 320 321 324 327 327 325 324 320 320 320 320 318 316 313 312 311 312 311 307 306 305 304 303 303 302 300 300 299 299 299 299 297 296 296 296 296 295 294 293
328 325 322 316 316 320 324 328 327 326 322 321 322 321 319 317 313 312 312 312 311 307 306 306 305 304 303 301 299 297 299 299 299 299 297 297 297 296 295 295 295 294 293
328 325 324 319 317 320 324 328 327 325 323 322 323 320 318 315 313 312 312 311 307 306 306 305 305 303 299 296 295 295 296 297 298 298 297 296 296 296 295 294 294 294 293
327 325 325 324 325 324 326 327 326 323 322 323 320 319 315 314 313 312 311 308 307 306 304 304 301 298 295 293 293 293 295 295 296 298 297 296 294 294 294 294 294 293 293

GFSSE_850_thetae_048.txt.gz
Theta_e
337 340 336 334 333 331 329 326 325 323 318 313 310 309 307 308 308 309 310 311 311 311 312 315 318 323 323 325 325 323 316 314 314 312 310 312 314 316 318 319 320 321 322
337 340 336 334 333 330 326 326 325 320 313 310 308 307 308 309 310 311 311 311 311 313 315 319 324 323 325 323 323 318 315 315 316 316 313 309 310 313 314 314 315 317 320
338 339 335 335 332 329 326 327 322 313 309 308 307 308 309 311 310 310 311 312 314 315 316 318 323 325 325 320 318 316 316 317 317 316 315 310 308 309 310 313 315 315 314
339 339 336 335 331 327 327 326 315 310 307 307 308 310 311 309 309 310 313 317 318 317 316 316 316 318 318 318 318 317 317 317 316 315 314 313 312 308 308 309 309 312 314
340 339 336 335 330 327 328 322 312 308 307 308 310 310 309 309 310 311 314 317 317 316 316 316 316 316 317 318 318 317 316 315 314 314 312 311 310 310 309 307 309 309 309
339 338 337 334 328 329 327 314 309 307 308 310 311 309 309 311 312 313 313 313 313 313 313 313 314 314 316 316 317 316 315 314 313 313 312 310 309 308 309 309 307 308 309
337 337 337 331 329 328 318 311 307 307 309 311 310 309 311 312 313 313 313 313 313 314 314 314 315 315 315 315 314 314 314 314 313 311 309 308 307 309 307 306 307 307 306
338 337 335 329 329 319 313 308 307 308 311 311 309 310 311 312 313 313 313 313 314 315 315 315 316 316 316 314 313 313 312 310 308 307 306 306 307 309 306 304 304 304 305
335 335 333 330 324 314 310 308 307 309 312 310 309 310 311 312 313 313 313 314 314 314 315 316 316 317 317 315 312 310 309 309 308 306 304 304 307 309 304 303 302 303 303
333 334 331 323 315 310 308 307 309 312 311 310 309 311 311 312 312 312 313 313 313 313 314 316 317 317 317 316 312 310 309 307 306 304 303 306 309 313 308 303 302 303 303
329 326 324 319 312 309 308 309 311 312 311 310 310 311 311 312 312 312 313 313 313 314 316 317 318 318 317 316 314 310 309 306 303 301 302 303 311 312 310 303 302 303 303
326 321 319 313 313 315 313 309 311 312 310 310 310 311 311 312 312 312 313 313 313 315 317 318 318 318 317 316 314 310 308 303 300 301 300 301 304 312 310 308 304 304 304
324 322 318 318 317 317 310 310 309 312 310 310 311 312 311 312 312 312 313 315 316 317 318 318 318 317 318 317 312 309 306 301 300 300 299 300 300 310 310 308 306 306 305
320 320 319 319 317 314 312 309 309 311 311 312 316 320 317 317 317 318 319 318 318 318 318 318 318 317 317 316 310 309 305 300 299 299 298 298 300 303 308 309 308 307 306
322 321 319 320 315 313 310 309 314 313 316 321 324 324 322 321 321 321 321 320 319 319 318 318 318 317 317 311 310 308 302 299 299 299 298 298 301 302 307 308 307 307 306
319 320 319 316 315 313 311 311 314 315 323 324 324 325 322 323 324 323 322 321 320 319 318 317 317 317 313 310 309 305 300 299 299 298 298 299 300 302 306 306 305 306 305
320 322 317 316 316 315 312 313 315 319 325 326 326 325 325 322 322 323 323 322 321 319 318 317 317 315 311 309 307 300 299 298 298 298 297 299 300 303 305 305 304 304 302
322 326 322 319 318 315 312 314 316 324 324 324 325 323 323 322 322 324 324 322 320 319 318 317 317 311 310 309 302 299 298 297 298 297 297 299 301 303 304 304 303 301 299
322 324 323 322 320 314 313 316 317 318 323 325 324 322 323 320 321 325 323 321 320 319 319 317 312 310 309 303 300 298 298 298 298 297 297 297 297 298 298 298 297 297 296
322 324 325 322 316 313 315 318 321 325 326 325 325 324 321 319 322 324 322 321 320 319 316 312 310 309 304 301 300 300 298 298 298 298 297 297 297 297 295 295 295 295 295
323 324 325 325 321 317 316 324 326 327 327 326 326 325 318 319 319 321 321 320 319 315 311 311 309 305 303 302 302 302 299 297 298 298 297 297 298 296 295 295 295 295 294
324 323 323 325 324 322 323 325 326 326 326 326 326 322 318 320 320 320 320 318 315 311 311 309 306 305 304 303 303 301 299 297 298 298 298 298 298 296 296 296 296 295 295
326 326 325 324 326 325 322 323 324 326 326 325 324 320 319 320 320 320 318 314 312 311 309 306 306 305 304 303 302 300 298 297 297 298 297 297 297 296 296 295 295 295 295
327 327 327 327 325 324 323 322 323 323 326 324 324 321 319 320 319 317 314 312 311 310 307 306 306 305 302 300 298 296 295 297 298 298 297 297 297 296 295 294 295 295 294
328 328 327 327 327 325 324 323 323 325 327 325 322 320 321 318 316 314 312 311 310 309 307 306 305 303 305 299 295 293 293 294 296 297 297 297 297 296 295 293 294 294 294
329 328 328 327 326 325 324 323 322 323 324 324 321 322 321 317 315 313 312 312 311 309 307 307 305 308 299 296 294 293 294 294 294 295 296 297 296 295 294 292 293 293 293

GFSSE_850_thetae_051.txt.gz
Theta_e
338 340 334 330 328 327 327 326 326 325 323 319 315 311 309 308 307 308 309 309 310 311 316 319 321 323 324 320 315 314 314 314 313 310 310 311 312 313 315 317 318 321 324
339 340 335 330 328 326 326 326 324 320 315 311 309 308 308 308 309 310 311 311 312 315 320 322 323 323 322 317 316 315 315 316 316 313 309 309 309 312 313 313 313 315 318
338 339 336 331 328 327 326 324 319 313 310 308 308 308 309 310 311 311 311 312 315 320 323 323 323 320 316 315 316 316 316 316 315 315 314 315 309 309 309 311 314 314 313
338 339 335 330 328 327 326 322 315 310 308 307 308 309 311 310 311 311 313 315 316 318 319 320 318 316 316 317 317 316 315 314 314 312 311 317 316 308 308 309 309 310 313
338 338 336 330 328 327 325 318 311 308 307 308 310 310 310 310 312 315 316 316 315 315 315 315 315 317 317 317 316 315 314 313 313 312 313 314 321 316 309 307 310 309 309
338 337 335 330 328 326 319 314 309 307 308 310 310 309 309 312 316 317 317 315 314 313 314 314 316 316 316 316 315 314 314 314 312 310 311 308 318 313 307 307 307 309 310
338 337 335 329 328 326 314 311 307 307 309 310 309 310 311 312 314 314 313 313 313 314 314 314 314 315 314 314 314 314 313 309 308 307 307 312 311 305 304 303 304 305 306
337 337 334 329 328 318 310 307 307 309 311 309 310 312 313 313 313 313 313 314 314 315 316 316 316 316 313 312 310 309 309 308 307 306 308 314 305 305 303 302 302 303 303
335 335 334 329 319 314 309 308 309 311 310 309 311 312 313 313 313 314 314 315 315 315 316 316 317 316 315 312 310 309 308 306 304 303 304 315 305 306 302 301 302 303 303
334 335 331 326 320 315 310 310 315 311 310 309 311 312 313 313 313 313 313 313 314 314 316 317 317 317 316 314 310 309 307 304 302 302 305 311 308 312 304 302 302 302 303
331 331 328 321 319 312 311 311 313 311 309 310 311 312 312 312 313 312 313 313 313 315 317 317 317 318 317 315 311 309 307 303 301 301 303 301 309 313 312 302 302 303 303
325 320 317 316 315 312 311 314 312 311 309 310 311 312 312 312 312 313 313 313 314 316 317 317 317 317 318 316 311 309 307 302 300 300 300 300 306 311 311 309 305 304 304
325 322 320 315 314 312 311 315 315 311 310 310 311 311 312 312 312 313 313 313 315 317 318 318 318 317 317 317 311 309 306 302 300 300 299 299 300 309 310 309 308 306 304
321 319 316 313 313 315 316 315 312 311 310 310 310 311 311 312 313 312 313 316 317 318 318 318 318 317 317 316 311 309 307 301 300 299 298 298 299 307 309 309 308 307 306
317 314 315 315 316 317 315 312 311 311 310 310 311 312 311 312 313 317 318 318 318 318 318 318 318 317 317 316 310 308 304 300 300 299 298 298 299 302 307 308 308 307 306
318 318 318 318 317 314 313 310 312 311 311 312 316 320 319 320 320 320 320 320 320 319 319 318 318 317 317 313 309 307 301 300 299 298 298 298 299 302 307 305 306 306 306
320 319 318 313 312 311 312 310 312 312 313 319 323 324 323 322 323 322 322 322 320 320 319 318 318 317 314 310 308 303 300 299 298 298 297 298 300 302 303 304 304 304 303
319 319 320 317 315 312 310 310 314 314 320 323 324 324 323 322 321 322 323 323 322 321 319 318 317 315 310 309 304 300 299 298 298 298 297 298 300 302 304 304 303 302 300
319 318 316 316 317 316 315 313 313 314 318 324 324 321 322 322 321 321 321 323 321 319 318 317 316 311 310 306 302 300 300 298 298 298 297 297 297 296 296 296 297 296 296
321 323 321 319 319 319 317 313 313 316 322 324 323 323 322 323 320 319 322 322 320 320 319 317 313 310 308 305 302 302 300 298 298 298 298 297 297 297 295 295 295 295 295
320 324 324 324 323 321 316 313 313 317 316 318 324 323 323 322 318 319 321 322 321 319 318 314 310 310 306 306 304 302 301 299 298 298 298 297 297 297 295 295 296 295 295
321 321 322 325 324 320 315 313 316 318 320 323 324 325 324 321 318 319 320 321 319 318 315 311 310 307 306 305 303 301 302 300 298 297 297 297 297 297 296 296 294 294 295
322 322 322 324 324 324 319 316 316 322 324 325 325 324 324 320 318 320 320 319 318 315 311 311 309 306 305 304 302 303 302 301 298 298 296 296 297 296 296 296 295 294 295
327 325 323 323 323 325 325 322 321 322 324 323 323 324 323 319 319 320 320 317 314 312 311 311 307 306 305 305 304 300 296 294 298 298 298 296 296 297 297 296 295 294 295
327 326 326 325 325 325 327 327 324 323 323 324 324 324 321 319 319 320 319 315 313 312 311 308 306 306 309 305 302 298 297 294 293 296 296 297 297 296 297 296 295 294 293
328 328 327 327 327 327 327 326 325 324 323 323 323 325 323 320 319 319 316 314 312 312 310 307 307 307 306 308 305 301 296 295 296 296 296 296 296 295 295 293 291 292 293

GFSSE_850_thetae_054.txt.gz
Theta_e
342 338 332 331 336 336 336 336 336 335 336 333 327 320 313 309 308 308 308 309 312 325 325 325 325 322 319 317 314 314 313 312 310 310 310 311 312 313 315 318 326 327 326
341 337 331 330 335 336 336 336 336 335 328 324 317 311 308 308 308 309 310 313 317 319 322 324 323 321 316 315 315 316 316 315 313 313 319 313 310 312 313 313 313 315 320
341 338 330 329 329 334 336 334 329 325 320 314 309 308 308 309 310 311 312 317 321 322 321 320 318 315 315 316 316 315 314 314 312 315 321 322 318 309 309 311 313 314 313
340 338 334 328 327 327 327 325 323 317 312 309 307 308 310 311 311 312 316 321 322 322 321 318 315 316 316 315 315 313 313 312 312 321 321 322 322 308 308 309 309 310 317
339 338 336 327 327 327 325 322 315 310 308 307 308 310 311 311 311 314 317 319 320 322 317 316 316 316 315 315 314 314 314 313 317 320 321 322 321 312 308 309 310 309 310
339 339 336 328 327 326 322 315 310 308 307 308 310 311 311 312 315 316 315 316 317 315 316 316 315 315 314 314 314 314 313 310 318 319 321 320 319 305 305 306 307 307 307
339 338 335 328 327 320 313 310 308 307 308 310 310 311 313 315 316 315 315 314 314 315 315 314 315 314 313 313 311 309 309 309 317 318 319 319 315 305 303 302 303 304 305
338 337 335 329 326 319 317 309 308 309 310 310 310 311 316 316 315 314 313 314 314 315 315 316 315 313 311 310 309 308 307 310 315 316 318 318 310 304 302 302 302 303 303
336 336 334 328 327 316 318 309 311 314 310 309 310 312 314 313 313 314 314 315 316 316 317 317 316 315 312 310 309 307 305 304 313 315 317 317 309 306 302 302 302 303 302
335 332 329 327 325 314 312 311 310 314 310 310 312 313 313 313 314 315 315 315 316 316 317 317 317 316 314 310 309 307 305 308 312 313 315 315 314 311 303 302 302 302 303
334 331 329 327 316 312 315 312 312 309 312 313 313 313 313 314 315 316 315 314 315 317 317 317 318 318 316 312 309 308 306 308 310 311 312 305 312 313 311 302 303 304 304
332 330 329 320 318 317 314 313 312 312 313 313 313 313 316 317 319 315 313 314 315 317 317 317 317 317 316 313 310 308 306 304 306 306 307 300 312 312 311 310 304 304 303
329 328 321 317 313 313 315 314 315 316 313 312 312 313 313 313 313 313 314 315 316 317 317 317 317 317 317 316 311 308 306 304 304 304 302 299 300 311 311 310 309 305 303
321 319 316 316 316 318 314 312 312 311 313 311 312 312 312 312 313 316 318 319 316 317 317 317 318 317 317 317 311 309 308 303 302 303 302 299 300 310 308 309 307 307 305
318 317 317 316 314 314 314 315 314 313 311 313 312 312 312 314 313 315 317 317 317 317 317 318 318 318 316 317 310 309 305 302 301 304 307 299 300 306 309 308 305 305 305
319 318 317 315 315 316 315 316 314 312 312 312 311 312 312 312 312 314 316 318 318 318 318 318 318 317 316 314 310 308 302 300 300 302 307 304 300 303 307 306 308 308 307
318 317 314 315 316 316 316 315 319 318 318 314 315 311 312 314 315 318 320 320 320 319 319 319 318 317 316 312 310 306 302 301 300 300 304 306 306 301 301 303 303 304 304
321 319 318 318 318 319 320 316 320 319 313 318 313 319 321 320 320 320 321 321 321 321 321 319 317 315 314 309 307 304 303 302 300 299 304 305 306 305 304 304 304 303 303
322 321 320 320 318 319 321 314 311 315 314 315 321 323 323 323 322 322 322 322 322 322 320 318 317 314 311 308 306 305 305 303 302 300 300 302 301 300 300 300 297 296 296
323 321 320 321 320 317 320 313 313 315 317 318 322 323 323 323 323 322 321 321 322 321 319 317 316 316 310 307 305 306 306 304 302 302 301 300 300 300 299 298 299 299 297
323 323 323 323 322 324 323 322 319 316 319 317 321 324 322 322 322 322 321 321 322 320 318 317 316 312 309 307 308 309 308 305 303 302 301 300 300 300 299 298 298 298 297
323 324 324 324 325 326 325 324 321 320 321 319 321 321 322 323 322 322 320 321 322 321 319 316 314 310 309 307 309 308 310 308 304 303 302 301 300 300 299 298 298 297 297
324 325 326 327 328 328 326 325 322 321 321 318 316 317 322 323 323 320 319 320 321 320 318 316 313 310 310 308 308 308 309 309 305 304 303 302 301 300 299 298 298 298 297
325 324 324 325 326 328 328 325 323 321 321 321 319 322 323 323 323 319 319 320 320 319 317 315 311 310 309 307 307 307 307 303 304 305 303 301 301 300 299 299 299 298 297
328 326 326 326 326 327 328 327 326 323 322 324 324 324 323 324 322 319 319 320 319 319 316 312 311 310 308 308 308 306 303 303 303 302 301 300 299 299 299 299 298 297 296
332 331 330 328 327 327 327 325 326 327 325 326 322 322 323 324 323 320 319 319 318 317 315 312 311 311 308 309 307 307 303 302 301 299 299 299 299 298 298 297 296 295 295

GFSSE_850_thetae_057.txt.gz
Theta_e
345 340 334 337 340 340 338 337 335 335 335 335 332 325 316 309 309 309 309 319 327 326 326 324 321 318 314 313 313 313 311 310 312 314 311 312 313 315 318 321 324 325 327
344 341 333 340 342 341 339 338 336 335 335 334 326 317 309 308 308 308 313 325 326 324 324 320 318 315 314 315 315 315 314 314 318 322 322 315 310 312 313 314 314 318 323
343 340 332 338 340 340 338 337 336 335 335 326 317 309 308 308 309 311 315 324 324 322 322 319 315 315 315 314 313 313 312 316 321 323 323 323 320 313 310 313 317 315 313
343 339 336 333 339 337 337 336 335 335 326 317 310 307 308 310 311 313 317 323 326 321 318 315 315 315 314 314 313 313 313 319 322 323 323 323 322 313 321 311 314 321 321
343 339 337 331 336 336 336 336 334 326 317 310 307 308 310 311 313 317 321 324 327 318 316 315 315 315 314 314 314 313 316 319 321 322 323 322 320 308 310 311 309 309 310
343 337 335 330 333 336 336 331 325 318 310 307 309 311 311 313 317 321 322 323 324 316 316 315 315 314 314 313 310 309 316 319 320 322 321 317 310 304 304 304 304 306 307
341 339 335 328 330 330 327 324 317 311 308 309 311 311 312 315 318 318 320 322 316 315 315 315 314 313 311 309 309 308 313 317 319 320 320 317 305 303 303 302 302 303 304
339 339 334 328 328 326 321 315 311 308 308 311 311 312 315 316 316 316 315 315 315 315 316 315 313 311 310 309 307 306 311 316 317 320 319 316 305 305 303 302 302 302 303
335 330 332 329 327 321 322 319 313 314 313 313 312 314 316 315 315 314 314 315 315 316 316 315 314 311 310 308 307 306 309 315 317 318 319 317 305 308 305 302 302 302 303
334 333 331 328 325 320 317 318 314 319 318 314 314 316 316 314 314 314 315 316 316 317 317 317 317 314 310 309 308 307 311 312 314 316 318 311 312 308 302 301 302 302 303
335 333 330 328 328 325 315 312 314 317 317 316 317 315 314 314 314 316 316 316 317 317 317 318 318 317 312 310 308 308 309 311 311 313 315 307 312 313 306 302 302 303 302
331 329 329 328 326 320 318 316 317 317 316 316 315 314 314 315 320 316 315 316 317 317 317 317 318 316 314 312 310 310 309 308 308 309 309 301 314 313 311 308 303 303 303
330 329 328 325 321 322 317 314 314 315 318 315 316 319 316 317 322 316 315 315 316 317 317 317 317 316 317 313 310 309 308 307 307 307 305 299 309 313 309 309 308 305 304
327 327 324 320 316 315 316 320 320 319 315 313 313 314 316 319 319 314 314 316 316 317 317 317 317 318 317 316 310 310 307 307 306 307 307 299 300 307 308 308 307 306 306
322 320 319 315 317 319 319 314 312 312 313 312 313 318 313 318 319 318 320 320 319 319 318 317 318 318 316 315 310 310 306 305 306 308 310 301 299 304 309 311 308 307 306
318 317 316 316 317 316 312 313 313 314 313 318 320 315 314 321 320 321 321 321 320 319 318 318 317 316 314 313 310 308 306 306 305 306 309 309 299 305 307 307 308 308 307
317 317 315 315 317 316 314 312 313 316 320 320 317 314 318 322 321 321 320 321 320 319 318 317 318 316 314 312 310 309 307 306 305 306 307 309 309 302 300 300 302 303 304
319 318 317 317 316 315 314 315 318 320 318 316 319 322 321 320 316 317 322 320 319 319 319 318 318 316 315 313 310 308 307 306 306 305 308 308 308 309 307 305 304 304 303
320 318 317 317 318 316 316 317 320 321 317 320 320 323 319 314 317 319 321 321 321 320 320 320 317 317 315 313 310 309 309 308 306 304 305 307 306 303 303 302 300 299 297
320 319 320 320 318 320 319 320 321 321 322 320 321 323 320 323 324 322 323 324 322 321 321 320 318 317 315 313 308 308 310 309 307 306 305 304 303 303 303 302 301 301 299
323 322 322 321 321 322 322 322 321 320 320 321 322 324 324 323 325 325 324 324 322 321 318 320 319 316 314 312 311 312 312 311 309 307 305 305 304 303 303 302 301 300 300
324 322 322 321 321 322 321 321 321 320 320 322 323 325 324 324 324 324 324 324 321 320 320 320 318 316 314 312 312 312 313 313 309 307 306 305 304 303 303 302 300 300 300
325 324 323 324 324 324 324 323 322 321 320 321 323 324 321 322 322 322 322 324 321 320 319 320 317 316 314 312 311 312 313 312 310 309 307 306 305 304 303 302 300 300 300
325 326 326 326 325 326 327 326 325 323 321 321 323 324 322 317 318 320 322 322 321 320 319 320 318 316 314 313 311 310 311 309 308 309 308 306 305 303 303 302 301 301 301
327 326 326 327 327 328 328 327 327 325 323 323 324 325 322 318 321 323 323 322 320 319 319 318 316 315 313 312 310 309 310 307 307 307 306 305 303 302 302 301 301 301 299
328 328 327 327 327 327 327 329 328 327 326 323 324 327 326 324 323 323 322 320 319 319 318 317 315 313 313 311 309 308 308 306 306 305 304 303 302 302 301 300 300 299 298

GFSSE_850_thetae_060.txt.gz
Theta_e
343 336 338 339 337 338 337 336 334 333 334 333 331 324 313 309 311 312 316 325 318 323 323 320 316 313 313 313 312 311 315 321 322 316 311 313 315 316 315 314 319 325 327
342 336 337 341 340 338 337 335 333 333 333 333 326 316 309 309 309 320 328 322 323 323 319 317 313 314 314 314 314 315 321 323 323 323 318 314 318 318 314 314 314 318 321
333 336 338 339 340 339 337 335 334 334 334 330 320 310 308 308 314 327 327 323 323 320 317 314 314 313 312 312 311 320 322 323 324 325 323 320 323 319 319 319 318 319 319
327 337 339 340 340 339 338 336 334 334 333 324 313 308 308 309 320 326 323 321 321 318 314 314 314 313 313 313 313 321 322 323 324 324 322 320 319 321 316 312 314 316 319
335 340 338 340 340 339 338 336 335 335 328 317 308 308 309 311 318 325 325 321 318 314 315 314 314 314 314 312 316 320 321 321 321 322 321 316 309 310 308 307 307 308 309
342 340 338 340 341 339 337 336 335 332 322 310 308 309 311 314 319 324 325 319 315 315 315 314 314 313 310 309 315 319 320 322 322 320 308 305 304 303 303 303 303 304 305
339 340 338 340 341 337 337 335 334 325 313 308 309 311 312 316 321 324 323 315 315 315 315 313 312 310 309 308 313 318 319 321 321 317 306 305 304 304 303 303 303 303 303
339 338 336 338 337 336 336 334 326 314 308 309 311 313 316 320 322 322 319 315 315 316 315 313 311 309 308 306 309 315 317 320 320 320 314 304 304 303 302 302 302 302 302
336 335 327 333 333 332 331 324 314 309 310 313 314 317 319 320 321 320 315 315 316 316 316 314 311 309 308 307 308 315 317 318 319 319 315 305 304 303 302 302 302 302 302
334 331 327 327 324 327 326 321 319 319 319 315 318 322 321 320 317 315 315 316 317 317 317 317 313 309 308 308 310 312 314 314 316 316 312 305 304 304 302 302 301 302 302
333 331 328 326 327 325 326 321 317 317 317 318 322 320 317 317 316 315 316 316 317 317 318 318 316 311 310 309 309 309 311 311 313 314 310 304 307 307 302 302 301 301 301
331 330 328 328 327 325 324 319 314 314 316 321 319 317 316 316 315 315 316 317 317 317 318 318 317 314 313 312 310 309 309 308 308 308 307 301 305 305 303 302 301 301 301
330 329 328 328 326 324 321 315 315 313 315 319 316 314 316 316 316 315 315 316 317 317 317 317 317 316 314 312 310 309 307 307 307 307 307 301 305 309 307 303 303 302 302
328 327 327 325 324 321 317 315 314 314 318 318 319 319 319 318 316 315 315 316 317 317 317 318 317 317 316 313 311 309 307 307 307 307 308 300 304 312 309 304 304 303 303
325 323 324 324 323 321 314 315 314 316 319 318 318 316 316 315 316 315 314 315 317 318 318 318 318 318 316 314 310 310 309 307 307 308 310 308 300 301 305 307 305 303 305
322 322 323 321 320 317 316 315 315 318 315 314 314 315 315 316 317 317 320 320 319 319 318 318 318 317 314 316 311 310 309 307 306 309 309 309 308 300 306 306 308 308 308
320 319 318 317 317 316 314 318 317 312 312 313 315 315 316 319 316 321 322 321 321 320 319 318 318 316 315 312 312 309 308 308 309 308 307 308 309 309 303 301 300 301 301
320 319 317 316 316 316 318 318 313 313 313 315 317 317 316 321 321 319 320 320 321 320 319 318 318 317 315 313 311 309 308 309 310 310 308 308 310 310 308 307 305 303 302
318 317 316 317 317 318 317 315 312 314 315 318 318 320 320 315 318 317 322 322 321 320 319 319 319 317 317 314 312 310 309 308 309 307 307 307 308 305 305 305 302 301 300
318 318 317 316 315 315 314 315 318 320 317 317 318 321 323 320 316 315 318 321 322 321 321 320 319 318 317 316 313 309 309 310 310 310 308 306 305 304 303 303 302 301 301
319 318 316 316 316 315 316 317 320 322 321 316 320 319 321 319 319 322 323 322 323 322 322 321 320 319 317 315 313 310 311 312 312 311 308 306 305 304 303 303 303 301 301
318 319 319 317 316 317 319 318 322 320 317 315 318 320 321 321 321 322 322 324 324 323 323 319 320 320 318 316 315 312 313 313 312 311 309 307 305 305 304 303 303 301 300
321 320 321 318 319 321 324 321 321 320 319 319 320 320 323 321 320 321 322 321 323 324 321 319 319 319 317 315 313 313 313 313 312 311 309 308 306 305 305 304 303 301 300
323 323 322 321 321 321 322 322 321 322 322 321 320 322 322 320 321 322 323 322 320 320 321 320 319 319 316 315 313 312 311 312 312 310 309 307 306 306 305 302 302 302 301
326 324 323 322 322 323 323 324 324 323 322 321 321 323 324 324 322 319 321 319 320 320 322 321 320 319 314 314 313 313 312 310 310 307 307 307 306 305 303 302 302 301 301
326 326 325 324 325 325 325 324 326 327 325 323 323 323 324 324 323 319 318 319 322 323 322 321 320 318 314 314 314 312 312 309 309 306 306 305 304 303 302 302 301 301 300

GFSSE_850_thetae_063.txt.gz
Theta_e
338 337 338 338 337 334 332 331 332 332 330 331 327 318 310 310 311 311 311 310 321 322 318 314 311 311 311 313 317 321 322 322 317 311 313 314 313 313 315 317 321 325 327
339 339 339 338 337 333 332 331 332 332 332 330 321 311 309 310 311 315 312 322 322 318 314 313 313 313 314 320 322 323 324 324 324 319 310 320 324 317 313 314 314 316 317
335 335 339 341 338 335 332 331 332 332 332 326 314 309 309 312 324 316 321 322 318 315 313 313 312 311 317 322 322 322 324 324 325 322 312 315 316 320 320 317 314 322 321
331 326 326 328 339 335 331 331 332 332 330 321 309 309 310 325 324 319 321 319 316 314 313 312 312 312 318 322 322 323 323 324 322 322 310 309 313 314 314 311 310 315 320
327 327 330 335 339 337 335 333 333 333 328 315 308 309 318 325 319 319 319 317 314 313 313 313 313 312 317 321 321 321 322 323 323 321 306 305 305 306 304 305 307 309 314
328 331 337 339 338 338 334 333 333 332 324 310 308 310 325 323 319 319 317 314 314 314 313 313 310 310 318 320 320 322 321 320 313 305 305 304 305 306 305 305 304 304 306
340 339 337 338 340 339 335 333 333 328 315 308 309 312 326 326 323 317 315 314 314 314 313 310 309 309 318 319 320 321 320 320 318 306 305 305 304 307 307 305 303 303 303
338 338 338 339 339 339 336 334 330 320 309 308 311 317 326 326 323 315 314 315 315 314 312 309 308 307 314 318 318 319 320 320 318 309 305 304 303 304 303 302 302 303 305
335 334 333 326 330 331 335 328 322 314 312 321 316 322 325 324 320 314 315 316 315 314 311 309 308 307 310 316 317 319 320 318 317 315 305 304 303 303 303 303 303 304 304
335 332 330 328 325 323 323 323 321 316 317 324 322 323 325 324 321 315 315 316 316 316 313 309 308 308 310 314 316 314 316 317 315 314 306 305 304 302 302 302 303 305 303
333 332 328 326 325 325 323 323 322 318 318 321 324 325 325 325 320 316 316 316 318 318 315 310 309 309 309 311 312 312 311 313 313 311 306 304 304 303 302 301 301 304 305
331 330 328 325 325 325 324 322 322 312 316 322 323 322 321 321 317 315 317 317 318 318 318 315 312 311 311 311 309 311 310 309 309 308 307 303 304 304 302 301 301 301 301
329 329 328 327 326 326 324 322 321 314 314 319 322 321 318 317 315 316 317 317 318 318 318 317 315 313 312 310 309 308 308 308 308 308 307 302 304 304 303 302 301 301 301
328 328 328 328 327 324 323 322 318 314 317 319 318 317 315 315 315 315 316 317 317 317 317 318 318 316 315 310 309 308 308 307 308 308 309 305 303 304 305 303 302 301 301
327 326 327 327 324 323 318 315 318 320 318 315 317 318 318 316 315 315 314 314 317 317 318 318 318 318 316 312 311 309 308 307 308 309 310 308 305 304 308 307 302 301 301
324 324 324 324 323 319 315 314 313 314 317 318 317 315 315 316 317 314 314 314 316 318 318 318 318 318 317 316 310 310 310 308 308 310 309 308 309 308 303 303 302 301 302
323 322 323 324 321 317 317 315 316 318 320 317 314 315 317 317 318 314 313 318 319 320 319 318 318 317 317 317 313 310 310 309 307 308 308 309 308 309 309 307 305 304 301
321 321 323 322 318 315 314 314 319 317 316 314 314 315 317 316 314 314 319 321 321 320 320 319 318 318 317 315 313 313 310 309 309 308 310 309 308 309 309 308 307 305 303
319 319 319 317 316 315 315 315 316 316 313 314 316 318 314 314 314 320 320 321 321 321 321 319 319 318 317 315 314 313 311 309 310 310 310 308 307 308 307 306 306 302 302
318 318 317 317 316 314 314 317 317 315 313 313 318 318 315 315 315 318 320 319 321 321 321 320 320 319 317 316 316 313 311 308 309 312 312 310 307 307 306 305 303 303 303
317 317 317 318 317 317 318 318 314 312 313 313 316 315 319 319 320 317 314 317 319 320 321 321 321 320 318 317 316 312 309 308 312 312 312 311 309 307 305 304 304 303 303
318 317 317 317 317 318 316 314 313 316 314 314 314 318 319 320 321 318 316 318 320 322 322 322 322 321 320 318 316 313 311 311 312 312 311 311 309 306 305 305 304 303 303
318 317 316 316 316 316 316 317 318 320 320 320 316 319 319 320 319 319 318 319 320 322 323 322 322 321 319 319 315 314 313 313 313 313 311 310 309 307 307 305 305 303 303
316 316 316 316 315 316 318 318 319 321 321 318 314 314 316 318 319 320 320 320 321 321 322 321 321 322 320 320 317 313 312 312 311 311 311 310 308 307 306 306 305 302 302
318 317 316 316 316 319 320 322 322 321 320 317 318 320 319 319 320 321 321 321 321 322 323 321 320 321 321 319 318 314 313 312 312 310 310 309 307 307 306 305 304 303 302
323 322 318 316 317 317 320 322 323 322 321 321 321 321 321 322 322 323 323 323 322 322 322 320 321 322 321 320 318 314 313 313 311 309 308 308 308 309 303 303 302 301 302

GFSSE_850_thetae_066.txt.gz
Theta_e
340 339 337 336 330 324 326 329 328 326 329 329 325 317 311 312 314 313 312 311 317 323 320 312 310 311 313 315 318 317 312 312 315 317 316 319 315 317 319 321 325 326 326
337 338 337 336 336 326 326 329 327 327 330 326 318 311 311 311 312 310 315 322 320 314 311 311 313 316 318 322 323 322 320 317 312 317 324 325 325 320 313 314 316 323 325
337 338 337 337 337 330 327 330 328 329 327 320 311 310 310 311 310 317 321 319 314 312 313 313 318 321 322 325 326 326 324 318 313 310 314 320 326 318 313 322 326 325 324
335 336 339 338 337 333 331 330 329 330 327 315 310 310 311 312 314 319 319 316 313 312 311 313 319 321 322 322 323 323 322 321 319 308 308 309 313 314 313 311 318 324 323
332 330 331 335 332 330 327 330 330 329 320 311 311 313 318 314 317 318 317 313 312 312 312 314 321 321 321 322 322 322 322 320 320 305 305 305 306 309 306 307 313 320 321
331 334 329 327 330 329 331 328 329 328 316 310 314 326 319 317 317 317 313 313 313 313 313 315 321 320 321 321 321 321 319 306 305 305 305 305 307 309 306 304 305 315 317
335 327 331 329 331 335 332 332 331 328 312 310 327 330 321 318 317 313 313 314 313 312 310 315 320 319 320 321 320 320 319 312 306 305 305 305 307 308 308 308 309 312 310
337 336 337 337 326 323 335 332 332 332 324 316 327 328 320 318 315 313 314 314 313 310 309 311 318 317 320 321 320 319 318 314 309 305 304 304 308 308 308 309 309 309 308
337 335 334 331 327 322 322 331 324 318 309 320 327 327 323 318 314 314 315 314 312 309 308 308 317 316 317 318 319 319 317 315 312 305 305 304 307 308 310 308 308 305 304
334 334 333 332 327 325 321 324 320 318 316 322 326 327 325 317 315 315 315 314 311 309 308 307 313 316 316 316 317 317 316 314 312 308 305 304 304 305 304 305 305 304 303
331 332 331 330 329 325 323 323 322 322 321 324 325 326 325 316 315 316 315 316 314 310 308 308 309 314 316 315 314 313 313 312 310 308 304 305 304 304 303 305 305 303 302
330 330 330 328 326 324 323 323 323 317 321 322 323 323 323 316 315 316 317 318 317 314 309 309 309 310 313 313 313 311 310 309 308 308 306 305 305 304 303 302 303 302 301
328 328 327 326 325 325 324 323 320 321 317 317 321 323 322 316 316 317 318 318 318 318 316 313 311 311 310 309 310 310 308 308 309 308 306 305 305 305 304 302 302 303 301
329 327 327 325 325 324 323 323 319 316 322 322 321 322 319 315 316 317 318 318 318 318 318 317 316 313 311 309 308 309 308 308 309 310 310 308 306 305 305 303 303 302 302
327 327 327 326 326 324 322 321 317 325 322 323 321 317 317 315 316 315 316 317 318 318 318 318 318 316 313 310 308 308 308 308 309 311 311 310 309 306 304 305 307 304 302
326 325 327 326 325 324 322 319 317 320 319 320 319 316 315 315 314 315 314 315 317 317 318 319 318 319 316 313 310 309 309 310 309 311 311 310 309 308 307 307 305 304 304
324 324 325 326 324 324 322 320 314 317 318 318 317 316 315 315 315 314 314 314 316 317 318 318 318 319 318 317 312 310 310 310 309 310 310 310 309 308 309 307 307 306 305
323 322 323 323 323 320 317 317 320 318 317 318 317 317 318 317 317 314 314 317 318 318 319 319 318 319 318 317 316 313 311 310 310 309 310 310 308 308 308 309 307 306 305
321 321 322 322 322 315 316 320 320 320 319 316 315 316 315 315 316 315 318 318 318 318 320 320 319 319 318 317 316 316 316 316 310 310 311 310 309 308 308 307 307 306 304
319 321 321 322 319 317 314 315 317 320 317 316 315 314 315 316 315 316 316 315 315 320 320 321 320 319 319 318 316 316 316 314 311 309 312 312 311 309 309 307 305 305 304
317 318 320 320 318 316 315 316 316 316 316 315 314 314 318 317 315 314 313 314 317 318 318 320 320 320 320 318 317 314 314 313 311 308 312 312 311 310 309 307 306 305 305
318 318 318 318 316 315 314 315 316 315 315 314 314 316 318 319 319 315 314 315 313 315 320 321 321 321 320 319 317 315 314 312 310 309 310 312 312 310 309 307 305 304 305
318 318 318 317 317 315 315 315 317 316 315 314 314 316 317 316 317 318 318 318 315 318 320 320 322 322 322 321 318 316 313 312 312 311 310 311 312 310 309 307 306 305 305
318 318 318 318 318 317 316 318 317 314 314 314 313 315 315 313 315 316 317 317 317 319 319 319 321 322 322 322 318 317 317 314 313 312 312 312 312 310 309 307 306 306 306
318 317 318 318 318 318 317 315 314 314 313 313 314 315 312 313 317 318 318 318 317 319 320 320 321 322 322 321 320 320 318 316 313 312 312 311 310 310 309 307 307 306 305
317 317 317 317 317 316 315 315 316 317 317 316 314 313 313 312 315 316 317 319 319 320 320 320 322 322 321 320 320 319 318 317 314 313 312 311 310 308 308 306 305 306 304

GFSSE_850_thetae_069.txt.gz
Theta_e
342 340 335 331 325 326 328 329 331 328 326 324 326 331 331 328 326 322 316 317 329 331 331 322 314 312 311 311 313 318 318 316 317 317 317 322 320 319 324 326 325 326 327
342 340 335 328 323 325 326 328 329 328 327 324 320 321 324 324 320 315 312 316 327 324 316 312 312 314 315 314 311 310 312 318 324 324 325 325 325 318 317 323 325 325 325
340 338 335 331 325 325 327 328 327 327 328 325 318 314 316 315 312 311 317 322 319 313 311 313 315 317 320 320 317 315 312 312 316 319 319 322 327 326 324 324 324 323 323
340 338 337 334 332 327 329 330 329 326 327 321 314 314 316 314 317 321 319 315 312 312 314 315 317 321 322 321 320 320 318 309 309 310 310 317 325 323 322 323 322 323 321
337 338 337 337 337 331 331 328 328 329 323 316 313 316 316 318 320 318 314 313 313 314 316 316 319 320 322 322 321 318 315 312 306 306 308 309 314 319 320 321 321 320 317
338 338 339 338 336 332 330 330 330 331 322 313 313 315 317 320 318 315 313 311 311 314 318 318 319 320 321 320 319 309 305 305 305 306 306 308 310 313 316 318 314 316 311
336 334 332 334 335 334 332 330 331 331 321 312 313 317 322 318 315 312 312 311 312 316 319 319 320 320 321 320 319 315 306 305 305 305 306 306 310 312 313 312 313 312 312
336 334 331 331 331 329 325 326 331 331 322 322 321 321 320 316 313 312 313 313 313 317 320 319 319 320 321 319 318 315 313 306 305 305 305 305 308 310 312 311 309 308 307
333 335 332 332 328 326 327 325 331 329 329 328 323 319 318 314 313 313 313 311 312 318 319 318 319 320 320 319 318 315 313 309 306 305 305 305 307 309 308 307 306 306 304
333 333 332 331 327 325 324 324 328 327 328 330 321 319 317 314 314 313 311 309 309 316 318 317 317 317 318 318 316 315 312 310 306 305 305 304 305 308 306 305 304 302 302
331 330 330 330 327 327 326 321 324 329 329 329 325 320 315 314 314 312 310 309 307 309 317 317 316 316 314 315 314 313 311 309 308 305 306 305 304 306 306 305 303 303 302
330 330 330 329 329 328 324 323 323 322 323 325 324 321 315 314 313 311 310 308 307 307 312 316 316 316 315 314 312 310 309 308 308 306 306 305 305 305 306 305 303 303 302
328 328 327 326 326 324 324 323 323 320 321 323 324 319 315 315 313 314 311 309 308 308 309 312 314 313 313 312 311 309 308 308 309 308 306 305 305 305 305 305 304 303 302
328 327 326 326 324 323 323 322 320 321 321 322 321 319 315 315 316 317 317 314 313 311 310 310 310 310 310 309 309 308 308 308 310 310 309 309 307 306 306 305 305 304 302
328 325 326 326 325 324 323 321 318 317 320 321 320 319 315 316 317 318 318 318 318 317 318 316 313 311 311 310 308 308 309 309 310 311 311 310 309 309 308 308 306 306 304
325 324 325 326 325 324 323 322 320 319 318 320 322 318 315 317 317 317 318 318 318 318 318 318 318 317 311 310 310 310 309 309 309 311 311 311 309 309 309 308 307 306 306
322 323 324 325 326 324 323 320 318 317 317 320 321 320 315 316 316 317 317 317 317 318 318 319 319 318 314 313 310 310 310 310 310 310 310 311 310 309 309 308 308 307 306
322 324 324 324 324 323 322 317 323 324 324 324 321 317 315 315 315 315 315 316 315 316 318 318 319 319 318 318 316 313 310 310 310 310 311 311 311 310 309 309 308 307 306
321 323 323 322 323 322 320 321 324 323 322 319 318 317 315 315 314 314 314 314 314 316 318 319 319 319 319 318 316 315 315 316 316 310 310 311 312 311 309 309 308 307 306
320 321 322 322 323 322 319 317 319 320 320 319 317 315 315 315 316 315 315 317 317 318 318 319 320 319 319 318 317 315 314 314 314 313 311 311 312 312 309 309 308 306 305
318 319 321 322 322 320 319 318 321 319 319 319 317 317 317 317 316 316 317 318 318 317 315 317 320 320 319 318 317 315 314 314 313 313 310 309 311 312 311 309 309 307 306
318 318 320 321 322 317 318 320 319 317 318 316 315 317 318 316 315 315 318 319 317 315 314 317 320 321 320 319 318 317 316 314 313 312 310 309 310 311 311 310 309 308 306
318 318 319 319 320 317 316 320 319 319 318 316 315 315 315 314 315 315 318 317 316 315 316 317 320 321 321 320 319 317 315 315 315 315 312 310 309 310 310 310 310 308 307
319 318 318 320 318 317 316 314 315 317 318 316 315 314 314 315 316 318 319 319 318 318 318 316 318 320 321 322 321 320 318 316 316 314 315 314 310 309 312 310 310 308 306
318 318 318 318 318 316 315 314 315 316 315 315 315 314 314 315 316 315 316 317 316 317 320 319 319 319 320 321 322 322 321 318 317 314 313 313 312 311 313 311 310 309 307
318 318 318 318 318 317 315 314 315 315 316 316 316 316 313 314 315 315 313 313 315 318 319 320 321 321 321 321 322 322 321 319 319 316 314 315 312 312 311 311 309 308 307

GFSSE_850_thetae_072.txt.gz
Theta_e
338 331 327 326 325 327 327 329 328 328 329 331 334 332 331 325 323 321 319 318 327 331 332 331 329 329 327 326 324 326 324 326 329 328 327 328 327 326 325 327 328 328 328
340 339 330 327 324 326 327 326 326 326 326 326 333 333 330 327 324 320 320 325 331 331 330 325 317 311 315 316 314 312 315 322 323 323 320 320 323 325 324 325 326 326 325
342 341 337 332 326 329 327 327 328 327 326 328 333 331 329 327 322 319 325 330 330 329 323 314 312 312 310 310 310 311 314 317 318 320 324 324 324 323 323 324 324 324 323
341 340 335 331 328 328 327 327 329 327 325 328 326 324 325 324 319 318 326 327 324 319 316 322 316 317 315 314 311 309 311 312 310 310 319 321 323 323 322 320 320 318 315
340 339 334 326 328 330 329 328 326 327 326 324 319 317 317 317 316 323 322 318 314 313 326 322 320 320 319 317 314 311 307 308 308 309 311 321 322 322 320 316 318 316 314
341 338 336 333 329 329 329 330 329 329 327 320 316 312 312 313 319 318 314 313 312 313 316 319 320 320 317 309 306 307 305 306 306 307 307 310 321 322 318 316 313 312 311
337 339 337 333 332 328 329 330 329 329 329 326 317 318 311 318 316 322 323 316 313 315 318 319 320 319 316 310 306 305 305 306 306 306 307 313 321 319 316 312 311 311 309
331 337 337 335 334 333 330 330 327 329 330 330 323 314 313 317 315 322 324 315 313 316 317 319 320 319 317 310 310 306 305 305 305 306 306 312 315 313 309 308 307 307 306
330 333 335 333 331 332 328 328 325 330 330 329 317 318 319 315 314 317 314 316 316 317 318 320 320 319 317 315 312 309 306 305 305 305 306 307 309 308 309 308 305 304 303
330 332 335 332 331 329 329 328 325 325 330 329 318 322 318 315 312 312 314 317 317 317 318 319 319 318 318 315 313 310 306 305 305 305 306 309 311 311 309 305 304 304 303
333 333 333 331 329 328 326 324 324 324 328 325 324 321 315 313 313 313 314 317 317 317 318 318 318 318 316 314 312 309 308 305 306 305 305 309 309 309 305 305 304 304 303
329 330 331 330 329 329 327 324 326 328 326 322 322 319 315 313 313 311 313 317 317 317 316 316 316 315 314 312 310 308 309 307 306 306 306 306 307 307 306 306 305 304 303
330 330 328 328 328 329 326 323 327 327 325 326 319 317 313 313 311 308 307 310 316 316 316 315 315 314 313 311 309 308 309 308 307 306 306 306 306 307 307 305 305 304 303
328 327 326 326 327 326 323 323 323 325 326 323 319 317 314 312 309 308 306 306 310 314 314 313 312 312 311 310 308 309 309 310 310 309 310 308 307 308 309 307 306 305 304
326 327 325 325 324 324 323 323 323 325 323 321 320 316 314 311 309 308 308 308 308 310 310 311 310 310 309 309 309 309 310 310 311 311 311 310 309 309 309 309 308 307 306
324 325 324 325 324 324 323 323 322 323 323 321 320 315 315 315 314 310 309 309 310 310 310 311 311 310 309 309 309 310 310 310 311 311 311 311 310 309 310 309 308 307 306
322 322 323 324 325 324 323 321 320 321 321 321 319 315 315 316 317 317 317 315 317 317 317 318 318 314 310 310 310 310 310 310 310 311 311 311 311 309 309 309 308 308 307
321 322 323 324 324 323 323 319 321 321 323 321 321 315 314 316 315 317 316 317 318 318 318 318 319 318 315 314 311 310 310 310 310 310 310 311 311 310 309 310 309 308 307
321 322 323 324 323 324 322 320 318 320 320 320 318 316 315 315 316 317 317 317 317 317 318 318 319 319 318 318 316 313 310 311 312 310 309 310 311 311 310 309 310 308 307
320 321 322 323 322 323 322 320 319 318 318 321 318 316 315 315 315 316 315 316 316 317 318 319 318 318 319 318 317 316 314 313 313 312 309 309 310 311 311 310 310 309 307
320 320 321 322 322 322 321 318 319 320 321 319 320 316 315 315 315 314 314 314 317 317 318 319 319 320 319 319 318 317 316 315 315 315 313 311 309 310 312 312 310 310 309
319 319 320 321 322 322 321 320 322 322 321 321 320 317 315 315 315 315 315 315 317 318 318 319 319 319 320 320 319 318 317 316 317 317 315 314 313 310 310 311 311 310 309
318 318 320 321 322 322 321 319 318 319 321 318 317 316 315 316 315 315 316 315 317 318 318 318 318 319 319 320 320 318 317 317 318 318 317 316 314 312 310 310 309 310 308
319 317 318 320 320 322 320 319 318 319 319 318 317 316 316 317 317 316 316 315 314 317 319 319 317 315 317 320 321 320 319 318 317 317 318 317 315 312 309 308 309 311 311
318 318 319 319 321 321 317 318 320 319 316 317 317 315 316 318 318 317 315 314 314 316 320 320 320 319 319 319 320 321 321 320 319 317 315 316 316 315 313 308 309 312 310
319 317 318 320 321 319 317 317 320 318 316 317 316 315 315 314 315 314 314 315 315 315 315 317 318 318 320 320 320 321 321 321 320 320 319 316 316 314 312 310 312 311 309

GFSSE_850_thetae_075.txt.gz
Theta_e
337 334 333 332 331 331 331 330 330 332 334 335 334 331 328 324 320 319 318 321 325 332 333 331 330 327 329 329 330 330 329 330 329 327 327 327 327 328 327 329 329 329 329
337 336 332 331 330 332 331 330 331 333 334 335 333 330 325 324 321 321 320 326 331 334 333 331 329 327 327 326 328 328 327 326 325 327 327 325 327 327 328 328 328 326 325
339 336 331 328 329 331 331 330 329 331 332 333 332 331 326 323 323 322 322 327 333 332 330 327 323 322 319 319 316 319 321 322 322 319 324 326 325 326 325 326 325 324 324
340 340 335 329 327 329 329 327 328 330 330 329 333 331 326 326 323 321 321 328 330 330 325 313 313 314 313 315 317 317 315 315 314 315 324 325 324 324 323 323 321 319 315
342 341 339 336 327 329 330 329 330 330 328 327 332 331 327 325 323 321 324 330 329 325 317 320 318 312 311 311 313 313 310 310 312 320 323 324 323 319 316 312 313 313 314
337 339 336 333 332 330 329 330 332 330 331 331 331 328 325 323 320 319 324 327 323 319 327 326 316 317 315 311 307 308 308 308 311 320 320 321 321 321 313 313 313 312 310
336 337 335 331 328 327 328 328 328 330 331 332 328 325 321 320 314 315 325 326 325 327 327 322 318 311 307 308 306 306 306 307 310 317 319 322 319 316 315 314 311 308 306
331 332 334 333 327 327 325 328 328 328 328 326 325 318 315 314 316 318 321 325 323 321 322 320 315 308 306 306 306 306 307 307 308 317 317 318 316 316 312 309 307 305 304
332 331 331 331 329 329 326 327 328 330 330 328 325 322 316 316 320 318 320 316 318 319 319 318 316 309 309 306 306 305 306 306 307 315 316 316 314 312 308 306 305 304 304
332 331 330 330 330 329 328 328 328 328 327 331 328 324 319 318 318 318 316 317 318 319 319 318 316 314 312 309 306 306 306 306 306 311 317 313 311 311 307 305 305 305 304
330 332 332 331 330 330 329 329 330 327 324 327 330 325 319 317 316 320 314 317 318 319 320 319 318 315 312 310 307 306 306 306 306 313 316 312 311 308 306 305 305 304 304
330 329 332 331 331 330 329 328 326 325 325 328 328 323 317 316 317 314 316 318 318 319 320 319 318 315 312 309 308 307 306 307 307 309 312 312 308 307 306 306 305 305 305
329 330 331 331 330 329 328 329 327 325 324 329 326 323 317 314 314 315 316 318 318 319 320 318 317 314 311 309 309 309 308 307 307 309 308 307 308 308 307 307 306 305 305
329 329 329 327 326 328 328 327 325 327 327 324 320 318 315 313 313 314 316 317 316 316 316 315 314 312 310 309 309 309 308 307 308 308 307 308 309 309 308 307 307 306 306
325 326 326 325 324 325 326 323 327 327 327 323 321 317 314 313 312 312 311 316 316 315 315 314 313 312 310 309 309 309 311 311 311 311 310 309 309 310 310 308 307 306 305
324 324 325 324 324 324 323 326 326 326 325 319 316 316 313 313 311 308 311 313 315 314 314 312 311 310 309 310 309 309 310 311 311 312 311 310 309 310 311 310 308 307 306
323 322 322 323 325 323 323 323 325 325 324 318 315 316 313 311 310 307 307 310 311 311 310 310 310 309 310 310 309 309 309 310 311 311 311 311 310 309 310 310 309 308 308
322 321 324 323 324 323 323 322 323 324 322 319 317 313 311 313 308 308 309 312 312 310 311 312 309 310 310 310 309 309 309 309 309 310 310 310 310 310 309 310 310 309 308
323 322 322 323 323 323 322 321 323 324 319 318 317 312 314 310 308 315 315 315 316 317 317 316 315 316 313 312 310 310 309 309 309 309 309 309 310 311 310 309 309 309 308
321 322 323 323 322 323 322 321 321 322 321 320 315 312 311 315 317 317 316 317 318 318 317 316 318 318 318 318 316 315 313 312 312 313 311 309 309 310 310 310 309 309 309
320 322 322 322 322 322 322 319 321 321 323 317 318 312 316 316 316 318 317 317 317 317 317 317 318 318 318 318 317 317 316 315 315 314 314 313 310 309 309 310 310 309 309
319 321 321 321 321 322 323 320 319 320 321 319 319 315 316 316 316 317 316 314 314 315 318 318 319 319 319 318 318 318 317 318 318 317 316 315 313 311 309 309 310 310 309
319 319 321 321 321 322 322 322 320 319 319 319 320 315 315 315 315 315 314 314 314 316 318 319 319 319 319 319 320 319 318 318 319 319 319 318 317 314 311 310 308 308 308
318 318 320 320 322 321 322 322 319 320 319 319 318 316 315 316 315 314 314 314 316 315 317 316 316 317 319 319 319 320 320 320 319 319 319 319 319 319 315 312 313 309 307
319 317 319 320 322 322 321 321 321 321 320 321 319 317 315 315 316 315 315 315 316 315 316 315 317 319 319 320 320 318 320 320 320 319 318 318 319 318 317 316 314 314 307
320 317 318 320 321 321 321 321 321 319 320 320 318 317 316 315 315 315 316 315 316 317 315 317 316 317 317 317 316 319 320 320 320 320 319 319 319 317 316 315 315 311 307

GFSSE_850_thetae_078.txt.gz
Theta_e
343 342 336 335 335 333 334 333 336 336 332 331 329 327 325 322 321 320 317 317 325 330 328 328 329 328 329 329 329 329 329 329 329 328 329 329 328 327 329 330 331 330 330
343 342 336 334 333 332 332 334 334 335 334 333 330 327 324 320 320 320 317 318 328 332 330 328 328 331 331 330 328 329 330 329 327 326 328 328 328 329 329 330 329 329 329
340 341 335 333 333 332 333 334 334 335 335 334 330 327 323 321 320 320 318 324 333 334 332 329 327 329 329 329 329 329 328 326 326 327 329 328 328 329 328 327 326 326 326
340 341 340 333 332 332 332 332 335 335 335 334 331 328 324 323 323 321 320 329 334 333 331 327 324 324 323 325 324 321 320 323 322 325 328 328 325 326 326 325 324 323 321
339 342 339 331 329 331 331 335 335 335 335 334 330 329 325 323 324 323 323 330 334 332 330 323 317 313 314 314 315 315 319 319 324 325 326 325 323 323 322 320 315 313 311
339 340 340 335 327 329 329 329 333 335 335 333 330 329 325 325 323 325 324 329 331 327 319 312 311 312 314 315 315 314 318 319 323 324 323 321 321 316 312 309 307 306 306
337 340 336 336 331 328 328 328 331 334 333 334 331 328 326 325 323 324 330 329 329 323 314 312 312 311 310 312 311 309 313 319 322 322 321 320 318 312 308 307 305 305 304
333 336 339 335 335 331 328 328 331 333 331 329 332 330 327 325 324 324 330 326 323 324 317 316 314 312 310 307 306 307 308 318 321 320 320 320 316 314 307 305 304 303 303
330 332 335 333 329 331 330 328 330 330 332 331 329 330 328 325 324 325 327 324 325 327 320 315 307 307 306 306 306 307 309 320 321 319 319 318 316 309 306 305 304 304 304
334 334 331 331 331 330 328 328 329 328 330 329 328 326 326 325 324 326 326 325 320 321 321 312 307 306 306 306 306 307 308 318 319 319 318 316 313 313 309 307 305 305 305
333 334 331 330 328 329 328 327 328 329 328 329 329 328 325 322 325 325 323 319 317 319 317 311 311 308 306 306 306 307 316 318 319 318 318 311 316 312 308 306 305 304 305
330 331 332 330 330 329 329 328 328 329 328 328 329 327 323 321 325 326 316 319 318 319 317 315 313 310 308 307 306 311 317 318 319 319 318 311 310 309 306 305 305 304 305
330 330 330 331 328 329 330 329 329 329 328 329 327 328 325 322 322 324 317 319 320 319 318 316 313 314 316 316 314 317 318 318 319 319 315 312 311 308 306 305 305 305 305
329 330 330 329 329 329 329 329 328 328 328 325 327 326 324 324 326 321 318 323 321 321 319 317 317 318 317 316 316 316 317 317 318 318 313 310 311 311 308 307 306 306 306
328 328 329 329 327 325 325 328 328 327 326 325 326 324 319 319 321 318 317 322 322 323 321 320 320 317 311 311 312 315 316 317 318 318 317 311 311 311 310 308 307 306 306
328 324 326 325 326 323 325 325 325 327 326 325 322 319 318 316 315 317 316 317 320 323 322 320 319 315 313 314 315 313 315 317 318 318 318 313 312 312 311 309 308 307 306
326 325 324 326 323 324 324 325 326 325 324 321 318 316 315 314 313 313 315 316 316 317 317 318 318 315 314 314 314 313 315 317 317 318 318 317 312 311 311 311 309 309 308
324 322 323 324 323 324 323 325 325 325 323 319 317 314 313 314 313 314 314 315 315 314 313 313 316 314 314 314 314 314 315 316 316 316 317 317 316 315 310 311 310 309 309
323 322 322 324 323 324 323 323 324 324 322 317 315 313 311 310 309 310 309 310 311 311 310 310 310 310 313 313 314 314 314 315 313 315 314 311 315 316 316 313 310 310 309
321 321 322 322 323 323 323 322 323 323 319 316 314 314 311 312 315 314 310 310 310 310 313 313 313 310 312 312 311 312 312 312 313 314 313 311 311 310 313 316 313 312 310
319 320 321 323 323 323 322 322 323 321 318 315 315 314 314 311 315 309 311 314 313 316 318 318 316 313 314 314 312 313 313 312 312 313 313 312 311 309 312 313 315 313 313
319 320 322 322 323 323 322 321 323 321 317 319 316 311 308 309 310 310 313 315 317 317 318 318 317 316 317 316 316 318 318 316 316 316 315 315 314 313 312 309 309 310 310
319 320 323 321 323 323 322 321 321 322 320 320 315 310 308 310 315 314 316 317 317 316 315 317 318 318 318 319 318 319 319 319 319 319 319 319 318 316 315 315 312 309 309
321 318 320 321 322 321 322 321 321 321 322 316 315 311 314 316 317 317 316 316 317 314 314 316 318 319 319 320 319 319 320 320 319 321 319 320 319 319 318 318 316 311 309
322 318 320 321 322 322 321 321 321 321 321 316 317 314 316 316 316 316 316 314 314 314 314 317 318 319 318 320 319 319 319 319 319 318 320 320 318 318 319 318 317 316 315
323 319 320 322 322 321 323 322 322 321 320 319 319 316 315 315 315 315 316 315 314 314 316 315 316 317 317 319 318 318 318 317 320 320 320 321 320 319 319 317 316 316 315

GFSSE_850_thetae_081.txt.gz
Theta_e
344 344 342 336 334 334 336 338 338 333 328 327 329 326 324 323 321 321 319 320 322 327 323 326 327 330 329 326 327 329 330 329 329 329 329 330 330 331 332 332 331 331 329
344 345 342 336 335 334 334 335 337 334 329 328 329 327 324 322 321 320 324 320 329 328 329 331 329 330 329 328 330 329 329 328 328 329 328 328 329 330 330 330 330 330 328
340 345 343 336 336 333 334 335 336 335 331 329 330 327 325 321 321 320 327 324 328 330 330 327 330 330 329 328 328 328 328 327 327 329 329 329 329 329 329 329 328 327 325
341 344 344 338 335 333 332 333 336 336 332 331 330 327 324 321 322 327 321 330 331 332 329 325 330 330 329 328 328 329 327 325 326 327 329 327 328 327 327 325 325 323 323
341 344 343 339 333 332 332 333 336 337 335 333 331 328 323 320 323 323 325 333 334 333 329 322 324 328 327 327 327 325 323 327 329 327 328 325 327 326 325 323 322 320 315
335 341 343 341 337 332 331 332 332 334 335 335 331 328 322 320 324 324 330 334 334 332 328 315 314 322 320 318 317 318 323 326 327 325 325 324 324 323 319 316 312 310 309
337 336 338 337 335 329 328 332 334 331 325 336 332 327 323 323 324 325 329 333 333 331 324 312 312 312 315 314 313 317 323 325 325 323 322 322 320 316 309 307 306 305 305
334 331 335 337 335 335 327 331 329 328 325 335 332 328 328 326 325 324 331 332 331 327 316 311 311 313 313 311 313 317 322 323 322 322 322 321 315 311 309 305 304 304 303
325 326 332 335 335 333 330 327 326 329 326 332 331 330 331 329 326 326 328 330 328 319 312 312 311 310 310 309 311 317 321 322 321 322 320 319 310 308 306 304 304 304 304
325 326 334 334 334 332 330 328 325 327 329 333 329 331 326 330 326 328 330 327 325 318 316 313 310 309 307 307 309 315 321 321 321 321 320 315 310 309 306 305 305 305 306
326 329 331 333 333 332 330 325 328 329 330 332 329 330 325 327 326 328 327 325 326 320 314 307 307 306 306 307 308 316 320 320 320 320 319 314 314 310 306 306 306 306 306
329 330 331 331 333 333 330 329 329 329 330 331 331 328 327 327 325 325 326 327 327 322 310 307 307 306 307 308 312 319 320 320 320 320 318 317 317 314 310 307 306 306 305
331 330 330 332 330 331 331 330 329 328 329 329 329 329 329 328 325 322 328 327 324 319 310 309 307 309 316 315 317 320 320 321 320 320 316 318 317 314 309 306 305 306 306
333 330 331 330 330 329 329 329 329 329 329 329 329 329 328 326 326 325 324 323 321 316 313 311 311 318 318 317 319 320 320 320 320 319 314 317 314 310 309 307 306 306 306
332 331 330 329 330 329 327 327 329 329 329 328 328 327 327 327 322 322 320 322 320 320 319 316 320 319 319 318 319 319 320 320 320 319 315 312 312 310 309 307 306 306 306
330 330 330 329 329 327 326 326 326 327 329 328 327 328 326 325 323 319 317 322 322 322 321 320 321 320 319 318 319 319 319 320 320 319 317 311 314 312 310 308 308 307 306
329 329 328 327 328 326 324 325 326 325 325 325 326 326 326 324 320 319 320 322 324 323 322 322 320 317 317 318 318 319 319 320 320 320 318 315 312 313 313 310 309 309 308
329 327 327 328 325 324 326 324 326 326 326 325 322 324 320 319 321 319 318 320 322 323 322 320 318 316 317 317 318 318 319 319 320 320 319 319 317 316 312 313 311 310 309
327 326 327 326 324 324 324 324 324 323 323 322 323 319 318 320 317 313 316 320 320 321 320 319 318 317 317 316 317 317 318 318 319 319 319 319 319 318 317 313 311 310 310
327 326 326 324 324 323 324 323 323 322 322 321 319 318 318 315 313 313 315 316 315 314 314 312 315 316 316 316 316 316 317 317 318 318 318 318 318 318 318 317 316 311 310
327 325 325 323 322 323 323 322 322 321 319 317 315 314 314 313 313 314 313 314 313 314 315 311 311 313 314 315 314 315 315 316 316 317 318 318 317 313 311 317 317 316 314
326 325 325 323 323 323 323 322 323 321 319 313 313 313 314 314 313 312 312 312 313 314 312 312 314 314 316 316 316 317 317 316 315 315 315 315 315 316 316 315 315 316 315
326 324 324 321 324 324 323 322 322 322 317 314 313 312 310 311 311 313 314 314 315 314 316 317 317 319 321 318 318 321 321 321 320 317 316 315 315 315 315 316 314 313 312
327 324 321 321 323 323 323 323 321 320 317 315 313 312 313 314 314 315 315 315 312 318 319 317 318 318 320 319 318 319 320 321 320 318 319 319 319 319 320 319 316 314 314
327 325 321 321 324 323 323 322 322 320 317 315 315 314 314 314 313 314 312 314 315 317 317 317 317 317 318 320 320 319 319 320 319 319 319 319 320 320 320 319 319 319 318
327 324 322 321 322 322 323 322 322 321 319 317 318 314 310 308 309 310 313 316 317 316 316 316 316 317 318 318 318 319 319 319 319 319 318 319 320 320 318 319 319 318 317

GFSSE_850_thetae_084.txt.gz
Theta_e
345 344 341 340 336 336 338 338 337 333 328 327 328 325 323 322 321 320 319 318 321 322 322 322 321 322 327 326 329 331 329 327 327 329 331 331 331 331 330 329 327 327 327
345 343 341 341 335 335 335 337 338 335 329 326 328 326 324 322 320 320 318 324 324 322 321 326 328 324 322 327 328 328 327 328 328 329 330 331 332 331 331 330 329 327 323
347 344 343 341 336 335 334 336 338 336 330 327 328 327 324 322 320 320 324 326 328 327 331 330 330 328 327 329 329 328 328 328 328 328 327 329 330 330 330 329 328 323 320
345 345 345 342 337 335 333 334 336 337 332 329 328 328 325 322 322 325 327 328 329 329 331 329 329 328 328 328 328 327 327 328 329 329 328 329 329 329 328 327 324 321 318
342 341 344 343 340 336 334 332 333 335 335 331 329 328 325 322 323 328 327 329 331 329 324 329 329 328 326 328 328 326 325 327 327 327 327 327 328 327 324 323 322 320 314
330 338 337 338 340 335 333 332 332 336 336 333 330 330 325 322 325 323 327 331 333 330 325 321 327 328 327 328 325 327 328 327 325 326 323 326 326 325 323 320 318 313 310
337 334 334 334 334 337 333 333 334 334 335 334 334 331 325 323 324 323 328 333 333 332 327 314 320 325 323 321 324 326 327 326 325 324 323 323 325 321 317 312 309 307 306
326 325 330 331 334 336 331 331 331 331 328 324 324 332 327 322 328 327 330 333 333 332 326 312 317 316 314 315 325 325 325 324 323 322 321 322 322 318 311 310 306 304 304
322 330 329 331 336 335 333 331 328 329 328 324 325 324 328 325 329 328 327 333 332 330 321 312 312 312 311 317 323 324 323 322 322 322 320 321 322 318 311 305 304 303 304
323 332 340 334 334 335 333 331 330 329 325 326 325 328 331 329 328 327 328 330 330 328 313 311 312 312 309 317 321 322 322 322 322 320 317 319 319 317 310 305 305 305 306
324 326 330 336 334 333 332 329 329 325 325 325 328 332 331 329 329 328 324 325 328 318 312 312 310 309 308 313 318 319 321 321 320 320 316 317 320 316 309 306 306 306 306
328 328 330 332 333 332 331 330 327 327 328 329 325 331 331 326 327 326 329 329 324 315 314 310 309 307 307 309 318 321 321 321 320 320 312 317 316 312 307 306 306 306 305
330 331 330 333 331 332 331 330 330 330 329 330 331 328 329 327 327 324 324 326 323 318 307 308 307 307 307 314 320 321 321 320 320 319 314 316 312 310 309 307 306 305 305
332 330 332 331 330 330 330 330 330 329 329 330 331 330 328 327 327 326 324 326 325 314 307 306 307 309 307 318 321 321 321 321 320 317 313 311 310 310 307 307 306 306 306
331 331 330 330 331 330 329 329 329 329 329 329 330 330 329 329 328 324 324 325 324 313 308 307 317 317 311 319 320 320 321 321 320 315 310 311 312 311 309 306 306 306 306
332 331 329 329 329 329 329 327 327 328 329 330 329 329 329 328 327 324 325 323 324 313 310 317 320 318 317 319 319 320 320 320 320 315 310 310 310 310 308 308 307 307 307
331 331 330 328 327 327 327 327 326 325 325 329 329 329 328 327 327 325 324 323 319 315 313 321 320 319 319 319 319 319 320 320 320 318 310 311 312 312 309 309 309 309 308
330 330 330 327 327 325 326 324 324 325 325 326 326 327 328 327 328 324 320 319 321 321 319 322 320 319 318 319 319 319 320 321 320 320 316 311 312 312 312 310 310 310 309
330 329 329 326 325 325 324 324 324 325 325 325 325 326 327 327 324 322 320 318 323 321 322 321 318 317 317 318 318 319 320 320 320 320 319 319 316 314 313 311 311 310 310
329 328 327 326 325 325 324 324 324 324 322 323 324 323 325 324 323 320 320 321 322 320 322 319 317 316 317 317 318 318 318 319 318 319 320 319 319 318 318 317 314 312 311
330 327 326 325 324 323 324 323 323 323 321 321 320 321 322 320 319 319 318 319 320 320 321 318 317 316 316 316 316 317 317 318 318 318 319 319 319 318 318 318 317 316 316
329 327 326 324 323 323 323 323 323 323 322 322 321 319 321 319 318 318 317 314 316 318 317 313 314 313 312 315 316 316 316 316 317 317 318 318 318 318 315 317 315 316 316
329 327 324 324 323 323 323 323 323 322 322 320 319 318 318 319 318 315 314 315 314 313 314 315 314 312 315 315 315 315 317 317 316 316 317 317 317 316 315 316 316 317 317
329 327 324 325 323 322 323 323 322 321 321 320 318 318 318 316 313 313 314 314 313 313 315 316 311 312 316 315 315 318 318 320 319 318 317 318 317 316 316 316 317 317 314
329 327 325 325 323 324 323 323 322 321 320 317 316 315 314 313 313 314 315 314 314 313 315 313 313 317 320 320 317 319 319 319 319 319 318 317 317 319 319 320 320 319 319
330 327 324 324 325 324 323 322 323 322 319 315 314 314 313 312 314 312 315 313 312 314 316 316 317 319 319 319 318 319 319 318 319 319 319 318 318 318 319 320 319 319 319

GFSSE_850_thetae_087.txt.gz
Theta_e
342 342 340 338 337 335 335 336 333 329 327 328 327 324 324 324 324 325 328 327 321 317 316 323 327 330 331 330 330 333 330 329 329 326 325 328 329 328 327 326 327 329 329
343 342 340 340 336 336 335 336 336 331 327 327 328 325 323 322 322 321 319 318 316 318 321 322 322 328 329 327 330 330 328 329 330 332 331 331 330 330 327 326 326 328 328
338 342 340 341 337 335 335 336 337 335 330 326 328 326 323 321 319 318 317 319 322 320 320 321 319 323 326 329 328 328 328 328 329 331 331 331 330 330 328 325 319 320 323
339 336 338 340 339 335 334 334 336 337 333 328 328 329 323 321 320 318 319 323 324 329 331 331 325 323 328 329 328 327 326 327 328 329 329 328 329 329 327 324 318 318 315
340 327 337 337 339 337 335 333 334 336 336 330 327 329 325 322 320 323 323 327 329 331 331 332 328 329 329 327 326 326 327 328 327 326 327 328 328 328 326 321 318 313 312
329 335 334 336 335 337 337 335 332 333 335 333 331 330 326 322 322 325 323 328 330 330 333 331 327 328 327 326 325 325 327 326 326 327 327 327 328 325 320 316 314 310 309
324 326 331 334 335 335 335 334 333 335 336 334 332 332 335 324 324 325 325 329 331 329 331 328 327 327 327 326 325 327 326 326 325 323 325 327 325 325 319 313 310 308 309
325 324 323 328 332 335 335 335 333 334 335 333 330 331 327 333 327 326 328 331 332 330 324 328 328 327 325 326 326 326 326 325 324 322 322 325 323 321 314 310 307 306 306
330 324 323 325 333 335 335 332 333 333 332 331 329 326 324 327 330 325 329 332 332 331 321 326 326 323 321 326 326 324 323 323 322 320 317 323 321 318 311 307 306 305 305
323 324 332 333 334 336 336 333 331 330 330 328 325 324 324 325 329 326 326 325 332 331 320 320 320 315 324 325 324 323 322 322 321 319 316 319 320 320 313 306 305 305 305
330 324 328 335 333 334 334 333 330 330 329 326 326 326 326 325 332 329 325 327 326 329 319 314 315 313 325 323 322 321 322 322 321 315 316 318 320 318 315 309 307 306 306
332 330 325 334 333 333 332 331 329 328 325 325 326 327 327 329 327 326 325 326 329 326 312 313 314 314 322 322 322 321 321 321 319 318 311 319 319 312 309 309 307 306 307
333 332 325 329 332 332 331 331 329 326 326 328 326 326 328 330 328 326 324 324 328 319 312 312 313 312 318 316 321 321 321 320 320 320 309 315 312 312 309 307 306 306 306
333 332 326 327 332 330 331 330 330 328 327 329 330 326 324 328 328 325 325 325 325 316 313 313 310 309 311 320 321 321 322 321 320 319 310 312 313 313 308 306 306 306 305
331 330 325 328 329 330 329 330 330 329 329 329 329 326 329 328 327 327 325 324 323 317 309 310 307 307 317 320 321 321 321 321 320 317 310 311 310 308 308 307 306 306 306
331 330 329 325 330 330 330 329 329 329 329 329 330 329 329 328 327 327 325 324 324 318 307 307 307 311 320 320 320 321 321 321 320 317 309 310 309 308 307 307 307 306 307
331 329 330 329 325 328 329 328 327 327 329 329 329 331 329 328 328 327 325 324 325 319 307 311 312 314 319 319 320 320 321 320 320 317 309 309 309 308 308 308 308 308 308
330 329 330 329 327 325 326 326 327 326 325 328 329 329 329 329 329 327 326 324 323 312 311 319 317 313 317 319 320 320 320 320 319 317 309 310 310 309 309 310 310 309 309
331 328 330 330 327 323 324 324 324 323 323 325 326 329 329 329 329 327 326 324 319 310 320 320 318 319 319 318 319 319 321 320 320 319 317 311 311 311 310 310 310 310 310
330 330 329 328 326 323 324 323 324 322 323 322 324 325 326 328 328 327 325 320 318 314 320 320 319 319 318 318 319 320 320 320 320 319 318 318 316 315 312 312 311 311 311
330 330 328 327 326 324 324 323 323 321 323 322 322 324 324 324 325 325 323 322 318 316 321 320 318 318 318 318 319 319 319 319 320 320 320 320 319 318 318 316 316 316 315
330 329 328 327 325 323 324 324 323 321 322 321 322 324 326 326 325 325 321 318 317 321 321 319 317 317 318 317 318 318 318 319 319 318 319 320 319 319 318 318 315 315 316
330 329 328 327 323 323 323 325 323 321 321 320 320 322 323 323 323 321 320 322 321 321 320 317 316 317 317 317 317 315 317 317 318 318 318 318 318 318 318 318 317 315 314
330 329 328 325 321 322 323 324 322 321 322 321 321 321 322 323 323 321 320 321 320 320 320 317 315 313 314 314 315 316 315 315 316 316 317 317 318 317 317 317 316 317 317
331 330 328 325 320 320 322 323 321 321 321 321 320 321 320 319 320 320 320 318 316 315 317 313 313 313 315 314 315 315 315 318 318 317 317 316 316 317 317 318 318 317 318
331 330 327 325 319 323 322 323 321 321 321 321 321 318 320 318 318 318 316 315 315 315 314 313 314 314 313 314 315 314 315 318 319 318 317 317 318 317 317 318 318 319 319

GFSSE_850_thetae_090.txt.gz
Theta_e
341 339 338 337 335 335 334 332 329 329 329 327 324 324 329 333 335 335 334 331 329 324 321 330 332 328 330 331 335 335 333 332 332 333 333 333 332 332 332 332 332 331 330
341 338 339 337 336 335 336 334 332 328 329 329 326 323 324 327 330 332 332 329 325 321 319 328 330 330 329 330 333 331 328 327 326 330 331 331 330 329 328 328 328 329 328
334 338 336 339 337 336 336 336 334 330 327 328 329 324 322 322 323 325 323 320 317 316 319 324 331 332 329 329 331 328 328 330 331 331 330 330 328 329 326 328 328 323 325
328 330 332 334 338 336 336 336 336 334 330 327 328 326 323 322 320 318 318 317 317 318 321 324 329 331 328 329 328 328 330 331 332 330 330 329 328 326 323 318 319 322 323
324 326 331 330 334 337 334 334 335 336 334 329 327 328 323 321 319 317 317 320 320 320 322 330 330 327 328 328 328 328 329 328 329 329 328 327 327 327 322 315 313 316 318
321 323 324 329 330 334 336 335 333 334 336 332 327 328 324 322 320 318 317 322 326 329 330 330 325 328 328 328 327 327 327 327 327 326 327 326 326 325 321 313 310 310 313
322 325 326 329 329 330 334 336 334 333 335 334 329 329 328 327 327 326 322 326 329 330 331 328 329 328 327 327 326 325 325 325 325 325 326 326 325 323 319 313 310 310 312
326 327 326 330 333 334 333 334 334 333 333 334 332 330 331 331 328 331 328 329 329 330 331 328 328 327 326 325 325 325 323 322 322 325 325 325 323 322 315 309 308 309 309
324 327 324 324 330 335 335 335 333 333 334 334 333 331 331 329 327 328 331 329 329 328 329 327 327 326 326 326 325 324 323 323 323 321 324 323 322 321 314 311 308 308 305
324 324 322 322 327 333 336 334 333 333 334 333 332 330 327 329 327 327 329 331 330 328 327 327 327 326 327 327 327 325 324 322 321 318 320 321 320 317 311 309 307 305 305
327 326 325 323 327 336 336 335 332 331 332 331 329 327 326 325 326 325 329 330 332 329 323 327 326 325 327 325 324 323 322 322 321 316 316 319 320 316 312 309 305 305 306
331 331 330 325 328 333 333 335 334 331 330 329 325 325 326 325 325 330 329 324 326 326 319 326 323 325 324 323 323 322 322 321 319 311 313 320 318 317 312 307 306 306 306
332 332 331 326 328 332 332 332 331 330 329 325 326 326 326 326 325 328 327 323 325 327 318 320 318 325 321 322 322 322 321 320 317 311 312 319 320 316 309 306 307 307 306
332 332 330 326 326 330 331 330 330 329 327 326 327 326 329 327 329 327 326 324 324 328 315 316 314 324 321 321 321 321 320 320 319 317 311 318 313 311 308 307 307 306 306
333 331 329 322 324 330 329 329 329 329 328 327 329 324 328 325 327 325 324 322 322 326 314 315 315 323 322 320 321 321 320 320 319 319 309 313 313 309 307 306 306 305 305
332 330 327 321 325 327 329 329 329 330 329 329 329 325 325 326 328 326 324 323 326 323 312 313 312 321 319 320 320 321 321 320 319 319 309 308 309 308 307 307 306 305 305
330 330 328 324 325 328 329 329 329 329 329 329 329 329 326 324 328 326 326 325 323 318 314 312 309 315 318 320 321 321 321 320 320 318 309 308 308 308 308 307 307 307 306
330 330 329 326 327 325 327 327 327 328 328 329 329 329 328 328 328 327 326 325 324 318 310 309 307 310 320 320 320 321 321 320 319 317 309 309 309 308 307 307 307 308 308
329 329 329 326 328 327 324 323 325 326 327 327 328 329 329 328 328 327 327 325 323 318 308 307 307 319 320 320 320 320 320 319 319 318 310 309 309 309 308 308 309 310 310
329 330 329 327 329 327 324 322 323 323 325 324 325 328 329 328 328 328 328 325 324 319 307 309 314 319 319 319 320 320 320 320 319 318 317 310 311 310 310 310 310 310 310
330 330 329 328 328 327 323 322 322 322 322 322 323 323 324 329 329 327 328 325 324 309 312 314 312 313 318 319 319 320 320 320 319 319 318 317 317 314 313 311 311 310 311
329 330 330 329 327 326 324 320 322 321 323 321 321 323 323 325 328 327 326 325 323 308 320 318 318 318 318 319 319 320 320 320 320 320 318 319 319 319 318 318 315 315 315
330 330 330 329 326 326 323 323 323 321 320 320 320 321 323 324 325 327 327 325 318 312 318 319 319 319 318 319 319 319 319 319 319 319 319 319 319 319 319 318 317 316 315
330 330 330 328 327 325 321 323 321 322 320 320 320 322 322 324 324 324 326 321 317 313 320 319 320 318 318 318 319 318 316 317 318 318 319 319 318 318 318 317 317 317 317
330 330 329 328 327 324 319 322 322 321 320 320 320 320 321 321 321 321 321 319 317 316 320 319 318 316 317 317 318 317 316 315 316 317 318 318 318 318 317 317 317 317 317
330 330 329 328 326 322 319 324 322 323 321 321 321 321 322 321 322 322 321 321 317 321 318 319 317 317 317 316 316 317 315 316 316 316 315 316 317 316 316 317 317 317 317

GFSSE_850_thetae_093.txt.gz
Theta_e
338 335 335 335 333 332 329 327 326 325 325 324 325 329 335 338 338 337 331 328 327 323 324 325 330 331 332 334 335 335 333 333 333 333 334 334 333 333 333 332 332 332 331
337 333 334 336 334 333 331 328 328 328 327 325 323 325 333 336 338 336 334 331 328 323 324 329 328 331 332 333 334 334 332 332 333 334 333 333 332 333 332 329 328 330 330
332 329 330 335 336 335 334 331 328 328 329 328 324 324 331 334 335 334 332 331 327 323 326 331 328 330 330 333 333 330 330 331 331 331 330 329 329 329 327 328 327 328 329
325 325 326 333 336 335 335 334 331 328 328 328 327 324 327 329 331 330 329 327 324 324 327 330 330 332 329 331 330 328 326 327 330 328 328 327 328 327 327 327 326 325 327
323 322 323 326 332 336 336 335 335 332 328 327 329 325 324 325 326 324 321 319 320 325 330 329 330 330 329 330 328 327 330 330 330 329 328 326 326 326 325 325 326 326 325
325 324 325 327 328 335 335 335 335 336 333 328 327 327 323 323 321 320 318 318 321 326 325 329 328 328 328 328 327 329 329 330 329 328 327 326 326 324 318 316 320 322 323
322 324 326 327 330 332 335 334 334 336 336 333 329 327 324 325 324 322 321 324 324 322 326 330 327 327 327 327 328 329 327 327 328 326 326 326 324 322 317 314 316 315 315
324 325 328 329 332 333 334 335 334 335 336 335 330 328 327 329 327 326 324 323 326 329 330 328 327 328 327 327 327 327 326 326 325 325 325 325 323 319 315 316 314 310 309
323 324 325 327 332 334 334 335 335 335 336 335 333 331 328 329 327 326 325 325 329 329 329 328 328 328 327 327 326 325 323 322 325 325 325 325 321 319 315 311 310 308 307
325 325 325 324 323 329 335 336 335 335 333 333 334 332 330 330 328 326 325 324 331 328 329 329 328 327 326 325 324 323 321 323 321 323 323 322 321 318 313 310 311 311 308
324 323 324 324 323 325 331 336 335 334 334 333 333 333 330 330 329 328 324 325 330 328 328 328 326 326 325 325 324 324 323 322 320 318 321 321 319 316 316 314 311 312 307
323 327 329 329 326 326 330 334 335 333 332 333 333 331 328 328 328 328 326 325 325 328 324 327 326 326 327 326 325 324 322 321 320 316 318 320 317 319 317 310 313 309 307
327 330 330 330 327 327 329 333 332 332 332 330 329 327 325 326 325 326 325 325 326 327 326 326 326 327 327 325 324 323 322 320 316 314 315 317 320 320 316 311 312 309 307
329 330 331 329 324 326 330 332 333 332 330 329 327 326 326 326 326 325 325 325 328 325 327 327 326 326 325 324 323 322 321 318 314 311 314 317 319 318 318 318 314 310 307
330 331 330 327 321 324 329 329 331 330 329 327 326 327 327 327 326 328 325 324 326 325 325 327 325 323 322 323 322 321 320 319 318 312 310 317 319 319 319 317 313 307 306
330 331 330 326 320 322 328 328 328 329 328 327 326 327 325 326 326 325 327 325 322 327 322 326 323 322 322 321 321 321 320 320 319 317 309 311 314 315 319 318 313 308 305
329 330 329 327 321 319 326 327 328 327 328 329 328 328 326 325 324 322 323 325 323 327 319 318 324 321 321 320 320 321 320 320 319 317 311 309 311 315 314 314 310 306 305
329 330 329 328 324 321 325 328 328 328 328 328 329 329 326 324 324 326 325 325 321 326 317 316 322 321 320 320 320 320 321 320 319 317 311 310 309 309 308 309 306 306 306
328 330 329 329 326 324 324 326 327 325 326 327 327 328 328 326 325 327 326 324 323 326 317 317 319 322 320 319 320 321 321 320 319 317 312 310 310 308 308 307 307 307 307
329 330 329 329 327 326 326 325 324 323 324 326 327 329 328 328 326 327 327 325 325 324 316 315 313 321 320 320 320 320 320 320 319 317 312 310 309 309 308 308 308 308 309
329 330 330 329 328 327 327 325 323 322 322 323 325 326 328 326 328 327 328 326 326 324 317 314 312 316 318 320 320 320 320 319 319 317 312 311 310 310 309 309 310 310 310
328 329 329 329 328 328 327 324 322 321 321 322 322 323 324 326 327 327 327 327 326 325 315 311 308 313 319 320 320 320 318 318 318 318 317 313 313 313 311 311 310 310 310
329 329 329 329 329 328 326 324 322 320 320 320 321 321 321 322 324 325 327 327 327 325 316 309 308 319 319 319 319 320 319 319 319 319 318 318 318 318 317 316 315 315 315
328 329 329 329 329 328 325 324 319 321 321 321 319 320 320 322 324 323 323 326 326 325 318 309 308 319 318 319 319 320 318 319 320 319 319 319 319 319 319 318 317 317 317
328 329 329 329 329 327 325 324 319 321 321 319 319 320 321 321 322 323 322 326 325 324 316 312 312 315 315 318 319 319 319 318 318 318 318 318 318 318 318 318 317 317 317
329 329 329 329 329 327 325 322 319 321 321 320 319 320 320 321 322 323 325 323 324 325 313 316 317 316 316 317 314 313 319 317 317 317 316 316 317 316 316 315 316 317 317

GFSSE_850_thetae_096.txt.gz
Theta_e
333 331 333 333 332 331 330 327 331 333 334 334 335 337 337 337 333 327 327 328 326 323 324 326 329 330 331 333 333 333 333 333 334 335 334 334 334 333 333 332 332 332 332
328 327 331 334 332 331 330 327 328 328 326 327 329 333 337 336 332 330 328 328 326 325 326 327 328 332 333 333 334 333 333 333 334 334 334 333 333 333 332 331 331 331 330
325 324 330 334 333 332 331 328 327 326 326 325 325 327 333 336 336 334 329 328 326 324 325 329 329 331 332 334 334 332 332 332 333 333 333 333 332 331 331 330 330 330 329
321 323 325 331 334 333 332 330 327 327 327 326 325 327 334 336 337 334 331 329 327 324 325 329 331 333 331 333 333 330 331 332 332 332 331 330 330 329 326 328 328 327 327
321 323 324 330 334 335 334 333 330 327 327 328 326 328 331 333 334 333 331 331 328 324 330 330 330 331 331 333 330 329 329 329 330 328 326 324 326 327 326 326 326 327 326
321 322 324 327 333 335 335 335 334 331 328 327 328 327 331 334 333 332 331 329 326 328 328 329 330 330 329 330 329 326 326 328 328 326 324 324 324 322 324 325 325 325 325
322 322 324 326 330 335 336 335 335 335 331 328 327 327 328 330 332 329 328 326 327 327 328 326 328 329 329 329 328 327 328 327 329 327 325 325 323 317 316 322 325 324 324
320 321 324 326 330 332 335 335 336 335 334 332 333 328 328 328 325 325 320 326 328 327 327 327 328 328 328 327 328 329 327 328 328 326 326 325 323 315 316 314 319 319 317
322 323 325 327 328 331 334 335 336 336 336 335 332 330 328 330 327 325 326 325 325 327 327 328 328 327 328 328 328 329 326 327 326 325 325 323 320 317 316 312 310 311 312
323 325 323 325 327 330 334 335 335 335 336 336 334 332 329 328 327 326 326 325 324 327 331 329 326 327 328 328 328 326 325 325 325 325 324 323 319 316 312 311 312 312 310
324 325 323 323 323 323 327 335 335 335 335 333 333 333 331 328 327 328 326 325 325 326 327 328 325 328 328 327 325 323 320 322 323 324 323 323 321 320 315 311 312 313 315
325 324 324 326 326 326 325 328 334 336 335 333 333 334 331 330 329 329 329 327 326 327 325 327 328 328 327 325 324 322 322 322 321 322 322 322 321 322 317 313 315 318 318
326 324 326 328 328 327 327 327 332 332 334 333 332 331 331 331 330 328 327 324 325 328 327 328 327 327 326 324 323 323 322 321 320 319 321 321 321 321 320 317 320 319 318
327 324 328 329 329 326 327 327 330 331 331 333 333 332 331 328 326 326 328 326 325 326 329 327 327 326 326 324 324 324 322 320 318 318 320 320 320 320 318 319 318 318 315
328 326 329 330 329 324 326 326 330 330 331 332 330 328 326 325 326 326 326 326 326 326 328 326 327 326 326 326 324 323 321 318 314 311 317 319 319 320 320 319 318 316 310
328 326 330 330 328 323 323 323 327 331 331 329 328 326 326 326 326 327 326 325 326 326 326 326 327 326 326 325 323 322 321 318 317 312 315 319 319 319 319 318 317 314 309
326 327 330 330 326 323 322 324 325 327 328 328 327 326 327 325 325 325 327 326 326 325 324 326 326 326 324 323 323 321 320 319 318 316 311 316 319 318 319 318 318 316 308
326 326 329 330 327 323 323 325 325 326 326 327 328 328 327 324 323 323 322 324 326 324 324 326 326 325 322 322 321 321 320 319 319 317 313 311 315 317 317 318 317 311 307
325 325 329 330 328 324 323 326 326 327 326 326 327 328 328 325 324 322 321 322 324 323 326 326 326 324 321 321 320 320 320 320 319 317 314 311 311 312 310 312 310 308 306
325 326 329 330 328 326 324 326 326 327 325 324 325 326 328 327 326 325 323 324 325 322 325 324 324 323 321 320 320 320 320 320 318 317 315 310 313 311 310 308 307 307 307
325 326 328 330 329 327 326 325 325 325 325 324 324 325 326 326 327 326 325 326 325 323 324 321 321 321 320 320 320 320 320 319 318 317 315 312 312 311 310 309 308 308 309
322 325 327 330 329 328 327 325 325 324 322 322 322 323 324 327 325 327 327 326 326 324 326 320 319 321 319 319 320 320 319 318 318 317 316 313 311 311 311 309 309 310 310
320 323 327 329 329 329 327 326 325 323 322 322 321 322 323 324 326 326 326 326 327 325 326 321 319 319 319 319 320 320 318 318 318 317 316 315 313 311 312 310 310 310 310
320 324 328 329 329 329 328 327 325 323 321 320 321 320 320 323 324 323 326 326 327 325 325 324 318 317 319 319 320 320 319 319 318 318 318 318 316 314 315 314 315 315 314
323 325 328 329 329 329 328 328 324 323 320 320 320 319 320 320 321 322 323 324 326 325 325 324 318 313 313 317 318 320 320 319 318 318 318 318 319 318 318 318 318 318 317
323 328 329 329 329 329 329 327 324 322 319 321 320 319 320 322 320 322 323 322 325 323 324 324 318 312 308 316 317 319 320 319 316 314 318 317 317 317 316 315 315 316 316

GFSSE_850_thetae_099.txt.gz
Theta_e
336 329 329 330 331 332 333 333 331 333 335 336 337 338 339 338 335 329 327 328 329 328 328 328 329 331 333 333 334 332 333 334 336 336 335 334 334 333 333 333 333 333 333
325 325 327 330 331 332 332 330 331 334 335 336 337 338 338 338 335 329 327 328 327 325 326 329 332 332 333 333 333 333 334 334 335 334 334 334 334 333 332 332 331 331 331
321 321 325 329 332 332 331 329 330 331 332 334 336 337 337 336 335 328 328 328 326 325 327 331 332 333 332 332 332 333 334 334 334 334 333 333 333 332 331 331 330 329 330
320 320 322 327 332 332 331 329 327 328 327 327 330 333 337 336 332 329 329 328 326 326 327 329 332 332 332 333 332 332 333 333 333 333 332 333 332 331 330 330 329 329 329
320 320 322 327 332 333 332 331 328 327 327 326 326 332 336 335 332 332 330 329 328 327 328 330 329 330 332 334 332 331 332 332 333 332 331 331 330 328 327 328 328 328 327
320 321 323 326 331 333 333 332 330 328 327 328 327 328 334 335 336 333 331 330 329 328 328 329 330 332 332 333 332 330 330 332 332 330 329 327 328 327 327 327 326 325 326
320 321 321 324 328 333 334 334 333 330 328 327 328 327 330 333 334 332 331 332 329 325 327 329 329 331 332 332 330 329 329 329 328 326 325 324 325 324 326 326 325 325 324
321 321 321 324 328 332 335 334 334 334 331 329 328 330 332 331 331 329 326 328 326 327 325 325 329 330 329 329 328 327 327 328 327 326 324 324 321 320 324 325 325 324 321
321 322 322 323 325 330 333 335 335 335 334 332 329 329 329 330 329 328 326 326 324 325 323 323 327 328 329 328 328 327 327 327 328 326 325 325 322 321 321 323 321 320 317
322 323 324 324 324 328 330 331 334 335 336 335 333 332 330 329 329 328 326 322 323 326 324 323 326 326 328 328 328 328 327 327 327 325 325 324 324 322 312 317 312 318 319
322 324 325 326 326 325 331 331 332 335 335 336 336 333 332 329 329 327 323 324 326 325 325 325 323 326 326 328 330 329 327 326 326 325 324 322 323 323 321 317 314 319 319
323 324 325 323 325 324 327 327 331 335 337 338 335 334 333 331 329 327 325 326 325 325 326 325 328 326 325 329 329 327 325 321 324 325 324 323 322 321 321 318 315 318 320
324 324 325 324 325 326 326 326 327 330 333 334 335 334 332 332 330 328 327 326 328 326 327 329 325 326 328 329 327 324 321 322 323 324 324 322 322 321 319 318 318 318 318
326 326 326 325 327 328 327 326 325 329 332 332 333 332 331 331 330 329 328 329 327 327 327 326 325 326 327 327 325 322 322 322 321 322 322 321 321 321 321 319 319 318 318
328 327 326 326 328 329 327 326 326 329 331 331 330 332 330 330 330 330 329 328 326 328 328 326 325 326 327 326 324 322 322 321 320 320 321 320 321 320 320 320 320 319 317
329 328 328 326 329 329 326 324 325 328 331 330 329 330 331 329 328 325 325 325 327 325 326 328 326 326 326 325 324 323 322 320 316 317 320 319 320 319 319 319 319 318 317
326 329 329 326 329 329 325 323 324 327 330 330 331 330 328 326 326 326 325 327 327 327 326 326 326 326 326 325 325 324 321 319 316 314 318 317 319 319 319 318 319 318 317
324 328 330 326 329 330 325 322 323 324 326 330 329 328 327 326 326 324 326 327 326 326 326 326 326 325 325 326 325 323 321 318 317 315 315 317 317 318 318 318 318 318 317
322 326 330 328 329 330 325 322 324 325 326 326 325 326 327 326 325 323 326 326 326 326 325 327 327 325 325 325 324 323 320 319 317 317 316 316 318 318 318 318 317 317 313
318 323 328 329 328 330 325 323 324 326 326 325 325 326 326 328 325 323 322 322 323 326 324 325 325 325 324 323 323 321 320 318 318 317 316 315 316 316 317 316 316 313 307
319 318 326 329 328 330 326 324 324 324 326 326 324 325 326 328 326 324 322 321 322 324 324 324 323 322 318 320 322 320 319 319 319 317 317 315 314 315 315 315 314 313 308
319 319 319 327 328 330 328 326 325 324 325 326 325 324 324 325 326 327 326 323 324 324 323 325 322 323 322 319 321 320 318 318 318 318 317 316 314 315 312 313 312 309 308
319 318 318 322 327 330 329 327 326 325 324 324 323 323 324 325 325 324 327 326 325 325 323 321 324 323 321 321 320 320 318 318 318 318 317 316 315 313 313 311 312 311 309
320 317 318 323 326 329 329 328 327 326 322 321 321 322 322 323 324 326 324 327 325 326 325 322 323 323 322 320 319 320 320 318 319 318 317 317 315 312 312 311 310 310 311
319 317 318 323 327 328 330 328 327 327 324 322 321 321 321 320 322 324 324 325 324 327 325 325 323 321 321 320 319 319 320 319 318 318 318 318 316 316 312 311 312 311 313
319 318 320 322 325 329 330 329 328 327 323 322 320 320 320 319 320 321 323 323 323 325 326 326 324 321 319 320 320 319 319 319 319 318 318 317 316 316 315 315 317 316 316

GFSSE_850_thetae_102.txt.gz
Theta_e
333 331 328 327 328 330 332 334 336 336 335 335 337 337 336 335 334 330 329 329 331 339 340 335 334 332 333 333 334 334 333 334 335 336 336 335 335 334 334 334 336 335 334
334 325 325 327 328 329 332 333 332 330 331 335 337 338 336 336 334 330 328 330 336 341 331 331 331 331 332 334 334 333 334 335 336 335 335 335 334 334 334 335 335 333 333
322 321 323 326 329 331 332 331 330 332 334 336 338 338 337 336 334 331 329 330 337 339 330 334 334 332 332 333 332 333 334 335 335 334 334 335 334 333 332 332 331 331 331
320 320 320 324 329 331 332 330 329 331 334 335 338 339 338 337 334 331 329 329 334 337 334 333 333 333 332 332 332 333 334 334 334 334 335 336 333 332 331 330 330 330 331
320 319 319 321 326 331 332 331 329 329 328 331 337 338 338 337 334 331 329 330 334 333 332 331 333 333 332 332 332 332 333 334 334 335 337 333 333 332 330 329 328 328 329
320 319 319 320 324 330 332 331 330 328 327 327 329 334 337 336 333 331 331 331 331 331 330 329 331 332 332 334 331 332 333 333 333 336 335 334 334 331 329 329 329 328 328
320 319 320 321 324 329 332 332 331 329 328 328 328 331 335 335 333 331 332 330 328 330 329 328 328 329 332 334 332 331 332 333 334 333 334 332 331 328 327 327 326 326 325
320 320 320 321 324 327 331 333 333 332 329 328 328 330 332 333 334 326 330 329 328 327 327 326 326 328 331 333 330 331 331 332 331 331 331 330 329 327 327 326 326 326 325
321 321 321 323 325 329 331 333 334 334 332 331 329 331 332 332 333 331 330 326 326 326 326 326 325 325 328 328 329 331 330 328 331 330 329 329 326 325 326 326 325 325 324
321 321 322 323 325 328 331 333 334 335 334 334 331 330 331 332 333 332 330 327 326 326 325 326 326 323 322 326 327 329 327 328 331 330 329 327 326 325 324 324 324 321 322
322 322 322 323 324 327 330 332 333 335 336 336 334 331 330 330 331 332 329 327 326 326 325 326 325 325 323 324 327 328 328 329 330 328 327 327 325 323 323 322 320 321 318
323 322 322 324 327 326 328 332 334 335 335 337 337 334 333 332 331 330 329 328 325 325 326 325 326 326 325 327 327 329 330 329 329 328 327 323 324 321 321 319 319 319 318
338 330 326 324 325 325 336 325 327 331 333 335 336 335 334 333 332 329 331 326 326 325 325 326 326 326 325 327 328 329 328 329 326 325 325 323 323 321 321 319 318 319 318
338 332 325 325 324 325 336 326 326 324 334 334 333 334 334 333 332 331 329 327 324 325 325 326 327 326 327 328 328 328 328 325 325 325 324 323 322 321 320 318 319 319 319
338 331 326 326 325 326 327 327 324 323 328 331 331 332 333 332 331 331 330 327 326 327 328 327 329 326 329 327 328 328 326 325 325 324 323 321 322 320 320 319 319 319 318
336 337 334 328 326 327 328 330 326 321 328 331 331 330 332 331 330 330 329 329 329 329 328 327 328 326 327 328 328 327 326 325 324 323 322 321 322 321 320 319 320 318 318
333 337 337 329 327 326 329 330 327 331 329 330 330 330 330 331 330 330 330 330 329 327 327 328 327 325 326 327 327 326 325 325 323 321 323 322 321 320 319 319 319 319 318
330 334 337 330 329 326 329 330 330 330 329 328 330 329 330 331 330 329 327 326 326 326 326 326 327 324 327 326 326 325 325 324 322 321 320 322 322 321 319 319 318 318 317
328 332 335 330 329 327 329 330 328 321 323 328 329 330 329 329 328 327 327 325 325 326 327 326 326 325 326 325 325 325 325 323 322 321 320 319 320 320 318 318 318 318 318
327 331 333 329 329 329 328 330 330 322 324 326 325 327 325 327 327 326 326 325 323 326 325 327 325 326 324 325 325 324 324 322 322 321 321 319 320 319 319 319 318 317 317
323 329 331 331 330 330 328 330 326 323 324 326 325 323 325 326 327 327 323 322 324 326 326 326 325 325 322 324 323 323 322 322 321 321 321 319 319 319 320 320 318 317 315
321 321 327 327 329 327 329 330 327 324 325 326 326 324 325 325 326 327 323 322 321 324 326 324 324 325 324 323 321 322 320 320 320 321 321 320 318 318 318 319 318 317 318
321 320 321 325 332 329 330 330 329 326 325 327 326 326 324 325 325 326 324 322 321 323 325 323 322 322 322 321 321 321 319 320 319 319 320 320 319 318 318 318 318 317 316
321 322 324 328 331 330 331 330 329 327 326 325 324 323 326 323 324 325 325 325 322 323 324 325 324 324 320 318 318 319 321 321 320 321 320 319 319 318 318 318 317 317 317
320 324 325 328 331 330 331 329 329 328 328 327 324 322 323 323 323 325 323 324 326 324 325 324 323 323 321 318 317 321 322 322 320 320 320 319 318 319 318 317 318 318 317
319 323 328 328 330 330 329 329 329 328 328 326 323 324 323 323 322 322 323 325 325 323 325 325 324 322 324 324 322 321 321 322 321 321 320 321 320 319 318 315 317 317 317

GFSSE_850_thetae_105.txt.gz
Theta_e
342 340 326 325 327 329 331 334 337 337 337 337 337 337 335 333 332 331 329 330 331 334 336 335 337 337 335 335 335 334 333 333 335 335 335 336 335 335 335 336 337 335 334
342 332 325 325 326 329 331 334 335 335 335 333 336 337 336 334 333 331 330 331 334 339 340 338 337 334 333 333 333 333 333 334 335 336 335 335 334 334 335 336 336 334 333
343 320 322 323 326 328 331 332 332 331 330 332 336 337 336 335 334 331 330 332 339 339 338 335 335 332 332 334 333 332 333 335 335 335 335 335 335 334 334 335 333 333 333
337 321 321 322 325 328 330 331 330 329 332 335 337 338 337 336 335 332 331 337 338 337 335 334 333 333 333 334 333 333 334 335 335 334 336 336 334 333 333 331 331 331 332
337 334 320 320 321 327 330 331 330 329 332 335 337 338 338 337 336 333 331 334 336 335 332 332 332 332 332 332 332 333 334 334 334 335 335 336 334 332 331 331 331 331 330
337 338 320 320 321 326 331 331 330 329 329 330 335 338 338 338 335 333 331 330 331 332 332 331 331 331 332 331 332 333 334 334 333 335 335 334 334 331 330 330 330 329 328
337 339 320 320 322 325 330 332 331 329 328 328 329 334 337 337 335 333 331 331 331 332 331 329 328 327 331 333 331 331 333 333 336 335 335 333 332 331 330 329 329 328 328
340 335 321 320 322 326 330 332 332 330 329 328 328 329 334 335 335 333 332 332 330 328 329 328 326 326 325 330 330 330 330 330 334 334 333 331 330 329 328 328 327 326 325
336 323 321 321 322 324 328 332 333 332 330 329 328 329 332 332 333 333 331 330 329 329 327 326 327 326 326 328 328 329 329 329 332 331 331 330 329 327 327 326 325 326 325
337 322 322 321 322 323 325 330 332 333 333 332 330 329 331 332 333 334 331 330 328 328 326 326 327 327 327 328 327 328 328 328 331 330 330 329 326 326 326 326 325 324 323
343 337 329 330 326 323 325 326 331 333 334 334 332 331 331 332 332 333 333 332 329 328 326 327 326 328 327 326 325 326 327 328 331 330 328 328 325 325 325 324 324 323 320
342 343 342 342 343 339 328 331 328 330 333 335 335 333 331 334 333 333 333 332 330 327 326 325 326 327 326 326 326 325 328 330 329 329 328 327 325 325 324 322 320 319 315
338 341 342 343 343 342 340 341 339 338 337 338 335 336 334 334 334 333 333 332 330 328 327 326 326 326 326 326 324 326 328 330 329 327 325 326 324 323 322 319 318 319 318
337 340 341 342 343 342 340 340 328 335 336 336 334 334 335 335 334 334 334 332 331 329 329 328 326 326 326 325 325 326 328 327 328 326 324 324 324 321 320 316 320 319 319
335 338 341 341 343 342 340 340 338 336 327 326 334 334 333 334 334 333 332 332 332 331 329 326 326 326 327 325 326 327 328 328 326 325 324 323 323 322 321 319 319 318 319
332 336 341 341 342 341 340 339 336 330 323 321 331 334 331 333 333 333 331 331 329 328 327 326 327 328 327 325 327 328 328 326 325 325 322 322 322 322 320 320 320 319 318
328 332 340 342 341 340 339 339 338 337 334 321 328 331 331 331 333 332 330 331 330 328 326 328 329 328 327 329 328 327 327 325 324 324 322 323 322 321 320 319 320 319 318
325 329 337 341 341 338 339 339 338 336 335 330 330 330 330 330 331 331 331 330 330 329 329 329 328 327 326 327 328 327 326 324 322 323 321 324 322 321 320 319 319 319 318
324 327 334 340 341 338 339 338 338 336 335 333 332 332 329 330 329 331 330 329 329 329 327 326 326 326 326 327 328 326 324 323 322 321 324 321 322 321 320 318 318 318 318
323 327 331 338 341 339 337 338 337 336 333 328 330 330 330 329 329 330 330 328 327 328 325 326 325 327 326 326 326 325 323 323 322 321 321 323 321 320 321 319 318 318 318
322 327 331 336 340 337 329 333 336 335 330 324 322 324 330 330 329 329 329 327 326 325 324 327 326 326 325 326 325 324 323 322 321 321 320 320 320 320 320 320 319 319 317
322 324 330 334 337 337 328 332 336 335 331 326 323 325 325 328 327 328 328 327 324 322 323 326 325 325 326 325 324 323 322 322 321 322 321 321 321 320 319 320 320 320 319
322 323 326 332 334 337 333 335 336 333 330 327 326 325 325 326 327 328 327 327 323 322 323 325 325 325 325 324 323 323 321 321 322 321 320 320 320 320 319 318 320 319 319
321 322 324 328 332 335 336 335 335 334 332 329 328 326 327 328 327 327 326 327 324 321 323 325 324 324 324 323 323 322 321 320 321 321 321 321 320 320 319 319 319 319 319
320 321 323 326 330 334 336 335 335 334 333 331 331 327 326 326 328 327 325 325 325 321 322 324 323 322 323 322 323 320 319 317 321 321 321 321 320 320 319 318 319 318 318
321 320 322 326 329 332 335 334 335 334 332 332 331 328 325 324 328 326 325 325 326 325 322 323 324 323 322 323 321 319 320 320 321 320 321 321 321 320 320 320 318 319 319

GFSSE_850_thetae_111.txt.gz
Theta_e
340 332 327 325 325 326 329 331 333 334 336 337 335 337 337 336 334 328 327 327 328 331 332 333 334 334 334 338 338 336 337 336 337 337 337 336 335 334 335 335 334 333 333
335 326 324 323 323 324 327 330 331 334 335 336 335 336 337 336 335 330 327 327 329 331 332 333 335 335 334 334 334 333 333 333 336 336 335 334 334 334 335 334 333 333 333
332 325 323 322 322 324 326 329 331 332 334 335 333 335 336 336 335 331 328 327 329 334 335 334 335 335 334 333 332 332 332 334 335 334 334 333 334 335 335 333 333 332 332
324 322 322 322 322 324 326 329 330 331 330 329 330 334 336 336 335 334 329 328 332 335 333 332 332 330 331 332 332 332 333 334 334 334 333 333 334 335 334 332 332 332 332
322 321 320 320 320 323 327 329 329 329 328 330 332 335 336 336 335 335 330 328 333 334 331 330 329 328 330 331 332 332 334 334 334 334 333 333 334 334 333 333 332 333 333
322 320 320 319 319 322 327 329 329 328 329 332 334 335 337 336 336 336 332 329 332 332 331 331 330 329 330 331 331 333 334 334 333 335 334 333 333 332 332 332 332 332 333
324 320 320 319 319 320 324 327 329 329 329 330 331 334 337 337 336 336 334 330 330 332 331 330 330 328 329 331 331 333 333 333 332 334 334 333 332 331 330 331 330 329 330
323 320 320 320 319 319 321 325 328 329 329 328 328 331 336 337 336 336 333 331 330 331 331 330 330 327 328 330 331 332 333 332 332 333 333 332 331 330 329 329 328 327 326
329 320 320 320 320 320 320 322 325 328 329 329 328 328 331 334 336 335 333 331 330 331 331 330 328 326 328 327 329 330 331 331 331 331 332 331 330 328 328 328 327 326 326
332 322 320 321 321 320 320 321 323 327 329 330 330 329 329 330 333 335 334 332 331 332 330 330 328 327 327 327 326 326 329 330 329 329 332 330 329 329 328 326 325 324 325
335 325 321 320 321 321 320 321 322 325 327 330 331 330 329 330 331 332 334 332 331 331 329 329 328 326 326 327 327 326 328 328 328 329 326 328 328 326 325 324 322 323 323
336 328 323 321 321 321 321 321 322 323 326 328 330 331 331 330 330 331 333 333 332 330 329 329 328 327 326 327 328 325 326 326 328 328 329 328 327 326 325 319 324 323 323
337 337 327 324 322 321 321 321 322 323 324 326 329 330 331 331 331 331 332 333 332 329 330 328 328 327 327 327 327 327 326 325 328 328 329 328 326 326 325 321 322 324 323
338 336 334 330 325 324 322 323 322 323 322 323 324 329 331 332 332 332 332 332 333 333 331 329 328 328 327 326 326 328 326 325 325 327 328 328 326 325 323 322 322 320 319
339 338 336 334 330 328 330 327 324 326 325 329 327 328 332 333 333 332 332 332 332 333 332 331 330 328 327 325 326 327 326 326 325 327 328 327 325 324 322 323 322 319 319
338 338 338 337 334 333 335 331 330 330 328 330 330 329 329 331 332 332 333 334 333 333 332 332 331 329 328 326 326 326 327 325 325 327 328 325 324 322 322 320 318 319 320
327 337 339 338 336 335 333 332 337 339 333 329 327 329 322 328 332 332 333 333 332 333 332 331 330 328 328 327 326 326 327 325 325 327 327 324 323 322 322 319 319 319 319
319 326 338 339 337 336 335 333 332 338 335 330 329 326 321 328 332 332 332 333 333 332 331 331 330 329 329 327 326 327 326 325 327 327 325 324 322 321 322 320 317 319 319
318 319 330 339 338 337 337 338 335 335 337 331 330 327 325 328 330 332 331 333 332 332 331 331 331 329 328 327 327 327 325 325 327 327 325 322 321 321 321 317 319 319 318
319 319 322 334 337 337 337 338 339 338 335 335 333 331 326 321 325 329 328 331 331 331 330 330 330 329 328 327 328 326 324 325 327 326 323 320 320 321 320 319 320 320 319
320 319 319 331 336 339 340 340 337 337 337 337 334 333 329 325 321 324 327 329 330 330 330 331 329 328 329 327 326 327 325 324 326 326 321 321 320 320 321 320 319 320 319
321 320 321 327 333 339 338 336 334 333 338 337 336 333 330 327 321 321 325 328 329 329 329 329 330 330 327 325 325 326 325 325 324 324 322 321 321 320 320 318 317 318 319
321 320 319 325 330 338 337 338 338 338 338 337 336 334 331 328 323 323 326 328 328 329 328 328 328 328 326 323 326 325 324 323 323 324 322 322 321 319 318 318 319 318 317
322 322 326 324 333 337 336 336 336 334 332 337 337 335 333 329 325 325 325 325 328 327 327 327 325 322 325 325 326 325 323 323 322 323 323 322 321 320 319 318 319 318 319
325 325 324 333 335 337 336 332 332 336 334 333 338 336 334 328 327 328 325 324 326 326 326 326 322 322 323 326 326 325 323 323 322 321 320 320 321 321 319 319 320 317 318
327 329 327 324 328 331 333 333 325 331 332 332 337 336 334 329 328 328 324 326 325 327 326 324 322 323 323 325 325 324 322 322 321 320 320 320 319 322 321 320 320 319 319

GFSSE_850_thetae_114.txt.gz
Theta_e
339 330 331 335 333 330 331 333 332 334 336 334 335 337 336 334 330 327 327 327 328 331 332 331 332 333 335 339 337 337 337 337 337 338 337 336 335 335 334 334 334 333 332
338 331 328 329 328 326 327 331 332 333 335 335 335 337 336 335 331 327 327 326 329 331 331 332 333 334 335 336 336 334 335 333 335 336 335 335 335 334 334 334 333 332 332
333 326 325 325 325 325 326 329 331 333 334 335 334 336 336 335 333 328 326 327 328 329 331 332 334 334 334 334 333 332 333 333 334 334 334 334 334 334 334 333 333 332 332
327 324 323 323 324 324 326 328 331 333 334 334 332 335 336 335 335 331 327 327 331 332 330 332 333 331 331 332 331 332 333 334 333 334 334 333 334 334 333 333 332 332 332
323 322 322 322 323 324 326 327 330 331 331 330 330 334 335 335 335 333 328 328 332 332 331 330 329 328 329 331 331 332 333 334 334 334 333 332 333 333 332 332 332 332 332
322 321 320 320 320 321 324 326 328 328 328 329 331 334 335 336 335 335 330 329 332 332 330 330 329 330 331 331 332 333 333 334 333 333 332 332 332 333 333 332 332 332 332
322 320 319 319 318 320 322 324 326 328 328 330 332 334 336 336 336 336 332 330 333 332 330 330 329 328 330 330 331 333 333 332 333 333 332 332 332 332 331 332 332 331 330
321 319 319 319 318 319 319 322 324 327 328 329 330 333 335 336 336 336 333 330 332 332 330 330 329 327 329 330 331 332 332 332 331 332 332 332 332 333 330 330 330 327 329
321 319 319 319 319 319 319 320 323 324 327 328 328 329 332 334 335 335 334 332 331 332 331 330 329 326 326 329 330 331 332 331 331 332 332 332 327 328 329 329 328 326 326
322 319 320 320 320 320 320 320 321 321 323 328 328 328 329 331 334 334 334 332 330 331 331 330 328 325 326 327 329 330 330 331 330 330 331 330 330 328 328 328 327 325 325
326 321 320 320 320 320 320 320 321 321 321 325 328 329 329 329 330 333 333 333 330 331 331 330 329 327 326 327 327 327 328 330 329 328 330 331 330 329 327 327 325 323 323
331 325 321 320 320 320 320 321 321 320 320 321 325 328 329 329 330 331 333 333 331 331 331 329 329 328 326 326 326 327 327 328 328 326 327 329 329 328 326 324 319 320 323
327 331 323 321 321 321 321 321 321 321 320 319 322 326 329 329 330 331 331 333 332 331 329 330 329 328 328 326 327 327 326 327 326 326 328 328 328 328 327 324 320 319 319
333 330 328 324 322 321 321 321 321 321 321 319 319 323 326 329 330 331 331 332 333 332 330 330 329 328 328 327 327 327 327 325 326 327 328 325 327 327 326 324 321 315 318
336 335 333 328 324 322 321 321 321 322 322 320 319 321 323 326 329 331 331 332 332 332 332 332 331 329 328 327 327 326 327 326 326 326 327 327 327 326 325 323 322 314 317
336 337 336 334 330 326 323 323 323 323 323 321 322 321 320 326 328 331 331 331 332 332 331 332 332 331 330 329 327 325 326 327 326 326 326 326 326 326 324 323 321 315 316
335 335 337 338 335 333 328 326 326 325 326 325 324 324 324 324 325 329 331 331 332 333 332 332 332 332 330 329 327 325 326 326 326 326 325 327 327 325 323 322 321 316 314
319 336 337 338 338 336 334 331 327 328 327 330 326 326 325 324 324 329 331 332 333 333 332 332 331 331 330 328 328 327 326 326 327 326 326 327 326 324 322 321 320 314 318
318 318 327 335 338 337 336 334 332 331 330 330 329 327 326 325 321 326 330 331 332 333 332 332 331 330 330 329 329 328 326 327 327 325 326 327 325 323 322 321 318 319 319
320 319 319 324 330 335 338 338 337 337 337 335 333 328 328 326 323 323 329 331 331 332 333 331 331 331 330 329 329 327 326 327 325 325 326 326 324 322 321 321 319 317 319
320 320 320 320 323 335 340 339 340 338 336 337 336 332 331 329 325 324 327 328 330 332 332 331 331 329 328 327 327 326 326 325 325 324 325 325 323 322 322 321 317 319 319
320 320 320 320 320 327 338 339 339 339 337 336 336 334 333 332 327 323 323 324 326 330 331 329 328 327 327 326 326 325 326 326 324 326 325 325 322 321 321 321 318 320 319
320 320 319 321 320 323 333 340 337 337 336 336 337 336 334 334 331 324 323 324 324 327 329 329 328 327 326 325 325 324 325 325 325 325 325 323 321 320 320 320 319 319 319
325 325 324 329 335 332 334 340 338 337 333 329 330 333 333 334 332 327 323 325 324 327 327 328 328 329 326 325 324 324 324 324 324 324 324 322 321 320 319 318 318 317 317
324 326 327 336 339 339 339 339 337 339 334 331 330 330 333 335 334 330 325 327 327 326 327 327 328 329 329 327 325 322 324 323 324 323 323 324 322 320 319 319 318 318 318
321 323 326 326 331 338 338 335 335 336 335 334 333 333 333 335 335 333 330 327 328 325 326 326 327 326 325 321 322 323 324 323 324 324 323 323 323 322 321 320 319 319 319

GFSSE_850_thetae_117.txt.gz
Theta_e
332 338 339 338 337 337 336 334 333 334 334 335 335 334 333 330 327 329 331 333 330 331 331 331 333 334 337 339 337 337 336 336 338 338 337 336 336 335 334 333 334 333 333
331 334 335 337 336 335 336 334 333 335 334 334 335 335 334 331 327 327 327 327 328 330 331 331 332 334 336 336 335 335 335 335 336 336 336 335 334 334 334 333 333 333 333
333 330 333 333 332 332 333 333 333 334 335 333 335 335 335 333 329 326 326 327 328 330 331 332 333 333 334 334 333 332 333 333 334 335 335 334 334 334 334 333 332 332 332
334 328 328 329 328 328 329 330 331 332 334 334 334 335 335 335 331 327 327 327 328 329 331 332 333 332 332 331 330 330 331 333 333 334 334 334 333 333 333 332 332 332 331
328 325 324 325 326 326 326 328 329 331 333 333 333 335 335 335 333 329 327 329 332 331 330 330 329 329 330 329 330 330 332 333 333 334 334 333 334 333 333 333 332 331 331
325 323 322 323 325 326 325 327 328 330 331 330 329 333 335 335 335 331 328 330 332 332 330 329 327 328 329 330 329 330 332 333 334 334 332 332 332 334 333 332 331 331 331
323 322 322 322 323 324 324 325 327 327 327 327 328 333 335 335 335 333 330 329 332 331 330 329 328 329 330 329 329 331 333 333 333 333 331 332 331 333 332 332 332 331 330
322 321 320 320 320 322 322 324 325 326 326 327 329 332 335 335 335 335 332 330 332 331 330 330 328 328 329 329 329 332 332 332 332 332 331 332 332 333 332 332 331 331 329
321 319 319 319 320 320 322 323 324 325 325 327 329 330 333 335 335 335 334 331 330 332 330 330 328 327 328 329 330 331 332 332 332 332 332 332 332 330 328 331 330 328 328
320 319 319 318 319 319 321 323 323 324 323 325 327 328 330 333 335 335 334 332 330 330 331 329 328 326 328 329 329 330 331 331 331 332 331 332 331 327 326 327 328 326 325
320 320 319 319 319 319 320 321 323 324 324 325 326 327 328 329 332 334 334 333 331 330 331 329 328 326 327 327 327 329 329 330 330 330 330 331 330 328 328 327 328 326 324
320 320 320 319 319 320 320 320 321 322 323 325 325 325 327 328 329 331 333 333 332 330 331 330 329 327 326 326 327 327 327 327 330 329 327 330 330 330 329 326 327 324 323
322 321 320 320 320 320 320 320 320 320 321 323 324 324 325 328 329 330 332 333 332 331 330 331 329 328 327 327 326 326 326 326 327 329 327 327 328 329 328 326 323 320 322
326 323 321 320 320 320 320 320 320 320 320 321 322 324 324 326 328 329 330 331 333 332 331 330 329 329 328 328 326 326 327 326 327 327 326 328 328 328 328 326 323 321 319
329 327 325 322 320 320 320 320 320 321 321 321 321 322 322 323 324 327 329 330 332 332 331 330 329 329 328 328 327 327 326 327 326 325 326 327 328 326 325 326 324 322 316
331 332 331 329 325 322 320 320 320 321 321 321 321 320 321 322 323 325 328 330 331 332 332 332 331 330 330 329 328 327 326 326 327 326 326 326 327 326 326 326 325 322 316
334 334 334 334 334 331 325 322 321 321 321 321 322 320 321 321 322 323 327 329 330 331 332 332 332 332 331 330 329 328 326 325 326 327 326 326 326 327 327 326 325 324 319
336 336 334 336 337 336 333 329 324 322 322 322 322 321 322 322 322 323 326 328 330 331 332 331 331 332 331 331 330 329 327 325 325 326 326 326 326 326 326 326 324 323 322
334 334 335 334 336 337 337 335 331 328 326 325 324 324 324 324 324 322 324 327 330 331 332 333 332 332 331 331 330 328 327 327 325 326 326 326 326 327 325 324 324 322 321
319 319 319 319 321 329 339 338 336 335 334 331 328 328 326 325 325 323 322 326 330 332 332 332 332 332 331 330 330 328 328 328 326 326 326 326 326 327 325 324 323 321 320
319 319 319 319 318 322 336 339 339 337 336 336 334 333 330 328 327 325 323 325 330 331 334 330 331 333 331 329 328 328 327 327 326 324 325 325 325 326 325 323 322 319 319
317 317 317 317 319 319 321 326 337 338 337 337 337 337 336 331 329 327 325 324 328 331 332 329 329 328 328 328 328 328 326 325 324 325 324 326 324 325 325 322 321 320 318
319 320 320 318 318 319 321 325 337 340 340 337 335 336 336 334 332 329 328 324 325 328 334 329 329 327 327 327 327 326 325 324 324 325 324 325 323 325 324 322 321 319 318
325 326 324 321 322 326 332 337 338 333 336 334 332 332 333 335 332 332 330 326 324 326 328 329 331 330 326 326 327 326 325 324 324 324 324 324 325 324 323 322 321 319 319
322 326 330 333 331 334 339 338 336 336 336 336 334 334 333 334 333 333 332 328 324 324 327 328 327 327 328 326 326 325 324 324 323 324 324 322 324 323 322 320 320 320 319
319 322 325 330 336 337 339 340 339 335 337 333 333 334 333 332 333 334 333 330 326 324 324 326 327 326 326 326 326 324 323 323 323 324 323 324 324 322 321 320 319 318 318

GFSSE_850_thetae_120.txt.gz
Theta_e
331 336 339 337 336 336 335 333 331 332 333 332 332 331 330 329 330 336 336 336 334 330 330 331 333 335 337 337 336 335 335 335 338 336 337 336 335 335 334 333 333 333 332
328 335 338 337 337 336 335 333 331 332 333 332 333 333 331 328 327 328 329 331 330 330 330 331 332 335 336 337 336 335 335 335 337 336 336 336 336 334 333 333 333 332 332
329 335 338 337 337 336 335 333 332 332 333 333 334 334 333 329 326 326 327 328 329 330 330 331 332 333 334 334 332 331 331 332 334 335 335 335 336 333 333 333 332 333 333
330 333 336 336 336 335 335 333 332 333 333 332 334 334 334 332 327 326 326 327 329 330 331 332 332 333 332 330 329 329 330 331 333 334 334 333 335 334 333 332 332 332 331
332 332 334 333 334 333 333 333 332 332 333 332 333 334 334 334 329 327 327 328 329 329 331 332 332 331 329 328 328 329 330 332 333 333 333 333 333 334 333 332 332 331 330
332 329 329 329 329 331 331 331 331 332 333 333 332 333 334 334 332 328 328 330 331 330 329 328 328 328 328 329 329 329 331 332 333 333 333 333 332 333 333 332 331 331 330
328 327 326 325 326 328 329 330 330 331 332 332 330 331 334 334 334 331 328 331 332 330 329 328 326 327 329 329 328 329 331 332 333 333 332 333 331 333 333 332 331 331 330
325 325 324 324 325 327 328 328 328 329 330 329 328 330 332 334 335 333 330 330 331 330 329 328 327 328 328 327 327 330 332 331 333 333 331 332 331 334 332 331 331 330 329
325 323 323 323 324 325 326 327 326 327 327 327 328 329 332 334 335 335 332 330 332 331 329 329 327 327 326 326 328 330 331 332 331 331 331 331 331 333 330 331 330 329 328
323 322 322 321 321 323 325 326 325 326 326 327 329 330 331 333 334 335 334 331 330 331 329 329 327 326 325 326 328 330 331 331 331 331 331 331 331 327 325 325 325 329 326
323 322 321 321 321 322 323 324 325 325 326 328 329 330 331 332 333 334 334 333 330 330 330 329 328 326 325 326 327 328 330 331 330 331 331 332 331 331 326 326 324 327 326
322 321 320 320 320 321 322 322 323 324 325 326 327 328 329 330 331 332 333 333 332 330 331 330 328 326 326 326 327 327 327 328 329 330 330 331 331 330 328 325 326 326 326
321 320 319 319 319 320 320 321 320 322 323 323 324 326 328 329 330 331 332 332 332 331 330 331 329 327 326 326 326 327 327 326 327 329 328 327 328 330 330 327 325 325 322
321 320 319 319 319 320 320 320 319 320 320 321 321 323 326 328 329 329 330 331 332 331 331 330 330 329 327 326 327 326 326 326 326 327 328 327 327 327 329 328 325 323 320
322 320 320 320 320 320 320 320 320 320 320 320 319 320 323 326 327 328 329 330 331 331 331 330 330 330 329 328 327 327 326 326 326 326 327 326 327 328 328 328 326 324 321
327 323 321 320 320 320 320 320 320 320 320 320 320 319 320 321 325 326 327 328 330 331 332 331 331 330 329 329 328 328 327 327 326 326 325 325 326 327 327 327 326 325 321
334 330 327 324 322 321 320 320 320 320 320 320 321 320 320 319 321 325 326 327 328 330 330 332 332 331 329 329 329 328 327 327 327 326 326 325 326 326 326 327 326 326 324
338 335 332 331 329 326 324 322 321 320 320 321 321 322 321 321 320 322 324 326 328 330 330 331 332 332 331 330 330 330 328 328 327 325 325 326 326 326 326 327 327 326 324
337 336 333 333 334 334 332 332 330 323 322 321 322 322 322 322 321 321 322 324 328 330 330 331 331 331 332 331 331 330 330 328 327 326 325 325 325 325 326 327 326 326 324
335 335 334 334 335 336 337 336 335 332 327 324 322 322 323 322 323 323 323 323 326 330 330 330 331 332 332 332 331 331 330 329 327 326 327 325 325 325 325 327 326 324 324
316 328 334 336 336 336 338 338 338 337 336 333 328 326 326 324 327 326 325 325 325 328 330 330 330 330 330 330 329 329 329 328 328 327 328 326 325 325 324 325 324 324 323
317 316 320 331 333 330 331 329 334 336 337 337 334 332 330 329 330 327 327 326 323 326 330 331 329 328 328 327 329 328 328 325 327 325 325 325 325 324 324 326 324 324 322
317 317 316 317 317 320 325 329 337 339 339 339 338 336 335 333 332 330 328 328 327 325 328 330 329 328 327 327 323 325 327 326 325 323 323 323 324 324 324 324 325 324 321
321 321 320 318 317 317 323 327 332 334 335 333 336 338 337 336 333 333 330 330 328 327 325 328 329 327 327 327 326 326 327 325 324 323 323 324 324 323 325 325 325 323 321
322 325 326 324 321 321 330 336 329 332 333 332 334 334 336 334 335 336 334 332 331 330 327 325 329 330 326 327 327 325 326 327 326 324 323 323 323 323 324 324 326 322 321
317 320 327 330 332 333 333 334 337 337 336 335 335 334 336 335 333 333 333 332 332 331 329 326 329 327 327 326 328 327 325 325 326 325 324 322 323 323 323 324 324 321 321

GFSSE_850_thetae_123.txt.gz
Theta_e
327 333 336 337 335 335 333 332 332 331 331 330 329 328 329 333 337 338 338 336 333 330 331 333 334 335 335 335 335 334 335 335 337 336 336 336 335 335 334 333 333 332 332
324 331 335 337 335 335 334 332 332 332 332 331 330 329 329 330 332 334 334 333 330 330 330 332 334 335 336 336 335 335 334 335 337 336 335 334 330 335 333 333 333 332 332
327 330 335 337 335 335 334 333 332 332 332 332 332 331 329 328 328 328 328 328 329 330 330 331 332 334 336 335 334 333 332 334 335 335 335 336 335 334 333 333 332 332 332
327 330 334 336 336 336 335 334 333 333 332 331 332 332 330 328 327 327 326 326 328 329 329 331 332 333 333 332 331 330 330 331 333 334 335 336 334 333 333 333 333 333 332
329 330 333 335 336 336 335 334 333 333 332 331 332 333 332 329 327 326 326 326 328 328 329 331 332 332 331 329 328 329 330 331 333 334 335 333 336 334 333 333 333 331 331
330 332 332 335 336 336 335 335 334 333 333 332 333 333 333 332 328 327 327 328 328 328 329 331 331 330 328 328 329 329 331 332 333 333 333 333 336 334 333 332 332 331 329
331 331 333 334 335 335 335 335 334 334 334 332 332 333 334 333 331 328 328 330 330 329 328 327 326 327 327 328 328 329 331 332 332 333 333 332 332 333 333 332 331 330 329
332 331 332 334 334 334 334 334 334 334 334 333 332 332 333 334 333 330 328 330 331 330 329 327 325 326 327 327 327 329 331 332 333 333 332 332 332 332 333 331 330 330 329
333 330 332 333 333 332 332 332 332 332 332 332 331 330 332 334 334 333 330 330 331 330 329 328 326 325 325 324 326 329 331 331 332 332 331 331 331 333 326 329 330 329 329
333 330 330 330 329 330 331 330 331 331 331 330 328 329 332 333 334 334 332 330 332 330 329 328 326 324 324 324 326 329 330 331 331 332 331 331 331 332 325 324 325 328 328
332 330 329 326 326 327 328 328 330 331 330 328 327 329 332 333 334 334 333 332 331 331 329 329 327 326 325 325 326 328 330 331 331 331 331 331 331 330 328 326 326 325 323
330 327 327 325 325 324 325 327 329 329 329 328 328 329 331 333 334 334 334 333 331 331 331 329 328 326 325 326 327 327 328 329 330 330 331 331 332 331 329 325 324 324 322
334 330 326 325 324 323 324 326 327 328 327 328 329 329 330 332 333 334 334 333 333 332 331 330 329 327 325 326 326 327 327 327 328 329 329 329 330 330 329 326 326 326 326
333 328 327 327 324 322 323 325 325 325 326 327 326 327 328 329 330 332 333 333 333 332 331 331 329 328 326 326 326 326 327 327 326 327 328 328 328 327 328 328 328 326 326
335 327 326 326 325 322 322 322 324 322 324 326 325 326 326 326 326 328 330 331 332 332 332 331 330 329 328 327 327 327 327 326 326 326 326 328 327 326 327 328 329 326 322
326 329 325 325 324 323 322 321 322 322 321 322 323 323 324 324 324 325 327 329 331 332 332 332 331 330 330 329 328 327 327 327 327 326 326 326 326 326 327 328 330 326 324
319 328 325 324 324 323 323 322 320 321 320 320 320 321 322 322 323 323 325 326 328 331 332 332 332 331 331 330 329 329 328 328 327 327 326 326 326 326 326 327 328 327 326
317 320 331 326 323 323 321 323 321 321 321 320 320 321 321 321 321 322 323 324 325 328 330 332 332 332 331 330 330 329 329 329 328 327 327 326 326 326 326 326 326 327 327
317 318 322 334 326 322 322 322 323 322 322 321 321 321 322 322 321 322 322 324 326 326 328 331 332 332 332 331 331 330 330 330 329 328 327 326 325 325 326 326 325 326 326
314 316 319 329 335 330 325 324 324 324 324 323 322 321 322 322 323 323 323 323 325 326 327 330 331 332 332 332 331 331 331 330 329 329 328 327 326 325 325 325 325 327 327
315 315 324 333 338 337 334 332 330 330 329 326 325 323 323 323 323 324 323 324 324 325 326 328 330 331 331 331 330 330 330 329 330 329 327 327 327 327 326 325 324 325 327
314 314 321 330 337 338 337 336 336 335 335 335 332 330 327 324 323 324 323 324 324 324 326 327 329 331 331 327 329 328 328 327 327 326 326 325 325 325 325 324 324 326 324
315 315 314 320 331 336 337 338 337 338 338 337 337 335 334 329 327 326 325 327 325 325 324 325 327 331 331 326 328 328 327 328 325 325 324 324 324 323 323 322 323 324 323
318 318 317 315 318 326 334 333 335 332 332 332 331 336 337 335 332 330 328 331 329 328 327 325 324 331 329 327 327 326 326 325 327 326 324 324 323 323 324 323 323 323 322
316 320 322 321 318 316 316 335 340 339 334 332 328 330 333 335 335 334 332 334 333 331 330 328 327 328 329 327 326 326 326 325 327 326 326 325 324 323 322 323 322 324 324
311 317 321 324 323 321 320 323 336 336 337 336 333 333 333 334 335 337 334 332 333 331 331 330 330 328 327 327 326 325 325 327 326 326 325 325 324 324 323 322 323 324 324

GFSSE_850_thetae_126.txt.gz
Theta_e
342 330 333 338 340 336 333 334 336 338 340 340 340 340 339 338 338 337 336 334 330 330 331 333 333 334 335 335 335 335 336 335 337 336 336 336 336 332 331 333 336 336 333
341 332 332 335 336 335 333 334 336 337 336 337 336 335 335 336 337 337 337 335 329 329 331 332 334 335 335 335 335 335 335 336 337 336 336 336 332 334 334 333 337 334 333
341 331 334 335 336 334 333 333 333 333 332 330 330 332 332 332 335 336 335 333 329 329 330 333 334 335 337 336 336 335 335 336 336 335 335 340 337 334 333 333 335 332 332
339 329 334 335 336 334 334 332 332 331 331 330 330 330 330 330 332 331 331 328 329 329 329 331 333 335 336 335 333 332 332 334 335 335 338 339 338 334 333 333 332 332 333
343 332 334 336 336 334 334 333 332 333 332 332 331 331 330 329 329 328 327 327 328 328 329 330 332 334 334 332 330 330 331 332 334 335 342 341 338 334 334 333 333 333 332
344 344 333 336 336 335 335 334 333 333 333 333 332 332 330 328 328 327 326 327 327 328 328 330 331 332 331 329 328 329 331 332 333 341 341 337 337 334 333 333 333 332 331
344 344 333 336 335 335 335 335 334 333 333 333 332 333 332 329 328 327 327 328 328 327 328 329 330 328 328 327 328 329 330 331 338 339 340 337 336 333 333 333 332 330 329
342 338 335 337 336 336 336 335 334 334 334 333 333 333 333 331 328 328 328 330 330 328 328 327 326 326 327 328 327 327 329 331 335 339 336 334 334 333 333 332 331 330 328
334 335 336 337 337 336 336 335 335 334 334 333 333 333 333 333 331 329 328 330 331 329 329 328 325 326 328 327 326 326 329 331 337 335 335 332 332 332 332 326 328 329 328
336 335 337 338 337 337 337 336 335 334 334 334 333 332 333 333 332 331 329 330 331 330 329 328 327 327 327 326 326 327 329 330 338 337 334 332 331 332 330 328 325 327 327
341 340 341 339 337 337 337 337 336 335 334 334 333 332 333 333 333 332 331 331 331 331 329 329 327 327 326 326 326 328 329 335 337 336 333 331 331 331 327 325 325 325 326
345 344 343 340 339 341 342 339 336 335 335 334 333 332 333 337 337 337 335 332 332 332 330 329 328 327 327 331 327 327 333 336 335 336 333 330 331 329 327 327 326 326 325
341 343 343 343 340 338 340 339 337 339 337 335 333 331 334 339 340 338 338 333 333 332 332 330 329 328 332 334 336 335 335 334 334 334 332 329 331 330 330 326 326 325 324
331 341 342 342 341 339 340 339 332 338 332 334 337 333 338 337 339 339 340 339 339 337 338 335 335 335 330 327 334 335 334 334 333 333 332 328 328 328 328 329 326 324 326
322 335 339 341 340 339 337 339 337 339 335 329 327 328 330 337 338 337 339 340 340 338 338 339 338 334 332 332 332 333 334 334 333 332 333 329 328 328 327 328 327 328 326
318 329 339 339 336 333 332 334 334 330 337 328 326 326 328 332 337 338 337 337 337 336 339 339 337 333 335 335 333 331 332 333 332 332 332 332 327 328 326 326 328 329 326
315 321 333 338 336 328 326 327 330 330 328 324 325 326 326 326 327 328 331 335 331 337 336 336 336 333 334 334 334 333 331 328 330 332 331 332 332 327 326 326 327 328 327
315 316 322 335 338 328 326 325 333 333 324 327 323 324 326 326 325 324 328 330 331 333 333 333 332 331 334 334 334 333 333 332 332 332 332 331 331 329 327 326 326 327 328
314 316 319 331 337 336 326 327 331 331 324 323 322 323 322 325 325 322 323 326 328 327 329 331 331 332 333 334 334 334 333 333 332 332 332 332 331 329 330 327 326 326 326
315 316 317 327 338 338 334 331 336 334 323 323 322 322 322 323 324 323 323 323 325 327 327 328 330 331 332 332 332 334 332 331 331 331 330 330 330 330 329 327 327 326 325
316 318 316 323 336 338 338 336 335 335 328 326 324 323 323 323 324 324 324 323 323 324 325 325 328 330 332 332 332 331 331 330 330 330 329 328 328 328 328 328 327 326 325
315 314 316 324 330 338 339 337 333 333 334 333 333 328 323 323 323 324 325 325 324 325 326 327 327 330 332 332 332 331 331 330 328 329 328 327 329 328 327 325 326 327 326
312 313 315 322 334 338 340 339 337 336 337 336 335 333 331 328 327 324 325 328 327 325 325 325 326 327 330 331 331 330 330 328 328 329 326 326 325 327 325 326 324 325 324
307 311 313 319 327 338 339 340 340 339 339 339 338 338 337 334 332 330 327 331 332 326 326 326 327 327 329 330 332 330 328 329 328 328 329 324 325 325 325 325 325 325 324
307 311 313 317 320 329 337 339 339 339 341 341 338 336 335 335 336 334 333 331 329 327 327 328 329 329 330 330 331 330 327 329 329 327 327 329 326 325 327 326 323 324 323
305 308 311 315 317 321 333 336 330 335 339 338 338 339 341 336 333 336 337 334 332 330 329 332 330 330 330 330 332 331 330 329 328 327 327 326 327 327 327 326 325 323 324